<?xml version="1.0" encoding="UTF-8" ?>
<gpx version="1.1" creator="CartoExploreur 3 3.20" xmlns:xsi="http://www.w3.org/2001/XMLSchema-instance" xmlns="http://www.topografix.com/GPX/1/1" xsi:schemaLocation="http://www.topografix.com/GPX/1/1 http://www.topografix.com/GPX/1/1/gpx.xsd">
    <metadata>
        <time>2012-08-31T16:50:12Z</time>
        <bounds maxlat="47.586262375" maxlon="6.899570050" minlat="47.317274949" minlon="6.773204310" />
    </metadata>
    <trk>
        <name>GTJ1-14-JUIL-12</name>
        <trkseg>
            <trkpt lat="47.586262375" lon="6.897982517">
                <ele>355.000000</ele>
                <time>2012-07-14T10:41:59Z</time>
            </trkpt>
            <trkpt lat="47.586261872" lon="6.897985702">
                <ele>355.000000</ele>
                <time>2012-07-14T10:42:00Z</time>
            </trkpt>
            <trkpt lat="47.586228596" lon="6.897971118">
                <ele>358.000000</ele>
                <time>2012-07-14T10:42:09Z</time>
            </trkpt>
            <trkpt lat="47.586230524" lon="6.897975057">
                <ele>361.000000</ele>
                <time>2012-07-14T10:42:15Z</time>
            </trkpt>
            <trkpt lat="47.586222896" lon="6.897982517">
                <ele>364.000000</ele>
                <time>2012-07-14T10:42:29Z</time>
            </trkpt>
            <trkpt lat="47.586234128" lon="6.898048483">
                <ele>364.000000</ele>
                <time>2012-07-14T10:42:33Z</time>
            </trkpt>
            <trkpt lat="47.586233206" lon="6.898087123">
                <ele>364.000000</ele>
                <time>2012-07-14T10:42:35Z</time>
            </trkpt>
            <trkpt lat="47.586132120" lon="6.898170607">
                <ele>368.000000</ele>
                <time>2012-07-14T10:42:47Z</time>
            </trkpt>
            <trkpt lat="47.586079817" lon="6.898119645">
                <ele>371.000000</ele>
                <time>2012-07-14T10:43:01Z</time>
            </trkpt>
            <trkpt lat="47.586045787" lon="6.898077317">
                <ele>372.000000</ele>
                <time>2012-07-14T10:43:04Z</time>
            </trkpt>
            <trkpt lat="47.585958615" lon="6.897969609">
                <ele>375.000000</ele>
                <time>2012-07-14T10:43:16Z</time>
            </trkpt>
            <trkpt lat="47.585958783" lon="6.897824854">
                <ele>377.000000</ele>
                <time>2012-07-14T10:43:23Z</time>
            </trkpt>
            <trkpt lat="47.585974038" lon="6.897563674">
                <ele>381.000000</ele>
                <time>2012-07-14T10:43:33Z</time>
            </trkpt>
            <trkpt lat="47.585982252" lon="6.897551185">
                <ele>381.000000</ele>
                <time>2012-07-14T10:43:34Z</time>
            </trkpt>
            <trkpt lat="47.586034806" lon="6.897568032">
                <ele>385.000000</ele>
                <time>2012-07-14T10:43:42Z</time>
            </trkpt>
            <trkpt lat="47.586047798" lon="6.897589909">
                <ele>386.000000</ele>
                <time>2012-07-14T10:43:46Z</time>
            </trkpt>
            <trkpt lat="47.586049978" lon="6.897589658">
                <ele>388.000000</ele>
                <time>2012-07-14T10:43:50Z</time>
            </trkpt>
            <trkpt lat="47.586023072" lon="6.897604745">
                <ele>391.000000</ele>
                <time>2012-07-14T10:43:59Z</time>
            </trkpt>
            <trkpt lat="47.585947719" lon="6.897618994">
                <ele>393.000000</ele>
                <time>2012-07-14T10:44:05Z</time>
            </trkpt>
            <trkpt lat="47.585705146" lon="6.897595106">
                <ele>393.000000</ele>
                <time>2012-07-14T10:44:25Z</time>
            </trkpt>
            <trkpt lat="47.585637169" lon="6.897615893">
                <ele>393.000000</ele>
                <time>2012-07-14T10:44:33Z</time>
            </trkpt>
            <trkpt lat="47.585500879" lon="6.897642128">
                <ele>393.000000</ele>
                <time>2012-07-14T10:44:48Z</time>
            </trkpt>
            <trkpt lat="47.585469279" lon="6.897604410">
                <ele>393.000000</ele>
                <time>2012-07-14T10:44:52Z</time>
            </trkpt>
            <trkpt lat="47.585428711" lon="6.897622431">
                <ele>392.000000</ele>
                <time>2012-07-14T10:44:56Z</time>
            </trkpt>
            <trkpt lat="47.585410271" lon="6.897626789">
                <ele>392.000000</ele>
                <time>2012-07-14T10:44:58Z</time>
            </trkpt>
            <trkpt lat="47.585335253" lon="6.897637518">
                <ele>391.000000</ele>
                <time>2012-07-14T10:45:03Z</time>
            </trkpt>
            <trkpt lat="47.585036941" lon="6.897818986">
                <ele>391.000000</ele>
                <time>2012-07-14T10:45:16Z</time>
            </trkpt>
            <trkpt lat="47.584985057" lon="6.897836421">
                <ele>391.000000</ele>
                <time>2012-07-14T10:45:18Z</time>
            </trkpt>
            <trkpt lat="47.584897466" lon="6.897851257">
                <ele>391.000000</ele>
                <time>2012-07-14T10:45:28Z</time>
            </trkpt>
            <trkpt lat="47.584901322" lon="6.897842875">
                <ele>391.000000</ele>
                <time>2012-07-14T10:46:01Z</time>
            </trkpt>
            <trkpt lat="47.584890593" lon="6.897844886">
                <ele>390.000000</ele>
                <time>2012-07-14T10:46:35Z</time>
            </trkpt>
            <trkpt lat="47.584895706" lon="6.897846563">
                <ele>390.000000</ele>
                <time>2012-07-14T10:47:01Z</time>
            </trkpt>
            <trkpt lat="47.584893694" lon="6.897862488">
                <ele>390.000000</ele>
                <time>2012-07-14T10:47:08Z</time>
            </trkpt>
            <trkpt lat="47.584813060" lon="6.898084944">
                <ele>390.000000</ele>
                <time>2012-07-14T10:47:19Z</time>
            </trkpt>
            <trkpt lat="47.584710382" lon="6.898171445">
                <ele>390.000000</ele>
                <time>2012-07-14T10:47:23Z</time>
            </trkpt>
            <trkpt lat="47.584583564" lon="6.898259874">
                <ele>390.000000</ele>
                <time>2012-07-14T10:47:27Z</time>
            </trkpt>
            <trkpt lat="47.584454399" lon="6.897906996">
                <ele>390.000000</ele>
                <time>2012-07-14T10:47:36Z</time>
            </trkpt>
            <trkpt lat="47.584251137" lon="6.897084480">
                <ele>389.000000</ele>
                <time>2012-07-14T10:47:53Z</time>
            </trkpt>
            <trkpt lat="47.584284749" lon="6.896594139">
                <ele>389.000000</ele>
                <time>2012-07-14T10:48:04Z</time>
            </trkpt>
            <trkpt lat="47.584326407" lon="6.896412000">
                <ele>389.000000</ele>
                <time>2012-07-14T10:48:08Z</time>
            </trkpt>
            <trkpt lat="47.584061203" lon="6.896237740">
                <ele>390.000000</ele>
                <time>2012-07-14T10:48:17Z</time>
            </trkpt>
            <trkpt lat="47.583984928" lon="6.896389453">
                <ele>390.000000</ele>
                <time>2012-07-14T10:48:20Z</time>
            </trkpt>
            <trkpt lat="47.583945952" lon="6.896505039">
                <ele>390.000000</ele>
                <time>2012-07-14T10:48:22Z</time>
            </trkpt>
            <trkpt lat="47.583681168" lon="6.896796059">
                <ele>390.000000</ele>
                <time>2012-07-14T10:48:29Z</time>
            </trkpt>
            <trkpt lat="47.583430214" lon="6.896925308">
                <ele>390.000000</ele>
                <time>2012-07-14T10:48:35Z</time>
            </trkpt>
            <trkpt lat="47.582921348" lon="6.897066208">
                <ele>390.000000</ele>
                <time>2012-07-14T10:48:49Z</time>
            </trkpt>
            <trkpt lat="47.582550198" lon="6.897348510">
                <ele>391.000000</ele>
                <time>2012-07-14T10:49:01Z</time>
            </trkpt>
            <trkpt lat="47.581970673" lon="6.897707088">
                <ele>392.000000</ele>
                <time>2012-07-14T10:49:20Z</time>
            </trkpt>
            <trkpt lat="47.581537580" lon="6.898099864">
                <ele>394.000000</ele>
                <time>2012-07-14T10:49:38Z</time>
            </trkpt>
            <trkpt lat="47.581012538" lon="6.898632953">
                <ele>396.000000</ele>
                <time>2012-07-14T10:50:00Z</time>
            </trkpt>
            <trkpt lat="47.580605513" lon="6.899026483">
                <ele>398.000000</ele>
                <time>2012-07-14T10:50:17Z</time>
            </trkpt>
            <trkpt lat="47.580322037" lon="6.899197642">
                <ele>400.000000</ele>
                <time>2012-07-14T10:50:30Z</time>
            </trkpt>
            <trkpt lat="47.579970583" lon="6.899148943">
                <ele>401.000000</ele>
                <time>2012-07-14T10:50:44Z</time>
            </trkpt>
            <trkpt lat="47.579675456" lon="6.898849290">
                <ele>401.000000</ele>
                <time>2012-07-14T10:50:57Z</time>
            </trkpt>
            <trkpt lat="47.579656765" lon="6.898781145">
                <ele>401.000000</ele>
                <time>2012-07-14T10:51:10Z</time>
            </trkpt>
            <trkpt lat="47.579658693" lon="6.898786677">
                <ele>401.000000</ele>
                <time>2012-07-14T10:51:35Z</time>
            </trkpt>
            <trkpt lat="47.579660201" lon="6.898789862">
                <ele>401.000000</ele>
                <time>2012-07-14T10:52:02Z</time>
            </trkpt>
            <trkpt lat="47.579659531" lon="6.898786007">
                <ele>401.000000</ele>
                <time>2012-07-14T10:52:27Z</time>
            </trkpt>
            <trkpt lat="47.579506142" lon="6.898508314">
                <ele>401.000000</ele>
                <time>2012-07-14T10:52:37Z</time>
            </trkpt>
            <trkpt lat="47.579354513" lon="6.898185443">
                <ele>401.000000</ele>
                <time>2012-07-14T10:52:47Z</time>
            </trkpt>
            <trkpt lat="47.579313777" lon="6.898225928">
                <ele>401.000000</ele>
                <time>2012-07-14T10:52:52Z</time>
            </trkpt>
            <trkpt lat="47.579461718" lon="6.898510577">
                <ele>400.000000</ele>
                <time>2012-07-14T10:53:07Z</time>
            </trkpt>
            <trkpt lat="47.579504214" lon="6.898617530">
                <ele>400.000000</ele>
                <time>2012-07-14T10:53:19Z</time>
            </trkpt>
            <trkpt lat="47.579501029" lon="6.898619626">
                <ele>400.000000</ele>
                <time>2012-07-14T10:53:39Z</time>
            </trkpt>
            <trkpt lat="47.579560708" lon="6.898710569">
                <ele>400.000000</ele>
                <time>2012-07-14T10:53:43Z</time>
            </trkpt>
            <trkpt lat="47.579675289" lon="6.898939814">
                <ele>400.000000</ele>
                <time>2012-07-14T10:53:48Z</time>
            </trkpt>
            <trkpt lat="47.579739159" lon="6.899185320">
                <ele>400.000000</ele>
                <time>2012-07-14T10:53:52Z</time>
            </trkpt>
            <trkpt lat="47.579955496" lon="6.899570050">
                <ele>399.000000</ele>
                <time>2012-07-14T10:54:01Z</time>
            </trkpt>
            <trkpt lat="47.580015510" lon="6.899244916">
                <ele>399.000000</ele>
                <time>2012-07-14T10:54:07Z</time>
            </trkpt>
            <trkpt lat="47.580042416" lon="6.898905365">
                <ele>399.000000</ele>
                <time>2012-07-14T10:54:13Z</time>
            </trkpt>
            <trkpt lat="47.580358246" lon="6.897937171">
                <ele>399.000000</ele>
                <time>2012-07-14T10:54:24Z</time>
            </trkpt>
            <trkpt lat="47.580627389" lon="6.897397544">
                <ele>396.000000</ele>
                <time>2012-07-14T10:54:29Z</time>
            </trkpt>
            <trkpt lat="47.580690673" lon="6.897296291">
                <ele>394.000000</ele>
                <time>2012-07-14T10:54:30Z</time>
            </trkpt>
            <trkpt lat="47.580983536" lon="6.896975012">
                <ele>390.000000</ele>
                <time>2012-07-14T10:54:34Z</time>
            </trkpt>
            <trkpt lat="47.581058973" lon="6.896897061">
                <ele>390.000000</ele>
                <time>2012-07-14T10:54:35Z</time>
            </trkpt>
            <trkpt lat="47.582337717" lon="6.895493511">
                <ele>389.000000</ele>
                <time>2012-07-14T10:54:53Z</time>
            </trkpt>
            <trkpt lat="47.583031235" lon="6.894468656">
                <ele>388.000000</ele>
                <time>2012-07-14T10:55:07Z</time>
            </trkpt>
            <trkpt lat="47.583663985" lon="6.893142052">
                <ele>388.000000</ele>
                <time>2012-07-14T10:55:25Z</time>
            </trkpt>
            <trkpt lat="47.584100263" lon="6.891868170">
                <ele>388.000000</ele>
                <time>2012-07-14T10:55:42Z</time>
            </trkpt>
            <trkpt lat="47.584401006" lon="6.890687579">
                <ele>387.000000</ele>
                <time>2012-07-14T10:55:59Z</time>
            </trkpt>
            <trkpt lat="47.584586246" lon="6.889612181">
                <ele>387.000000</ele>
                <time>2012-07-14T10:56:16Z</time>
            </trkpt>
            <trkpt lat="47.584705688" lon="6.888445253">
                <ele>385.000000</ele>
                <time>2012-07-14T10:56:33Z</time>
            </trkpt>
            <trkpt lat="47.584730331" lon="6.887193248">
                <ele>383.000000</ele>
                <time>2012-07-14T10:56:51Z</time>
            </trkpt>
            <trkpt lat="47.584683644" lon="6.886190856">
                <ele>382.000000</ele>
                <time>2012-07-14T10:57:05Z</time>
            </trkpt>
            <trkpt lat="47.584542660" lon="6.884918734">
                <ele>379.000000</ele>
                <time>2012-07-14T10:57:22Z</time>
            </trkpt>
            <trkpt lat="47.584349206" lon="6.883883150">
                <ele>379.000000</ele>
                <time>2012-07-14T10:57:37Z</time>
            </trkpt>
            <trkpt lat="47.584290113" lon="6.883622725">
                <ele>378.000000</ele>
                <time>2012-07-14T10:57:41Z</time>
            </trkpt>
            <trkpt lat="47.584144268" lon="6.883017970">
                <ele>377.000000</ele>
                <time>2012-07-14T10:57:51Z</time>
            </trkpt>
            <trkpt lat="47.583903037" lon="6.881920276">
                <ele>375.000000</ele>
                <time>2012-07-14T10:58:08Z</time>
            </trkpt>
            <trkpt lat="47.583619393" lon="6.880681263">
                <ele>373.000000</ele>
                <time>2012-07-14T10:58:28Z</time>
            </trkpt>
            <trkpt lat="47.583481846" lon="6.880027475">
                <ele>372.000000</ele>
                <time>2012-07-14T10:58:38Z</time>
            </trkpt>
            <trkpt lat="47.583200801" lon="6.878720149">
                <ele>370.000000</ele>
                <time>2012-07-14T10:58:59Z</time>
            </trkpt>
            <trkpt lat="47.583050178" lon="6.877934346">
                <ele>367.000000</ele>
                <time>2012-07-14T10:59:11Z</time>
            </trkpt>
            <trkpt lat="47.583018243" lon="6.876677144">
                <ele>364.000000</ele>
                <time>2012-07-14T10:59:30Z</time>
            </trkpt>
            <trkpt lat="47.583112372" lon="6.875351211">
                <ele>363.000000</ele>
                <time>2012-07-14T10:59:47Z</time>
            </trkpt>
            <trkpt lat="47.583107511" lon="6.875147866">
                <ele>363.000000</ele>
                <time>2012-07-14T10:59:50Z</time>
            </trkpt>
            <trkpt lat="47.583250254" lon="6.874549566">
                <ele>362.000000</ele>
                <time>2012-07-14T11:00:03Z</time>
            </trkpt>
            <trkpt lat="47.583099548" lon="6.874224264">
                <ele>363.000000</ele>
                <time>2012-07-14T11:00:12Z</time>
            </trkpt>
            <trkpt lat="47.582934760" lon="6.874294588">
                <ele>363.000000</ele>
                <time>2012-07-14T11:00:17Z</time>
            </trkpt>
            <trkpt lat="47.582782209" lon="6.874525594">
                <ele>363.000000</ele>
                <time>2012-07-14T11:00:22Z</time>
            </trkpt>
            <trkpt lat="47.582437210" lon="6.874741428">
                <ele>363.000000</ele>
                <time>2012-07-14T11:00:30Z</time>
            </trkpt>
            <trkpt lat="47.582269069" lon="6.874840166">
                <ele>362.000000</ele>
                <time>2012-07-14T11:00:34Z</time>
            </trkpt>
            <trkpt lat="47.581814267" lon="6.874891212">
                <ele>362.000000</ele>
                <time>2012-07-14T11:00:45Z</time>
            </trkpt>
            <trkpt lat="47.581722736" lon="6.874865145">
                <ele>362.000000</ele>
                <time>2012-07-14T11:00:48Z</time>
            </trkpt>
            <trkpt lat="47.581806891" lon="6.875034207">
                <ele>362.000000</ele>
                <time>2012-07-14T11:00:55Z</time>
            </trkpt>
            <trkpt lat="47.581889117" lon="6.875009229">
                <ele>362.000000</ele>
                <time>2012-07-14T11:00:57Z</time>
            </trkpt>
            <trkpt lat="47.581977546" lon="6.874948796">
                <ele>362.000000</ele>
                <time>2012-07-14T11:00:59Z</time>
            </trkpt>
            <trkpt lat="47.582131606" lon="6.874874700">
                <ele>362.000000</ele>
                <time>2012-07-14T11:01:02Z</time>
            </trkpt>
            <trkpt lat="47.582369400" lon="6.874846704">
                <ele>362.000000</ele>
                <time>2012-07-14T11:01:06Z</time>
            </trkpt>
            <trkpt lat="47.582535781" lon="6.874773866">
                <ele>362.000000</ele>
                <time>2012-07-14T11:01:09Z</time>
            </trkpt>
            <trkpt lat="47.582751196" lon="6.874724412">
                <ele>362.000000</ele>
                <time>2012-07-14T11:01:13Z</time>
            </trkpt>
            <trkpt lat="47.582948003" lon="6.874771686">
                <ele>362.000000</ele>
                <time>2012-07-14T11:01:17Z</time>
            </trkpt>
            <trkpt lat="47.583214883" lon="6.874514362">
                <ele>362.000000</ele>
                <time>2012-07-14T11:01:25Z</time>
            </trkpt>
            <trkpt lat="47.583159227" lon="6.874332055">
                <ele>363.000000</ele>
                <time>2012-07-14T11:01:29Z</time>
            </trkpt>
            <trkpt lat="47.583083119" lon="6.874234742">
                <ele>363.000000</ele>
                <time>2012-07-14T11:01:32Z</time>
            </trkpt>
            <trkpt lat="47.583016818" lon="6.874183612">
                <ele>363.000000</ele>
                <time>2012-07-14T11:01:34Z</time>
            </trkpt>
            <trkpt lat="47.582892263" lon="6.874030810">
                <ele>363.000000</ele>
                <time>2012-07-14T11:01:38Z</time>
            </trkpt>
            <trkpt lat="47.582659582" lon="6.873411303">
                <ele>364.000000</ele>
                <time>2012-07-14T11:01:53Z</time>
            </trkpt>
            <trkpt lat="47.582489429" lon="6.872982234">
                <ele>364.000000</ele>
                <time>2012-07-14T11:02:05Z</time>
            </trkpt>
            <trkpt lat="47.582337046" lon="6.872522822">
                <ele>366.000000</ele>
                <time>2012-07-14T11:02:17Z</time>
            </trkpt>
            <trkpt lat="47.582226908" lon="6.871966682">
                <ele>368.000000</ele>
                <time>2012-07-14T11:02:30Z</time>
            </trkpt>
            <trkpt lat="47.582148956" lon="6.871028580">
                <ele>370.000000</ele>
                <time>2012-07-14T11:02:50Z</time>
            </trkpt>
            <trkpt lat="47.582191536" lon="6.870234227">
                <ele>371.000000</ele>
                <time>2012-07-14T11:03:06Z</time>
            </trkpt>
            <trkpt lat="47.582297819" lon="6.869277852">
                <ele>372.000000</ele>
                <time>2012-07-14T11:03:23Z</time>
            </trkpt>
            <trkpt lat="47.582477275" lon="6.868178900">
                <ele>372.000000</ele>
                <time>2012-07-14T11:03:40Z</time>
            </trkpt>
            <trkpt lat="47.582785226" lon="6.866754983">
                <ele>371.000000</ele>
                <time>2012-07-14T11:03:59Z</time>
            </trkpt>
            <trkpt lat="47.583145816" lon="6.865466433">
                <ele>367.000000</ele>
                <time>2012-07-14T11:04:13Z</time>
            </trkpt>
            <trkpt lat="47.583259642" lon="6.865076926">
                <ele>364.000000</ele>
                <time>2012-07-14T11:04:17Z</time>
            </trkpt>
            <trkpt lat="47.583342455" lon="6.864792863">
                <ele>362.000000</ele>
                <time>2012-07-14T11:04:20Z</time>
            </trkpt>
            <trkpt lat="47.583421832" lon="6.864537969">
                <ele>361.000000</ele>
                <time>2012-07-14T11:04:23Z</time>
            </trkpt>
            <trkpt lat="47.583883088" lon="6.863050768">
                <ele>360.000000</ele>
                <time>2012-07-14T11:04:42Z</time>
            </trkpt>
            <trkpt lat="47.584130270" lon="6.862231940">
                <ele>360.000000</ele>
                <time>2012-07-14T11:04:54Z</time>
            </trkpt>
            <trkpt lat="47.584360437" lon="6.861487627">
                <ele>359.000000</ele>
                <time>2012-07-14T11:05:06Z</time>
            </trkpt>
            <trkpt lat="47.584510390" lon="6.860866360">
                <ele>359.000000</ele>
                <time>2012-07-14T11:05:18Z</time>
            </trkpt>
            <trkpt lat="47.584503768" lon="6.860208884">
                <ele>359.000000</ele>
                <time>2012-07-14T11:05:30Z</time>
            </trkpt>
            <trkpt lat="47.584480634" lon="6.860154569">
                <ele>359.000000</ele>
                <time>2012-07-14T11:05:31Z</time>
            </trkpt>
            <trkpt lat="47.584276199" lon="6.859978130">
                <ele>359.000000</ele>
                <time>2012-07-14T11:05:36Z</time>
            </trkpt>
            <trkpt lat="47.584062461" lon="6.859733127">
                <ele>359.000000</ele>
                <time>2012-07-14T11:05:41Z</time>
            </trkpt>
            <trkpt lat="47.583909491" lon="6.859458871">
                <ele>359.000000</ele>
                <time>2012-07-14T11:05:45Z</time>
            </trkpt>
            <trkpt lat="47.583605228" lon="6.858807513">
                <ele>357.000000</ele>
                <time>2012-07-14T11:05:54Z</time>
            </trkpt>
            <trkpt lat="47.583557116" lon="6.858638870">
                <ele>356.000000</ele>
                <time>2012-07-14T11:05:56Z</time>
            </trkpt>
            <trkpt lat="47.583514620" lon="6.858375510">
                <ele>355.000000</ele>
                <time>2012-07-14T11:05:59Z</time>
            </trkpt>
            <trkpt lat="47.583529456" lon="6.858032355">
                <ele>355.000000</ele>
                <time>2012-07-14T11:06:03Z</time>
            </trkpt>
            <trkpt lat="47.583363410" lon="6.857820544">
                <ele>354.000000</ele>
                <time>2012-07-14T11:06:09Z</time>
            </trkpt>
            <trkpt lat="47.583230808" lon="6.857883493">
                <ele>354.000000</ele>
                <time>2012-07-14T11:06:12Z</time>
            </trkpt>
            <trkpt lat="47.583044311" lon="6.857893802">
                <ele>353.000000</ele>
                <time>2012-07-14T11:06:16Z</time>
            </trkpt>
            <trkpt lat="47.582853874" lon="6.857914925">
                <ele>353.000000</ele>
                <time>2012-07-14T11:06:20Z</time>
            </trkpt>
            <trkpt lat="47.582662432" lon="6.857988183">
                <ele>353.000000</ele>
                <time>2012-07-14T11:06:24Z</time>
            </trkpt>
            <trkpt lat="47.582437880" lon="6.858144170">
                <ele>353.000000</ele>
                <time>2012-07-14T11:06:29Z</time>
            </trkpt>
            <trkpt lat="47.581717121" lon="6.858979845">
                <ele>353.000000</ele>
                <time>2012-07-14T11:06:48Z</time>
            </trkpt>
            <trkpt lat="47.580997283" lon="6.859457614">
                <ele>352.000000</ele>
                <time>2012-07-14T11:07:04Z</time>
            </trkpt>
            <trkpt lat="47.580341483" lon="6.859556939">
                <ele>352.000000</ele>
                <time>2012-07-14T11:07:19Z</time>
            </trkpt>
            <trkpt lat="47.579559535" lon="6.859671017">
                <ele>352.000000</ele>
                <time>2012-07-14T11:07:35Z</time>
            </trkpt>
            <trkpt lat="47.578646410" lon="6.859800518">
                <ele>351.000000</ele>
                <time>2012-07-14T11:07:55Z</time>
            </trkpt>
            <trkpt lat="47.578301830" lon="6.859850977">
                <ele>351.000000</ele>
                <time>2012-07-14T11:08:03Z</time>
            </trkpt>
            <trkpt lat="47.578132348" lon="6.859860616">
                <ele>351.000000</ele>
                <time>2012-07-14T11:08:07Z</time>
            </trkpt>
            <trkpt lat="47.577938810" lon="6.859746454">
                <ele>351.000000</ele>
                <time>2012-07-14T11:08:12Z</time>
            </trkpt>
            <trkpt lat="47.577779973" lon="6.859786017">
                <ele>351.000000</ele>
                <time>2012-07-14T11:08:16Z</time>
            </trkpt>
            <trkpt lat="47.577702608" lon="6.859864555">
                <ele>351.000000</ele>
                <time>2012-07-14T11:08:18Z</time>
            </trkpt>
            <trkpt lat="47.577513847" lon="6.859955248">
                <ele>351.000000</ele>
                <time>2012-07-14T11:08:22Z</time>
            </trkpt>
            <trkpt lat="47.576504666" lon="6.860075193">
                <ele>350.000000</ele>
                <time>2012-07-14T11:08:42Z</time>
            </trkpt>
            <trkpt lat="47.575941822" lon="6.860145684">
                <ele>349.000000</ele>
                <time>2012-07-14T11:08:53Z</time>
            </trkpt>
            <trkpt lat="47.575850710" lon="6.860159179">
                <ele>349.000000</ele>
                <time>2012-07-14T11:08:55Z</time>
            </trkpt>
            <trkpt lat="47.575753816" lon="6.860183571">
                <ele>349.000000</ele>
                <time>2012-07-14T11:08:57Z</time>
            </trkpt>
            <trkpt lat="47.574884361" lon="6.860301588">
                <ele>349.000000</ele>
                <time>2012-07-14T11:09:15Z</time>
            </trkpt>
            <trkpt lat="47.574051032" lon="6.860416504">
                <ele>348.000000</ele>
                <time>2012-07-14T11:09:32Z</time>
            </trkpt>
            <trkpt lat="47.573814327" lon="6.860448103">
                <ele>348.000000</ele>
                <time>2012-07-14T11:09:37Z</time>
            </trkpt>
            <trkpt lat="47.573704273" lon="6.860199245">
                <ele>348.000000</ele>
                <time>2012-07-14T11:09:43Z</time>
            </trkpt>
            <trkpt lat="47.573770909" lon="6.860007886">
                <ele>348.000000</ele>
                <time>2012-07-14T11:09:47Z</time>
            </trkpt>
            <trkpt lat="47.573835785" lon="6.859370191">
                <ele>351.000000</ele>
                <time>2012-07-14T11:10:04Z</time>
            </trkpt>
            <trkpt lat="47.573835952" lon="6.859288300">
                <ele>351.000000</ele>
                <time>2012-07-14T11:10:08Z</time>
            </trkpt>
            <trkpt lat="47.573825391" lon="6.859238762">
                <ele>352.000000</ele>
                <time>2012-07-14T11:10:22Z</time>
            </trkpt>
            <trkpt lat="47.573828744" lon="6.859229542">
                <ele>352.000000</ele>
                <time>2012-07-14T11:11:04Z</time>
            </trkpt>
            <trkpt lat="47.573823044" lon="6.859218646">
                <ele>352.000000</ele>
                <time>2012-07-14T11:11:35Z</time>
            </trkpt>
            <trkpt lat="47.573812315" lon="6.859225435">
                <ele>352.000000</ele>
                <time>2012-07-14T11:12:09Z</time>
            </trkpt>
            <trkpt lat="47.573806615" lon="6.859230967">
                <ele>352.000000</ele>
                <time>2012-07-14T11:12:44Z</time>
            </trkpt>
            <trkpt lat="47.573806783" lon="6.859223759">
                <ele>352.000000</ele>
                <time>2012-07-14T11:13:08Z</time>
            </trkpt>
            <trkpt lat="47.573815752" lon="6.859218562">
                <ele>352.000000</ele>
                <time>2012-07-14T11:13:30Z</time>
            </trkpt>
            <trkpt lat="47.573820362" lon="6.859221160">
                <ele>352.000000</ele>
                <time>2012-07-14T11:13:45Z</time>
            </trkpt>
            <trkpt lat="47.573716594" lon="6.859086799">
                <ele>352.000000</ele>
                <time>2012-07-14T11:13:55Z</time>
            </trkpt>
            <trkpt lat="47.573675942" lon="6.859090654">
                <ele>352.000000</ele>
                <time>2012-07-14T11:13:56Z</time>
            </trkpt>
            <trkpt lat="47.572895167" lon="6.859110603">
                <ele>349.000000</ele>
                <time>2012-07-14T11:14:11Z</time>
            </trkpt>
            <trkpt lat="47.572255880" lon="6.859115716">
                <ele>349.000000</ele>
                <time>2012-07-14T11:14:24Z</time>
            </trkpt>
            <trkpt lat="47.571575018" lon="6.859104233">
                <ele>349.000000</ele>
                <time>2012-07-14T11:14:39Z</time>
            </trkpt>
            <trkpt lat="47.570920559" lon="6.859094678">
                <ele>348.000000</ele>
                <time>2012-07-14T11:14:55Z</time>
            </trkpt>
            <trkpt lat="47.570399623" lon="6.859155446">
                <ele>348.000000</ele>
                <time>2012-07-14T11:15:08Z</time>
            </trkpt>
            <trkpt lat="47.569831330" lon="6.859332975">
                <ele>348.000000</ele>
                <time>2012-07-14T11:15:24Z</time>
            </trkpt>
            <trkpt lat="47.569401339" lon="6.859527351">
                <ele>348.000000</ele>
                <time>2012-07-14T11:15:36Z</time>
            </trkpt>
            <trkpt lat="47.568762973" lon="6.859828513">
                <ele>348.000000</ele>
                <time>2012-07-14T11:15:52Z</time>
            </trkpt>
            <trkpt lat="47.568108095" lon="6.860133950">
                <ele>347.000000</ele>
                <time>2012-07-14T11:16:08Z</time>
            </trkpt>
            <trkpt lat="47.567940624" lon="6.860217433">
                <ele>347.000000</ele>
                <time>2012-07-14T11:16:12Z</time>
            </trkpt>
            <trkpt lat="47.567225145" lon="6.860558996">
                <ele>347.000000</ele>
                <time>2012-07-14T11:16:29Z</time>
            </trkpt>
            <trkpt lat="47.567128586" lon="6.860579196">
                <ele>347.000000</ele>
                <time>2012-07-14T11:16:32Z</time>
            </trkpt>
            <trkpt lat="47.567072846" lon="6.860558912">
                <ele>347.000000</ele>
                <time>2012-07-14T11:16:35Z</time>
            </trkpt>
            <trkpt lat="47.566824909" lon="6.860624626">
                <ele>347.000000</ele>
                <time>2012-07-14T11:16:43Z</time>
            </trkpt>
            <trkpt lat="47.566379998" lon="6.860808609">
                <ele>343.000000</ele>
                <time>2012-07-14T11:16:51Z</time>
            </trkpt>
            <trkpt lat="47.566235829" lon="6.860880023">
                <ele>341.000000</ele>
                <time>2012-07-14T11:16:54Z</time>
            </trkpt>
            <trkpt lat="47.566060983" lon="6.860974738">
                <ele>341.000000</ele>
                <time>2012-07-14T11:16:58Z</time>
            </trkpt>
            <trkpt lat="47.565979175" lon="6.861022683">
                <ele>341.000000</ele>
                <time>2012-07-14T11:17:00Z</time>
            </trkpt>
            <trkpt lat="47.565865349" lon="6.860909946">
                <ele>341.000000</ele>
                <time>2012-07-14T11:17:04Z</time>
            </trkpt>
            <trkpt lat="47.565777004" lon="6.860701404">
                <ele>341.000000</ele>
                <time>2012-07-14T11:17:09Z</time>
            </trkpt>
            <trkpt lat="47.565039145" lon="6.861031651">
                <ele>342.000000</ele>
                <time>2012-07-14T11:17:28Z</time>
            </trkpt>
            <trkpt lat="47.564836303" lon="6.861268692">
                <ele>342.000000</ele>
                <time>2012-07-14T11:17:37Z</time>
            </trkpt>
            <trkpt lat="47.564849546" lon="6.861249329">
                <ele>342.000000</ele>
                <time>2012-07-14T11:18:14Z</time>
            </trkpt>
            <trkpt lat="47.564865388" lon="6.861258801">
                <ele>342.000000</ele>
                <time>2012-07-14T11:18:58Z</time>
            </trkpt>
            <trkpt lat="47.564863125" lon="6.861250838">
                <ele>342.000000</ele>
                <time>2012-07-14T11:19:04Z</time>
            </trkpt>
            <trkpt lat="47.564856755" lon="6.861362821">
                <ele>342.000000</ele>
                <time>2012-07-14T11:19:09Z</time>
            </trkpt>
            <trkpt lat="47.564851977" lon="6.861459045">
                <ele>342.000000</ele>
                <time>2012-07-14T11:19:11Z</time>
            </trkpt>
            <trkpt lat="47.564673275" lon="6.861768086">
                <ele>342.000000</ele>
                <time>2012-07-14T11:19:17Z</time>
            </trkpt>
            <trkpt lat="47.563815219" lon="6.862192461">
                <ele>342.000000</ele>
                <time>2012-07-14T11:19:34Z</time>
            </trkpt>
            <trkpt lat="47.562929168" lon="6.862620525">
                <ele>342.000000</ele>
                <time>2012-07-14T11:19:52Z</time>
            </trkpt>
            <trkpt lat="47.562120147" lon="6.863002069">
                <ele>342.000000</ele>
                <time>2012-07-14T11:20:09Z</time>
            </trkpt>
            <trkpt lat="47.561376085" lon="6.863353187">
                <ele>342.000000</ele>
                <time>2012-07-14T11:20:24Z</time>
            </trkpt>
            <trkpt lat="47.561058495" lon="6.863507163">
                <ele>342.000000</ele>
                <time>2012-07-14T11:20:31Z</time>
            </trkpt>
            <trkpt lat="47.560348213" lon="6.863850402">
                <ele>342.000000</ele>
                <time>2012-07-14T11:20:47Z</time>
            </trkpt>
            <trkpt lat="47.559563918" lon="6.864224737">
                <ele>342.000000</ele>
                <time>2012-07-14T11:21:04Z</time>
            </trkpt>
            <trkpt lat="47.559475740" lon="6.864264216">
                <ele>342.000000</ele>
                <time>2012-07-14T11:21:06Z</time>
            </trkpt>
            <trkpt lat="47.558680465" lon="6.864555571">
                <ele>342.000000</ele>
                <time>2012-07-14T11:21:23Z</time>
            </trkpt>
            <trkpt lat="47.558542164" lon="6.864638887">
                <ele>342.000000</ele>
                <time>2012-07-14T11:21:26Z</time>
            </trkpt>
            <trkpt lat="47.558341585" lon="6.864663949">
                <ele>342.000000</ele>
                <time>2012-07-14T11:21:30Z</time>
            </trkpt>
            <trkpt lat="47.558185598" lon="6.864665290">
                <ele>342.000000</ele>
                <time>2012-07-14T11:21:33Z</time>
            </trkpt>
            <trkpt lat="47.557337266" lon="6.864863690">
                <ele>342.000000</ele>
                <time>2012-07-14T11:21:49Z</time>
            </trkpt>
            <trkpt lat="47.556383153" lon="6.865058988">
                <ele>342.000000</ele>
                <time>2012-07-14T11:22:07Z</time>
            </trkpt>
            <trkpt lat="47.555465167" lon="6.865219083">
                <ele>342.000000</ele>
                <time>2012-07-14T11:22:24Z</time>
            </trkpt>
            <trkpt lat="47.554602250" lon="6.865397701">
                <ele>342.000000</ele>
                <time>2012-07-14T11:22:41Z</time>
            </trkpt>
            <trkpt lat="47.554364456" lon="6.865451261">
                <ele>342.000000</ele>
                <time>2012-07-14T11:22:46Z</time>
            </trkpt>
            <trkpt lat="47.553496007" lon="6.865634490">
                <ele>341.000000</ele>
                <time>2012-07-14T11:23:04Z</time>
            </trkpt>
            <trkpt lat="47.553348821" lon="6.865657708">
                <ele>341.000000</ele>
                <time>2012-07-14T11:23:07Z</time>
            </trkpt>
            <trkpt lat="47.552574836" lon="6.865814030">
                <ele>341.000000</ele>
                <time>2012-07-14T11:23:23Z</time>
            </trkpt>
            <trkpt lat="47.552084830" lon="6.865919642">
                <ele>341.000000</ele>
                <time>2012-07-14T11:23:33Z</time>
            </trkpt>
            <trkpt lat="47.551233480" lon="6.866099266">
                <ele>341.000000</ele>
                <time>2012-07-14T11:23:50Z</time>
            </trkpt>
            <trkpt lat="47.550528813" lon="6.866240418">
                <ele>341.000000</ele>
                <time>2012-07-14T11:24:04Z</time>
            </trkpt>
            <trkpt lat="47.549680732" lon="6.866339995">
                <ele>341.000000</ele>
                <time>2012-07-14T11:24:20Z</time>
            </trkpt>
            <trkpt lat="47.549041193" lon="6.866300516">
                <ele>341.000000</ele>
                <time>2012-07-14T11:24:33Z</time>
            </trkpt>
            <trkpt lat="47.548209960" lon="6.866220133">
                <ele>340.000000</ele>
                <time>2012-07-14T11:24:46Z</time>
            </trkpt>
            <trkpt lat="47.547324412" lon="6.865967838">
                <ele>339.000000</ele>
                <time>2012-07-14T11:25:01Z</time>
            </trkpt>
            <trkpt lat="47.546548583" lon="6.865701545">
                <ele>338.000000</ele>
                <time>2012-07-14T11:25:16Z</time>
            </trkpt>
            <trkpt lat="47.545896638" lon="6.865475317">
                <ele>338.000000</ele>
                <time>2012-07-14T11:25:30Z</time>
            </trkpt>
            <trkpt lat="47.545207143" lon="6.865274152">
                <ele>338.000000</ele>
                <time>2012-07-14T11:25:45Z</time>
            </trkpt>
            <trkpt lat="47.545118127" lon="6.865235176">
                <ele>338.000000</ele>
                <time>2012-07-14T11:25:47Z</time>
            </trkpt>
            <trkpt lat="47.544998098" lon="6.865136186">
                <ele>338.000000</ele>
                <time>2012-07-14T11:25:50Z</time>
            </trkpt>
            <trkpt lat="47.544411868" lon="6.864925465">
                <ele>338.000000</ele>
                <time>2012-07-14T11:26:03Z</time>
            </trkpt>
            <trkpt lat="47.543800659" lon="6.864728238">
                <ele>338.000000</ele>
                <time>2012-07-14T11:26:16Z</time>
            </trkpt>
            <trkpt lat="47.543159360" lon="6.864501927">
                <ele>338.000000</ele>
                <time>2012-07-14T11:26:29Z</time>
            </trkpt>
            <trkpt lat="47.542400211" lon="6.864240076">
                <ele>338.000000</ele>
                <time>2012-07-14T11:26:44Z</time>
            </trkpt>
            <trkpt lat="47.541856729" lon="6.864047293">
                <ele>338.000000</ele>
                <time>2012-07-14T11:26:55Z</time>
            </trkpt>
            <trkpt lat="47.541171424" lon="6.863803715">
                <ele>338.000000</ele>
                <time>2012-07-14T11:27:09Z</time>
            </trkpt>
            <trkpt lat="47.540968917" lon="6.863732384">
                <ele>338.000000</ele>
                <time>2012-07-14T11:27:13Z</time>
            </trkpt>
            <trkpt lat="47.540168278" lon="6.863452597">
                <ele>338.000000</ele>
                <time>2012-07-14T11:27:29Z</time>
            </trkpt>
            <trkpt lat="47.539403765" lon="6.863190411">
                <ele>338.000000</ele>
                <time>2012-07-14T11:27:44Z</time>
            </trkpt>
            <trkpt lat="47.538999505" lon="6.863085553">
                <ele>338.000000</ele>
                <time>2012-07-14T11:27:52Z</time>
            </trkpt>
            <trkpt lat="47.538216887" lon="6.862759162">
                <ele>337.000000</ele>
                <time>2012-07-14T11:28:06Z</time>
            </trkpt>
            <trkpt lat="47.537255064" lon="6.862429501">
                <ele>335.000000</ele>
                <time>2012-07-14T11:28:22Z</time>
            </trkpt>
            <trkpt lat="47.536525335" lon="6.862189444">
                <ele>335.000000</ele>
                <time>2012-07-14T11:28:35Z</time>
            </trkpt>
            <trkpt lat="47.535880599" lon="6.861956343">
                <ele>335.000000</ele>
                <time>2012-07-14T11:28:47Z</time>
            </trkpt>
            <trkpt lat="47.535056574" lon="6.861674795">
                <ele>335.000000</ele>
                <time>2012-07-14T11:29:03Z</time>
            </trkpt>
            <trkpt lat="47.534223832" lon="6.861378746">
                <ele>334.000000</ele>
                <time>2012-07-14T11:29:18Z</time>
            </trkpt>
            <trkpt lat="47.533314731" lon="6.861059312">
                <ele>334.000000</ele>
                <time>2012-07-14T11:29:33Z</time>
            </trkpt>
            <trkpt lat="47.532451479" lon="6.860755887">
                <ele>334.000000</ele>
                <time>2012-07-14T11:29:48Z</time>
            </trkpt>
            <trkpt lat="47.531956863" lon="6.860584142">
                <ele>334.000000</ele>
                <time>2012-07-14T11:29:57Z</time>
            </trkpt>
            <trkpt lat="47.531207520" lon="6.860320531">
                <ele>334.000000</ele>
                <time>2012-07-14T11:30:11Z</time>
            </trkpt>
            <trkpt lat="47.530268328" lon="6.859994475">
                <ele>334.000000</ele>
                <time>2012-07-14T11:30:28Z</time>
            </trkpt>
            <trkpt lat="47.529836157" lon="6.859837398">
                <ele>334.000000</ele>
                <time>2012-07-14T11:30:36Z</time>
            </trkpt>
            <trkpt lat="47.529680086" lon="6.859822478">
                <ele>334.000000</ele>
                <time>2012-07-14T11:30:39Z</time>
            </trkpt>
            <trkpt lat="47.529312959" lon="6.859660037">
                <ele>334.000000</ele>
                <time>2012-07-14T11:30:47Z</time>
            </trkpt>
            <trkpt lat="47.529168874" lon="6.859633969">
                <ele>334.000000</ele>
                <time>2012-07-14T11:30:50Z</time>
            </trkpt>
            <trkpt lat="47.528470578" lon="6.859698929">
                <ele>334.000000</ele>
                <time>2012-07-14T11:31:04Z</time>
            </trkpt>
            <trkpt lat="47.527895328" lon="6.859942004">
                <ele>333.000000</ele>
                <time>2012-07-14T11:31:15Z</time>
            </trkpt>
            <trkpt lat="47.527585449" lon="6.860148870">
                <ele>333.000000</ele>
                <time>2012-07-14T11:31:21Z</time>
            </trkpt>
            <trkpt lat="47.526961500" lon="6.860643066">
                <ele>333.000000</ele>
                <time>2012-07-14T11:31:34Z</time>
            </trkpt>
            <trkpt lat="47.526401505" lon="6.861084877">
                <ele>333.000000</ele>
                <time>2012-07-14T11:31:45Z</time>
            </trkpt>
            <trkpt lat="47.526152646" lon="6.861280426">
                <ele>333.000000</ele>
                <time>2012-07-14T11:31:50Z</time>
            </trkpt>
            <trkpt lat="47.525713770" lon="6.861641603">
                <ele>333.000000</ele>
                <time>2012-07-14T11:31:59Z</time>
            </trkpt>
            <trkpt lat="47.525077416" lon="6.862402009">
                <ele>333.000000</ele>
                <time>2012-07-14T11:32:14Z</time>
            </trkpt>
            <trkpt lat="47.524598641" lon="6.863289233">
                <ele>333.000000</ele>
                <time>2012-07-14T11:32:28Z</time>
            </trkpt>
            <trkpt lat="47.524479702" lon="6.863564747">
                <ele>333.000000</ele>
                <time>2012-07-14T11:32:32Z</time>
            </trkpt>
            <trkpt lat="47.524209386" lon="6.864445601">
                <ele>333.000000</ele>
                <time>2012-07-14T11:32:46Z</time>
            </trkpt>
            <trkpt lat="47.524168817" lon="6.864628829">
                <ele>333.000000</ele>
                <time>2012-07-14T11:32:56Z</time>
            </trkpt>
            <trkpt lat="47.524176864" lon="6.864651125">
                <ele>333.000000</ele>
                <time>2012-07-14T11:33:29Z</time>
            </trkpt>
            <trkpt lat="47.524175188" lon="6.864682808">
                <ele>333.000000</ele>
                <time>2012-07-14T11:34:02Z</time>
            </trkpt>
            <trkpt lat="47.524172925" lon="6.864719018">
                <ele>333.000000</ele>
                <time>2012-07-14T11:34:26Z</time>
            </trkpt>
            <trkpt lat="47.524162196" lon="6.864751792">
                <ele>333.000000</ele>
                <time>2012-07-14T11:34:28Z</time>
            </trkpt>
            <trkpt lat="47.524151299" lon="6.864811974">
                <ele>333.000000</ele>
                <time>2012-07-14T11:34:31Z</time>
            </trkpt>
            <trkpt lat="47.524077706" lon="6.865261998">
                <ele>333.000000</ele>
                <time>2012-07-14T11:34:46Z</time>
            </trkpt>
            <trkpt lat="47.523992043" lon="6.865872284">
                <ele>333.000000</ele>
                <time>2012-07-14T11:34:59Z</time>
            </trkpt>
            <trkpt lat="47.523967819" lon="6.866382072">
                <ele>333.000000</ele>
                <time>2012-07-14T11:35:10Z</time>
            </trkpt>
            <trkpt lat="47.523950720" lon="6.866507716">
                <ele>333.000000</ele>
                <time>2012-07-14T11:35:12Z</time>
            </trkpt>
            <trkpt lat="47.523911325" lon="6.866635792">
                <ele>333.000000</ele>
                <time>2012-07-14T11:35:14Z</time>
            </trkpt>
            <trkpt lat="47.523844773" lon="6.867108699">
                <ele>334.000000</ele>
                <time>2012-07-14T11:35:21Z</time>
            </trkpt>
            <trkpt lat="47.523825830" lon="6.867236355">
                <ele>334.000000</ele>
                <time>2012-07-14T11:35:23Z</time>
            </trkpt>
            <trkpt lat="47.523693144" lon="6.868321728">
                <ele>334.000000</ele>
                <time>2012-07-14T11:35:38Z</time>
            </trkpt>
            <trkpt lat="47.523641344" lon="6.868702853">
                <ele>334.000000</ele>
                <time>2012-07-14T11:35:43Z</time>
            </trkpt>
            <trkpt lat="47.523504635" lon="6.869728966">
                <ele>334.000000</ele>
                <time>2012-07-14T11:35:56Z</time>
            </trkpt>
            <trkpt lat="47.523488877" lon="6.869886294">
                <ele>334.000000</ele>
                <time>2012-07-14T11:35:58Z</time>
            </trkpt>
            <trkpt lat="47.523421906" lon="6.870416785">
                <ele>334.000000</ele>
                <time>2012-07-14T11:36:05Z</time>
            </trkpt>
            <trkpt lat="47.523286706" lon="6.871522190">
                <ele>334.000000</ele>
                <time>2012-07-14T11:36:19Z</time>
            </trkpt>
            <trkpt lat="47.523135748" lon="6.872704625">
                <ele>334.000000</ele>
                <time>2012-07-14T11:36:34Z</time>
            </trkpt>
            <trkpt lat="47.523107836" lon="6.872947114">
                <ele>334.000000</ele>
                <time>2012-07-14T11:36:37Z</time>
            </trkpt>
            <trkpt lat="47.522998787" lon="6.873843893">
                <ele>334.000000</ele>
                <time>2012-07-14T11:36:48Z</time>
            </trkpt>
            <trkpt lat="47.522953190" lon="6.875000764">
                <ele>334.000000</ele>
                <time>2012-07-14T11:37:02Z</time>
            </trkpt>
            <trkpt lat="47.523027118" lon="6.875639213">
                <ele>334.000000</ele>
                <time>2012-07-14T11:37:10Z</time>
            </trkpt>
            <trkpt lat="47.523242869" lon="6.876711342">
                <ele>334.000000</ele>
                <time>2012-07-14T11:37:24Z</time>
            </trkpt>
            <trkpt lat="47.523256196" lon="6.876786444">
                <ele>334.000000</ele>
                <time>2012-07-14T11:37:25Z</time>
            </trkpt>
            <trkpt lat="47.523279078" lon="6.876995741">
                <ele>334.000000</ele>
                <time>2012-07-14T11:37:28Z</time>
            </trkpt>
            <trkpt lat="47.523431377" lon="6.878022440">
                <ele>334.000000</ele>
                <time>2012-07-14T11:37:41Z</time>
            </trkpt>
            <trkpt lat="47.523521651" lon="6.878326116">
                <ele>334.000000</ele>
                <time>2012-07-14T11:37:45Z</time>
            </trkpt>
            <trkpt lat="47.523584180" lon="6.878457628">
                <ele>334.000000</ele>
                <time>2012-07-14T11:37:47Z</time>
            </trkpt>
            <trkpt lat="47.523594405" lon="6.878798604">
                <ele>334.000000</ele>
                <time>2012-07-14T11:37:52Z</time>
            </trkpt>
            <trkpt lat="47.523345463" lon="6.879618270">
                <ele>334.000000</ele>
                <time>2012-07-14T11:38:03Z</time>
            </trkpt>
            <trkpt lat="47.523291064" lon="6.879830416">
                <ele>334.000000</ele>
                <time>2012-07-14T11:38:06Z</time>
            </trkpt>
            <trkpt lat="47.523253597" lon="6.880061757">
                <ele>334.000000</ele>
                <time>2012-07-14T11:38:09Z</time>
            </trkpt>
            <trkpt lat="47.523177154" lon="6.880376497">
                <ele>334.000000</ele>
                <time>2012-07-14T11:38:14Z</time>
            </trkpt>
            <trkpt lat="47.522613220" lon="6.880962225">
                <ele>334.000000</ele>
                <time>2012-07-14T11:38:30Z</time>
            </trkpt>
            <trkpt lat="47.522297809" lon="6.881199600">
                <ele>335.000000</ele>
                <time>2012-07-14T11:38:41Z</time>
            </trkpt>
            <trkpt lat="47.521919701" lon="6.881664628">
                <ele>335.000000</ele>
                <time>2012-07-14T11:38:50Z</time>
            </trkpt>
            <trkpt lat="47.521696994" lon="6.881870655">
                <ele>335.000000</ele>
                <time>2012-07-14T11:38:55Z</time>
            </trkpt>
            <trkpt lat="47.521565147" lon="6.881958414">
                <ele>334.000000</ele>
                <time>2012-07-14T11:38:58Z</time>
            </trkpt>
            <trkpt lat="47.521021748" lon="6.882105684">
                <ele>334.000000</ele>
                <time>2012-07-14T11:39:09Z</time>
            </trkpt>
            <trkpt lat="47.520596115" lon="6.881956318">
                <ele>334.000000</ele>
                <time>2012-07-14T11:39:17Z</time>
            </trkpt>
            <trkpt lat="47.520451527" lon="6.881843414">
                <ele>334.000000</ele>
                <time>2012-07-14T11:39:20Z</time>
            </trkpt>
            <trkpt lat="47.520359913" lon="6.881748782">
                <ele>334.000000</ele>
                <time>2012-07-14T11:39:22Z</time>
            </trkpt>
            <trkpt lat="47.520103008" lon="6.881396994">
                <ele>334.000000</ele>
                <time>2012-07-14T11:39:28Z</time>
            </trkpt>
            <trkpt lat="47.519783238" lon="6.880483031">
                <ele>333.000000</ele>
                <time>2012-07-14T11:39:41Z</time>
            </trkpt>
            <trkpt lat="47.519515352" lon="6.879609134">
                <ele>333.000000</ele>
                <time>2012-07-14T11:39:52Z</time>
            </trkpt>
            <trkpt lat="47.519120900" lon="6.878342461">
                <ele>331.000000</ele>
                <time>2012-07-14T11:40:09Z</time>
            </trkpt>
            <trkpt lat="47.518777745" lon="6.877262872">
                <ele>330.000000</ele>
                <time>2012-07-14T11:40:26Z</time>
            </trkpt>
            <trkpt lat="47.518513715" lon="6.876407498">
                <ele>330.000000</ele>
                <time>2012-07-14T11:40:40Z</time>
            </trkpt>
            <trkpt lat="47.518102666" lon="6.875110567">
                <ele>329.000000</ele>
                <time>2012-07-14T11:41:01Z</time>
            </trkpt>
            <trkpt lat="47.517777365" lon="6.874030056">
                <ele>328.000000</ele>
                <time>2012-07-14T11:41:19Z</time>
            </trkpt>
            <trkpt lat="47.517435383" lon="6.872925488">
                <ele>328.000000</ele>
                <time>2012-07-14T11:41:37Z</time>
            </trkpt>
            <trkpt lat="47.517113769" lon="6.871866686">
                <ele>329.000000</ele>
                <time>2012-07-14T11:41:54Z</time>
            </trkpt>
            <trkpt lat="47.517009834" lon="6.871549850">
                <ele>329.000000</ele>
                <time>2012-07-14T11:41:59Z</time>
            </trkpt>
            <trkpt lat="47.516968343" lon="6.871427475">
                <ele>329.000000</ele>
                <time>2012-07-14T11:42:01Z</time>
            </trkpt>
            <trkpt lat="47.516559223" lon="6.870185277">
                <ele>329.000000</ele>
                <time>2012-07-14T11:42:20Z</time>
            </trkpt>
            <trkpt lat="47.516476326" lon="6.869920911">
                <ele>329.000000</ele>
                <time>2012-07-14T11:42:24Z</time>
            </trkpt>
            <trkpt lat="47.516032923" lon="6.868502693">
                <ele>329.000000</ele>
                <time>2012-07-14T11:42:45Z</time>
            </trkpt>
            <trkpt lat="47.515967712" lon="6.868311334">
                <ele>329.000000</ele>
                <time>2012-07-14T11:42:48Z</time>
            </trkpt>
            <trkpt lat="47.515739556" lon="6.867547743">
                <ele>329.000000</ele>
                <time>2012-07-14T11:42:59Z</time>
            </trkpt>
            <trkpt lat="47.515655151" lon="6.867276756">
                <ele>329.000000</ele>
                <time>2012-07-14T11:43:03Z</time>
            </trkpt>
            <trkpt lat="47.515260279" lon="6.865977561">
                <ele>329.000000</ele>
                <time>2012-07-14T11:43:22Z</time>
            </trkpt>
            <trkpt lat="47.514942102" lon="6.864953376">
                <ele>329.000000</ele>
                <time>2012-07-14T11:43:38Z</time>
            </trkpt>
            <trkpt lat="47.514839927" lon="6.864639390">
                <ele>328.000000</ele>
                <time>2012-07-14T11:43:43Z</time>
            </trkpt>
            <trkpt lat="47.514713360" lon="6.864206381">
                <ele>327.000000</ele>
                <time>2012-07-14T11:43:50Z</time>
            </trkpt>
            <trkpt lat="47.514376575" lon="6.863108939">
                <ele>327.000000</ele>
                <time>2012-07-14T11:44:08Z</time>
            </trkpt>
            <trkpt lat="47.514191922" lon="6.862509884">
                <ele>327.000000</ele>
                <time>2012-07-14T11:44:18Z</time>
            </trkpt>
            <trkpt lat="47.513874834" lon="6.861502044">
                <ele>327.000000</ele>
                <time>2012-07-14T11:44:34Z</time>
            </trkpt>
            <trkpt lat="47.513528075" lon="6.860378617">
                <ele>327.000000</ele>
                <time>2012-07-14T11:44:51Z</time>
            </trkpt>
            <trkpt lat="47.513272176" lon="6.859550066">
                <ele>328.000000</ele>
                <time>2012-07-14T11:45:05Z</time>
            </trkpt>
            <trkpt lat="47.513119457" lon="6.859096354">
                <ele>328.000000</ele>
                <time>2012-07-14T11:45:13Z</time>
            </trkpt>
            <trkpt lat="47.512989873" lon="6.858547926">
                <ele>328.000000</ele>
                <time>2012-07-14T11:45:23Z</time>
            </trkpt>
            <trkpt lat="47.512886189" lon="6.858521691">
                <ele>328.000000</ele>
                <time>2012-07-14T11:45:27Z</time>
            </trkpt>
            <trkpt lat="47.512520738" lon="6.858777422">
                <ele>329.000000</ele>
                <time>2012-07-14T11:45:39Z</time>
            </trkpt>
            <trkpt lat="47.512590559" lon="6.858635349">
                <ele>329.000000</ele>
                <time>2012-07-14T11:45:45Z</time>
            </trkpt>
            <trkpt lat="47.512657531" lon="6.858539796">
                <ele>327.000000</ele>
                <time>2012-07-14T11:45:47Z</time>
            </trkpt>
            <trkpt lat="47.512655267" lon="6.858347766">
                <ele>327.000000</ele>
                <time>2012-07-14T11:45:50Z</time>
            </trkpt>
            <trkpt lat="47.512354106" lon="6.857396085">
                <ele>326.000000</ele>
                <time>2012-07-14T11:46:08Z</time>
            </trkpt>
            <trkpt lat="47.512140451" lon="6.856721174">
                <ele>326.000000</ele>
                <time>2012-07-14T11:46:21Z</time>
            </trkpt>
            <trkpt lat="47.511788243" lon="6.855571093">
                <ele>326.000000</ele>
                <time>2012-07-14T11:46:39Z</time>
            </trkpt>
            <trkpt lat="47.511385996" lon="6.854264103">
                <ele>326.000000</ele>
                <time>2012-07-14T11:46:58Z</time>
            </trkpt>
            <trkpt lat="47.511047367" lon="6.853189710">
                <ele>326.000000</ele>
                <time>2012-07-14T11:47:13Z</time>
            </trkpt>
            <trkpt lat="47.510664733" lon="6.851934269">
                <ele>326.000000</ele>
                <time>2012-07-14T11:47:31Z</time>
            </trkpt>
            <trkpt lat="47.510583596" lon="6.851694211">
                <ele>326.000000</ele>
                <time>2012-07-14T11:47:35Z</time>
            </trkpt>
            <trkpt lat="47.510360554" lon="6.850928022">
                <ele>326.000000</ele>
                <time>2012-07-14T11:47:47Z</time>
            </trkpt>
            <trkpt lat="47.510216804" lon="6.850847891">
                <ele>326.000000</ele>
                <time>2012-07-14T11:47:51Z</time>
            </trkpt>
            <trkpt lat="47.510079760" lon="6.850672206">
                <ele>326.000000</ele>
                <time>2012-07-14T11:47:55Z</time>
            </trkpt>
            <trkpt lat="47.509773988" lon="6.849666210">
                <ele>325.000000</ele>
                <time>2012-07-14T11:48:10Z</time>
            </trkpt>
            <trkpt lat="47.509740209" lon="6.849535452">
                <ele>325.000000</ele>
                <time>2012-07-14T11:48:12Z</time>
            </trkpt>
            <trkpt lat="47.509727050" lon="6.848978223">
                <ele>325.000000</ele>
                <time>2012-07-14T11:48:20Z</time>
            </trkpt>
            <trkpt lat="47.509450531" lon="6.848013047">
                <ele>325.000000</ele>
                <time>2012-07-14T11:48:35Z</time>
            </trkpt>
            <trkpt lat="47.509105112" lon="6.846758611">
                <ele>325.000000</ele>
                <time>2012-07-14T11:48:53Z</time>
            </trkpt>
            <trkpt lat="47.509023054" lon="6.846523499">
                <ele>325.000000</ele>
                <time>2012-07-14T11:48:56Z</time>
            </trkpt>
            <trkpt lat="47.508954490" lon="6.846376564">
                <ele>325.000000</ele>
                <time>2012-07-14T11:48:58Z</time>
            </trkpt>
            <trkpt lat="47.508616531" lon="6.845843643">
                <ele>325.000000</ele>
                <time>2012-07-14T11:49:07Z</time>
            </trkpt>
            <trkpt lat="47.508123592" lon="6.844919119">
                <ele>324.000000</ele>
                <time>2012-07-14T11:49:22Z</time>
            </trkpt>
            <trkpt lat="47.507660072" lon="6.843964085">
                <ele>324.000000</ele>
                <time>2012-07-14T11:49:37Z</time>
            </trkpt>
            <trkpt lat="47.507185405" lon="6.842871420">
                <ele>323.000000</ele>
                <time>2012-07-14T11:49:54Z</time>
            </trkpt>
            <trkpt lat="47.506926740" lon="6.842219140">
                <ele>323.000000</ele>
                <time>2012-07-14T11:50:05Z</time>
            </trkpt>
            <trkpt lat="47.506915927" lon="6.841650261">
                <ele>323.000000</ele>
                <time>2012-07-14T11:50:13Z</time>
            </trkpt>
            <trkpt lat="47.506899163" lon="6.841576165">
                <ele>323.000000</ele>
                <time>2012-07-14T11:50:14Z</time>
            </trkpt>
            <trkpt lat="47.506850045" lon="6.841417998">
                <ele>323.000000</ele>
                <time>2012-07-14T11:50:16Z</time>
            </trkpt>
            <trkpt lat="47.506572437" lon="6.841212809">
                <ele>323.000000</ele>
                <time>2012-07-14T11:50:24Z</time>
            </trkpt>
            <trkpt lat="47.506415024" lon="6.840693215">
                <ele>323.000000</ele>
                <time>2012-07-14T11:50:37Z</time>
            </trkpt>
            <trkpt lat="47.506246883" lon="6.840047138">
                <ele>323.000000</ele>
                <time>2012-07-14T11:50:50Z</time>
            </trkpt>
            <trkpt lat="47.505959719" lon="6.839076346">
                <ele>323.000000</ele>
                <time>2012-07-14T11:51:08Z</time>
            </trkpt>
            <trkpt lat="47.505840026" lon="6.838578209">
                <ele>323.000000</ele>
                <time>2012-07-14T11:51:17Z</time>
            </trkpt>
            <trkpt lat="47.505654451" lon="6.837706156">
                <ele>323.000000</ele>
                <time>2012-07-14T11:51:31Z</time>
            </trkpt>
            <trkpt lat="47.505397461" lon="6.836620616">
                <ele>323.000000</ele>
                <time>2012-07-14T11:51:48Z</time>
            </trkpt>
            <trkpt lat="47.505033938" lon="6.835530466">
                <ele>323.000000</ele>
                <time>2012-07-14T11:52:05Z</time>
            </trkpt>
            <trkpt lat="47.504897732" lon="6.835068539">
                <ele>323.000000</ele>
                <time>2012-07-14T11:52:12Z</time>
            </trkpt>
            <trkpt lat="47.504631523" lon="6.833942933">
                <ele>322.000000</ele>
                <time>2012-07-14T11:52:30Z</time>
            </trkpt>
            <trkpt lat="47.504608557" lon="6.833657697">
                <ele>322.000000</ele>
                <time>2012-07-14T11:52:40Z</time>
            </trkpt>
            <trkpt lat="47.504599672" lon="6.833658786">
                <ele>322.000000</ele>
                <time>2012-07-14T11:52:59Z</time>
            </trkpt>
            <trkpt lat="47.504599923" lon="6.833642777">
                <ele>322.000000</ele>
                <time>2012-07-14T11:53:19Z</time>
            </trkpt>
            <trkpt lat="47.504589362" lon="6.833636826">
                <ele>322.000000</ele>
                <time>2012-07-14T11:53:39Z</time>
            </trkpt>
            <trkpt lat="47.504513841" lon="6.833550073">
                <ele>322.000000</ele>
                <time>2012-07-14T11:53:45Z</time>
            </trkpt>
            <trkpt lat="47.504409570" lon="6.833511349">
                <ele>322.000000</ele>
                <time>2012-07-14T11:53:50Z</time>
            </trkpt>
            <trkpt lat="47.504380150" lon="6.833458543">
                <ele>322.000000</ele>
                <time>2012-07-14T11:53:54Z</time>
            </trkpt>
            <trkpt lat="47.504098099" lon="6.833575722">
                <ele>322.000000</ele>
                <time>2012-07-14T11:54:03Z</time>
            </trkpt>
            <trkpt lat="47.503793333" lon="6.833639257">
                <ele>322.000000</ele>
                <time>2012-07-14T11:54:12Z</time>
            </trkpt>
            <trkpt lat="47.503314977" lon="6.833743360">
                <ele>323.000000</ele>
                <time>2012-07-14T11:54:26Z</time>
            </trkpt>
            <trkpt lat="47.502591787" lon="6.833915440">
                <ele>324.000000</ele>
                <time>2012-07-14T11:54:43Z</time>
            </trkpt>
            <trkpt lat="47.501938250" lon="6.833947459">
                <ele>324.000000</ele>
                <time>2012-07-14T11:54:56Z</time>
            </trkpt>
            <trkpt lat="47.501644129" lon="6.833896162">
                <ele>324.000000</ele>
                <time>2012-07-14T11:55:02Z</time>
            </trkpt>
            <trkpt lat="47.501437599" lon="6.833858527">
                <ele>324.000000</ele>
                <time>2012-07-14T11:55:07Z</time>
            </trkpt>
            <trkpt lat="47.500907946" lon="6.833787868">
                <ele>326.000000</ele>
                <time>2012-07-14T11:55:21Z</time>
            </trkpt>
            <trkpt lat="47.500868049" lon="6.833781665">
                <ele>326.000000</ele>
                <time>2012-07-14T11:55:22Z</time>
            </trkpt>
            <trkpt lat="47.500282908" lon="6.833707904">
                <ele>327.000000</ele>
                <time>2012-07-14T11:55:36Z</time>
            </trkpt>
            <trkpt lat="47.499410100" lon="6.833607405">
                <ele>327.000000</ele>
                <time>2012-07-14T11:55:57Z</time>
            </trkpt>
            <trkpt lat="47.498930907" lon="6.833514115">
                <ele>328.000000</ele>
                <time>2012-07-14T11:56:09Z</time>
            </trkpt>
            <trkpt lat="47.498561768" lon="6.833306411">
                <ele>328.000000</ele>
                <time>2012-07-14T11:56:18Z</time>
            </trkpt>
            <trkpt lat="47.498003868" lon="6.832806850">
                <ele>328.000000</ele>
                <time>2012-07-14T11:56:30Z</time>
            </trkpt>
            <trkpt lat="47.497476982" lon="6.832383648">
                <ele>328.000000</ele>
                <time>2012-07-14T11:56:38Z</time>
            </trkpt>
            <trkpt lat="47.497113710" lon="6.832260769">
                <ele>327.000000</ele>
                <time>2012-07-14T11:56:43Z</time>
            </trkpt>
            <trkpt lat="47.496831659" lon="6.832332518">
                <ele>326.000000</ele>
                <time>2012-07-14T11:56:47Z</time>
            </trkpt>
            <trkpt lat="47.496029763" lon="6.832854878">
                <ele>326.000000</ele>
                <time>2012-07-14T11:57:00Z</time>
            </trkpt>
            <trkpt lat="47.495557359" lon="6.833168194">
                <ele>324.000000</ele>
                <time>2012-07-14T11:57:09Z</time>
            </trkpt>
            <trkpt lat="47.495151088" lon="6.833476145">
                <ele>324.000000</ele>
                <time>2012-07-14T11:57:21Z</time>
            </trkpt>
            <trkpt lat="47.495072633" lon="6.833448652">
                <ele>324.000000</ele>
                <time>2012-07-14T11:57:23Z</time>
            </trkpt>
            <trkpt lat="47.494902648" lon="6.833508583">
                <ele>324.000000</ele>
                <time>2012-07-14T11:57:27Z</time>
            </trkpt>
            <trkpt lat="47.494493863" lon="6.833768170">
                <ele>323.000000</ele>
                <time>2012-07-14T11:57:37Z</time>
            </trkpt>
            <trkpt lat="47.493903860" lon="6.834124234">
                <ele>323.000000</ele>
                <time>2012-07-14T11:57:50Z</time>
            </trkpt>
            <trkpt lat="47.493162230" lon="6.834174525">
                <ele>323.000000</ele>
                <time>2012-07-14T11:58:06Z</time>
            </trkpt>
            <trkpt lat="47.492756210" lon="6.834058184">
                <ele>325.000000</ele>
                <time>2012-07-14T11:58:18Z</time>
            </trkpt>
            <trkpt lat="47.492632242" lon="6.834020214">
                <ele>325.000000</ele>
                <time>2012-07-14T11:58:21Z</time>
            </trkpt>
            <trkpt lat="47.492044084" lon="6.833852073">
                <ele>326.000000</ele>
                <time>2012-07-14T11:58:36Z</time>
            </trkpt>
            <trkpt lat="47.491270518" lon="6.833624924">
                <ele>327.000000</ele>
                <time>2012-07-14T11:58:54Z</time>
            </trkpt>
            <trkpt lat="47.490491336" lon="6.833386542">
                <ele>328.000000</ele>
                <time>2012-07-14T11:59:13Z</time>
            </trkpt>
            <trkpt lat="47.489927486" lon="6.833222592">
                <ele>330.000000</ele>
                <time>2012-07-14T11:59:28Z</time>
            </trkpt>
            <trkpt lat="47.489497243" lon="6.833094517">
                <ele>330.000000</ele>
                <time>2012-07-14T11:59:39Z</time>
            </trkpt>
            <trkpt lat="47.489286773" lon="6.833080268">
                <ele>330.000000</ele>
                <time>2012-07-14T11:59:43Z</time>
            </trkpt>
            <trkpt lat="47.488863654" lon="6.833292833">
                <ele>330.000000</ele>
                <time>2012-07-14T11:59:51Z</time>
            </trkpt>
            <trkpt lat="47.488119174" lon="6.834261529">
                <ele>328.000000</ele>
                <time>2012-07-14T12:00:07Z</time>
            </trkpt>
            <trkpt lat="47.487836033" lon="6.834683726">
                <ele>327.000000</ele>
                <time>2012-07-14T12:00:13Z</time>
            </trkpt>
            <trkpt lat="47.487680130" lon="6.835692488">
                <ele>326.000000</ele>
                <time>2012-07-14T12:00:23Z</time>
            </trkpt>
            <trkpt lat="47.487817677" lon="6.836531432">
                <ele>326.000000</ele>
                <time>2012-07-14T12:00:31Z</time>
            </trkpt>
            <trkpt lat="47.487792280" lon="6.836930411">
                <ele>325.000000</ele>
                <time>2012-07-14T12:00:35Z</time>
            </trkpt>
            <trkpt lat="47.487639729" lon="6.837422848">
                <ele>325.000000</ele>
                <time>2012-07-14T12:00:41Z</time>
            </trkpt>
            <trkpt lat="47.487359857" lon="6.837539524">
                <ele>325.000000</ele>
                <time>2012-07-14T12:00:48Z</time>
            </trkpt>
            <trkpt lat="47.487272602" lon="6.837462746">
                <ele>325.000000</ele>
                <time>2012-07-14T12:00:50Z</time>
            </trkpt>
            <trkpt lat="47.487008320" lon="6.837245235">
                <ele>325.000000</ele>
                <time>2012-07-14T12:00:56Z</time>
            </trkpt>
            <trkpt lat="47.486937242" lon="6.836573677">
                <ele>324.000000</ele>
                <time>2012-07-14T12:01:05Z</time>
            </trkpt>
            <trkpt lat="47.486903127" lon="6.836063555">
                <ele>324.000000</ele>
                <time>2012-07-14T12:01:12Z</time>
            </trkpt>
            <trkpt lat="47.486957191" lon="6.835720064">
                <ele>324.000000</ele>
                <time>2012-07-14T12:01:18Z</time>
            </trkpt>
            <trkpt lat="47.486969093" lon="6.835125284">
                <ele>323.000000</ele>
                <time>2012-07-14T12:01:28Z</time>
            </trkpt>
            <trkpt lat="47.487025587" lon="6.834150469">
                <ele>323.000000</ele>
                <time>2012-07-14T12:01:42Z</time>
            </trkpt>
            <trkpt lat="47.487021228" lon="6.833033329">
                <ele>323.000000</ele>
                <time>2012-07-14T12:01:59Z</time>
            </trkpt>
            <trkpt lat="47.486937158" lon="6.832241239">
                <ele>323.000000</ele>
                <time>2012-07-14T12:02:13Z</time>
            </trkpt>
            <trkpt lat="47.486916119" lon="6.832065722">
                <ele>323.000000</ele>
                <time>2012-07-14T12:02:16Z</time>
            </trkpt>
            <trkpt lat="47.486803467" lon="6.831528861">
                <ele>323.000000</ele>
                <time>2012-07-14T12:02:29Z</time>
            </trkpt>
            <trkpt lat="47.486807741" lon="6.831521569">
                <ele>323.000000</ele>
                <time>2012-07-14T12:02:39Z</time>
            </trkpt>
            <trkpt lat="47.486745631" lon="6.831530286">
                <ele>323.000000</ele>
                <time>2012-07-14T12:02:43Z</time>
            </trkpt>
            <trkpt lat="47.486524098" lon="6.831786185">
                <ele>323.000000</ele>
                <time>2012-07-14T12:02:56Z</time>
            </trkpt>
            <trkpt lat="47.486263923" lon="6.832111236">
                <ele>323.000000</ele>
                <time>2012-07-14T12:03:07Z</time>
            </trkpt>
            <trkpt lat="47.486134842" lon="6.832370069">
                <ele>323.000000</ele>
                <time>2012-07-14T12:03:12Z</time>
            </trkpt>
            <trkpt lat="47.486081198" lon="6.832674583">
                <ele>323.000000</ele>
                <time>2012-07-14T12:03:17Z</time>
            </trkpt>
            <trkpt lat="47.486099051" lon="6.833011536">
                <ele>323.000000</ele>
                <time>2012-07-14T12:03:22Z</time>
            </trkpt>
            <trkpt lat="47.485892689" lon="6.834017700">
                <ele>323.000000</ele>
                <time>2012-07-14T12:03:35Z</time>
            </trkpt>
            <trkpt lat="47.485662187" lon="6.834595045">
                <ele>323.000000</ele>
                <time>2012-07-14T12:03:43Z</time>
            </trkpt>
            <trkpt lat="47.485002447" lon="6.835687542">
                <ele>323.000000</ele>
                <time>2012-07-14T12:04:00Z</time>
            </trkpt>
            <trkpt lat="47.484909240" lon="6.835834980">
                <ele>323.000000</ele>
                <time>2012-07-14T12:04:03Z</time>
            </trkpt>
            <trkpt lat="47.484802538" lon="6.835939083">
                <ele>323.000000</ele>
                <time>2012-07-14T12:04:06Z</time>
            </trkpt>
            <trkpt lat="47.484649653" lon="6.836104123">
                <ele>323.000000</ele>
                <time>2012-07-14T12:04:10Z</time>
            </trkpt>
            <trkpt lat="47.484403309" lon="6.836440070">
                <ele>323.000000</ele>
                <time>2012-07-14T12:04:17Z</time>
            </trkpt>
            <trkpt lat="47.484313287" lon="6.836678619">
                <ele>323.000000</ele>
                <time>2012-07-14T12:04:21Z</time>
            </trkpt>
            <trkpt lat="47.484281352" lon="6.836816669">
                <ele>323.000000</ele>
                <time>2012-07-14T12:04:23Z</time>
            </trkpt>
            <trkpt lat="47.484250087" lon="6.836963938">
                <ele>323.000000</ele>
                <time>2012-07-14T12:04:25Z</time>
            </trkpt>
            <trkpt lat="47.484134082" lon="6.837522592">
                <ele>323.000000</ele>
                <time>2012-07-14T12:04:32Z</time>
            </trkpt>
            <trkpt lat="47.483861502" lon="6.838275287">
                <ele>323.000000</ele>
                <time>2012-07-14T12:04:42Z</time>
            </trkpt>
            <trkpt lat="47.483587498" lon="6.838625735">
                <ele>323.000000</ele>
                <time>2012-07-14T12:04:49Z</time>
            </trkpt>
            <trkpt lat="47.483064635" lon="6.838610899">
                <ele>323.000000</ele>
                <time>2012-07-14T12:05:00Z</time>
            </trkpt>
            <trkpt lat="47.483016858" lon="6.838601595">
                <ele>323.000000</ele>
                <time>2012-07-14T12:05:01Z</time>
            </trkpt>
            <trkpt lat="47.482681414" lon="6.838706872">
                <ele>323.000000</ele>
                <time>2012-07-14T12:05:08Z</time>
            </trkpt>
            <trkpt lat="47.482487122" lon="6.838654736">
                <ele>323.000000</ele>
                <time>2012-07-14T12:05:12Z</time>
            </trkpt>
            <trkpt lat="47.482345803" lon="6.838628920">
                <ele>323.000000</ele>
                <time>2012-07-14T12:05:15Z</time>
            </trkpt>
            <trkpt lat="47.482203562" lon="6.838655239">
                <ele>323.000000</ele>
                <time>2012-07-14T12:05:18Z</time>
            </trkpt>
            <trkpt lat="47.481980436" lon="6.838579634">
                <ele>323.000000</ele>
                <time>2012-07-14T12:05:25Z</time>
            </trkpt>
            <trkpt lat="47.481957972" lon="6.838546442">
                <ele>323.000000</ele>
                <time>2012-07-14T12:05:37Z</time>
            </trkpt>
            <trkpt lat="47.481958224" lon="6.838543676">
                <ele>323.000000</ele>
                <time>2012-07-14T12:05:40Z</time>
            </trkpt>
            <trkpt lat="47.481911872" lon="6.838610647">
                <ele>324.000000</ele>
                <time>2012-07-14T12:05:44Z</time>
            </trkpt>
            <trkpt lat="47.481861329" lon="6.838817932">
                <ele>324.000000</ele>
                <time>2012-07-14T12:05:48Z</time>
            </trkpt>
            <trkpt lat="47.481667372" lon="6.839657966">
                <ele>324.000000</ele>
                <time>2012-07-14T12:06:01Z</time>
            </trkpt>
            <trkpt lat="47.481483137" lon="6.839817474">
                <ele>324.000000</ele>
                <time>2012-07-14T12:06:06Z</time>
            </trkpt>
            <trkpt lat="47.480807807" lon="6.840113271">
                <ele>324.000000</ele>
                <time>2012-07-14T12:06:20Z</time>
            </trkpt>
            <trkpt lat="47.480426012" lon="6.840294069">
                <ele>324.000000</ele>
                <time>2012-07-14T12:06:28Z</time>
            </trkpt>
            <trkpt lat="47.480173213" lon="6.840388784">
                <ele>325.000000</ele>
                <time>2012-07-14T12:06:33Z</time>
            </trkpt>
            <trkpt lat="47.479972383" lon="6.840480734">
                <ele>325.000000</ele>
                <time>2012-07-14T12:06:37Z</time>
            </trkpt>
            <trkpt lat="47.479767362" lon="6.840482829">
                <ele>325.000000</ele>
                <time>2012-07-14T12:06:41Z</time>
            </trkpt>
            <trkpt lat="47.479000920" lon="6.840245621">
                <ele>325.000000</ele>
                <time>2012-07-14T12:06:57Z</time>
            </trkpt>
            <trkpt lat="47.478290554" lon="6.840127939">
                <ele>325.000000</ele>
                <time>2012-07-14T12:07:11Z</time>
            </trkpt>
            <trkpt lat="47.477665180" lon="6.840033140">
                <ele>325.000000</ele>
                <time>2012-07-14T12:07:23Z</time>
            </trkpt>
            <trkpt lat="47.476923717" lon="6.840062225">
                <ele>325.000000</ele>
                <time>2012-07-14T12:07:38Z</time>
            </trkpt>
            <trkpt lat="47.476041438" lon="6.840257859">
                <ele>325.000000</ele>
                <time>2012-07-14T12:07:57Z</time>
            </trkpt>
            <trkpt lat="47.475459902" lon="6.840528175">
                <ele>325.000000</ele>
                <time>2012-07-14T12:08:10Z</time>
            </trkpt>
            <trkpt lat="47.475029910" lon="6.840710565">
                <ele>326.000000</ele>
                <time>2012-07-14T12:08:19Z</time>
            </trkpt>
            <trkpt lat="47.474804437" lon="6.840792541">
                <ele>326.000000</ele>
                <time>2012-07-14T12:08:24Z</time>
            </trkpt>
            <trkpt lat="47.474096334" lon="6.841098061">
                <ele>326.000000</ele>
                <time>2012-07-14T12:08:40Z</time>
            </trkpt>
            <trkpt lat="47.473517060" lon="6.841403330">
                <ele>326.000000</ele>
                <time>2012-07-14T12:08:53Z</time>
            </trkpt>
            <trkpt lat="47.472809041" lon="6.841886798">
                <ele>326.000000</ele>
                <time>2012-07-14T12:09:09Z</time>
            </trkpt>
            <trkpt lat="47.472621538" lon="6.842074888">
                <ele>326.000000</ele>
                <time>2012-07-14T12:09:14Z</time>
            </trkpt>
            <trkpt lat="47.472548029" lon="6.842146134">
                <ele>326.000000</ele>
                <time>2012-07-14T12:09:16Z</time>
            </trkpt>
            <trkpt lat="47.472147290" lon="6.842152169">
                <ele>328.000000</ele>
                <time>2012-07-14T12:09:25Z</time>
            </trkpt>
            <trkpt lat="47.472053915" lon="6.841890737">
                <ele>328.000000</ele>
                <time>2012-07-14T12:09:29Z</time>
            </trkpt>
            <trkpt lat="47.472019214" lon="6.841675825">
                <ele>328.000000</ele>
                <time>2012-07-14T12:09:32Z</time>
            </trkpt>
            <trkpt lat="47.471981999" lon="6.841547582">
                <ele>328.000000</ele>
                <time>2012-07-14T12:09:34Z</time>
            </trkpt>
            <trkpt lat="47.471816037" lon="6.841310291">
                <ele>329.000000</ele>
                <time>2012-07-14T12:09:39Z</time>
            </trkpt>
            <trkpt lat="47.471065521" lon="6.840969734">
                <ele>329.000000</ele>
                <time>2012-07-14T12:09:54Z</time>
            </trkpt>
            <trkpt lat="47.470548190" lon="6.840962442">
                <ele>330.000000</ele>
                <time>2012-07-14T12:10:05Z</time>
            </trkpt>
            <trkpt lat="47.469793148" lon="6.841183389">
                <ele>330.000000</ele>
                <time>2012-07-14T12:10:21Z</time>
            </trkpt>
            <trkpt lat="47.469128547" lon="6.841490334">
                <ele>330.000000</ele>
                <time>2012-07-14T12:10:34Z</time>
            </trkpt>
            <trkpt lat="47.468869546" lon="6.841609022">
                <ele>330.000000</ele>
                <time>2012-07-14T12:10:39Z</time>
            </trkpt>
            <trkpt lat="47.468383312" lon="6.841758387">
                <ele>330.000000</ele>
                <time>2012-07-14T12:10:48Z</time>
            </trkpt>
            <trkpt lat="47.467503715" lon="6.841820246">
                <ele>331.000000</ele>
                <time>2012-07-14T12:11:03Z</time>
            </trkpt>
            <trkpt lat="47.466652701" lon="6.841807254">
                <ele>331.000000</ele>
                <time>2012-07-14T12:11:18Z</time>
            </trkpt>
            <trkpt lat="47.466304097" lon="6.841869950">
                <ele>331.000000</ele>
                <time>2012-07-14T12:11:24Z</time>
            </trkpt>
            <trkpt lat="47.465343867" lon="6.842109086">
                <ele>330.000000</ele>
                <time>2012-07-14T12:11:41Z</time>
            </trkpt>
            <trkpt lat="47.465126608" lon="6.842133729">
                <ele>330.000000</ele>
                <time>2012-07-14T12:11:45Z</time>
            </trkpt>
            <trkpt lat="47.464281125" lon="6.842105314">
                <ele>330.000000</ele>
                <time>2012-07-14T12:12:00Z</time>
            </trkpt>
            <trkpt lat="47.463844847" lon="6.842035493">
                <ele>330.000000</ele>
                <time>2012-07-14T12:12:08Z</time>
            </trkpt>
            <trkpt lat="47.463220060" lon="6.841955194">
                <ele>330.000000</ele>
                <time>2012-07-14T12:12:20Z</time>
            </trkpt>
            <trkpt lat="47.462654449" lon="6.841929881">
                <ele>330.000000</ele>
                <time>2012-07-14T12:12:31Z</time>
            </trkpt>
            <trkpt lat="47.462480860" lon="6.841780851">
                <ele>330.000000</ele>
                <time>2012-07-14T12:12:35Z</time>
            </trkpt>
            <trkpt lat="47.462226218" lon="6.841745395">
                <ele>330.000000</ele>
                <time>2012-07-14T12:12:41Z</time>
            </trkpt>
            <trkpt lat="47.461825227" lon="6.841801722">
                <ele>330.000000</ele>
                <time>2012-07-14T12:12:50Z</time>
            </trkpt>
            <trkpt lat="47.461736128" lon="6.841796776">
                <ele>330.000000</ele>
                <time>2012-07-14T12:12:52Z</time>
            </trkpt>
            <trkpt lat="47.461068342" lon="6.841665097">
                <ele>331.000000</ele>
                <time>2012-07-14T12:13:07Z</time>
            </trkpt>
            <trkpt lat="47.460437100" lon="6.841571974">
                <ele>331.000000</ele>
                <time>2012-07-14T12:13:22Z</time>
            </trkpt>
            <trkpt lat="47.460006857" lon="6.841493687">
                <ele>332.000000</ele>
                <time>2012-07-14T12:13:31Z</time>
            </trkpt>
            <trkpt lat="47.459697062" lon="6.841321774">
                <ele>333.000000</ele>
                <time>2012-07-14T12:13:37Z</time>
            </trkpt>
            <trkpt lat="47.459402354" lon="6.841124212">
                <ele>333.000000</ele>
                <time>2012-07-14T12:13:43Z</time>
            </trkpt>
            <trkpt lat="47.458866415" lon="6.840757504">
                <ele>333.000000</ele>
                <time>2012-07-14T12:13:53Z</time>
            </trkpt>
            <trkpt lat="47.458601799" lon="6.840573689">
                <ele>333.000000</ele>
                <time>2012-07-14T12:13:58Z</time>
            </trkpt>
            <trkpt lat="47.457571328" lon="6.840133052">
                <ele>333.000000</ele>
                <time>2012-07-14T12:14:17Z</time>
            </trkpt>
            <trkpt lat="47.456687959" lon="6.840021741">
                <ele>332.000000</ele>
                <time>2012-07-14T12:14:32Z</time>
            </trkpt>
            <trkpt lat="47.455847338" lon="6.839902550">
                <ele>332.000000</ele>
                <time>2012-07-14T12:14:47Z</time>
            </trkpt>
            <trkpt lat="47.455036305" lon="6.839785371">
                <ele>332.000000</ele>
                <time>2012-07-14T12:15:02Z</time>
            </trkpt>
            <trkpt lat="47.454724582" lon="6.839743629">
                <ele>332.000000</ele>
                <time>2012-07-14T12:15:08Z</time>
            </trkpt>
            <trkpt lat="47.454588963" lon="6.839687051">
                <ele>332.000000</ele>
                <time>2012-07-14T12:15:11Z</time>
            </trkpt>
            <trkpt lat="47.454405399" lon="6.839589905">
                <ele>332.000000</ele>
                <time>2012-07-14T12:15:15Z</time>
            </trkpt>
            <trkpt lat="47.453833921" lon="6.839332832">
                <ele>332.000000</ele>
                <time>2012-07-14T12:15:27Z</time>
            </trkpt>
            <trkpt lat="47.452870086" lon="6.839142730">
                <ele>332.000000</ele>
                <time>2012-07-14T12:15:46Z</time>
            </trkpt>
            <trkpt lat="47.451991830" lon="6.838986743">
                <ele>332.000000</ele>
                <time>2012-07-14T12:16:04Z</time>
            </trkpt>
            <trkpt lat="47.451850595" lon="6.838979199">
                <ele>333.000000</ele>
                <time>2012-07-14T12:16:07Z</time>
            </trkpt>
            <trkpt lat="47.451057499" lon="6.838975763">
                <ele>333.000000</ele>
                <time>2012-07-14T12:16:22Z</time>
            </trkpt>
            <trkpt lat="47.450273540" lon="6.838841569">
                <ele>331.000000</ele>
                <time>2012-07-14T12:16:36Z</time>
            </trkpt>
            <trkpt lat="47.450038511" lon="6.838716511">
                <ele>330.000000</ele>
                <time>2012-07-14T12:16:41Z</time>
            </trkpt>
            <trkpt lat="47.449914459" lon="6.838602433">
                <ele>330.000000</ele>
                <time>2012-07-14T12:16:44Z</time>
            </trkpt>
            <trkpt lat="47.449696027" lon="6.838510735">
                <ele>330.000000</ele>
                <time>2012-07-14T12:16:49Z</time>
            </trkpt>
            <trkpt lat="47.449489245" lon="6.838434963">
                <ele>330.000000</ele>
                <time>2012-07-14T12:16:53Z</time>
            </trkpt>
            <trkpt lat="47.448998569" lon="6.837654775">
                <ele>330.000000</ele>
                <time>2012-07-14T12:17:08Z</time>
            </trkpt>
            <trkpt lat="47.448623646" lon="6.836827984">
                <ele>331.000000</ele>
                <time>2012-07-14T12:17:22Z</time>
            </trkpt>
            <trkpt lat="47.448172951" lon="6.836141422">
                <ele>331.000000</ele>
                <time>2012-07-14T12:17:37Z</time>
            </trkpt>
            <trkpt lat="47.447797861" lon="6.835330222">
                <ele>332.000000</ele>
                <time>2012-07-14T12:17:55Z</time>
            </trkpt>
            <trkpt lat="47.447776236" lon="6.835254198">
                <ele>332.000000</ele>
                <time>2012-07-14T12:18:05Z</time>
            </trkpt>
            <trkpt lat="47.447789144" lon="6.835257048">
                <ele>332.000000</ele>
                <time>2012-07-14T12:18:29Z</time>
            </trkpt>
            <trkpt lat="47.447776990" lon="6.835254785">
                <ele>332.000000</ele>
                <time>2012-07-14T12:18:53Z</time>
            </trkpt>
            <trkpt lat="47.447770536" lon="6.835252773">
                <ele>332.000000</ele>
                <time>2012-07-14T12:19:28Z</time>
            </trkpt>
            <trkpt lat="47.447723262" lon="6.835075244">
                <ele>332.000000</ele>
                <time>2012-07-14T12:19:42Z</time>
            </trkpt>
            <trkpt lat="47.447559396" lon="6.834895872">
                <ele>332.000000</ele>
                <time>2012-07-14T12:19:51Z</time>
            </trkpt>
            <trkpt lat="47.447508099" lon="6.834761174">
                <ele>332.000000</ele>
                <time>2012-07-14T12:19:57Z</time>
            </trkpt>
            <trkpt lat="47.447277010" lon="6.834127167">
                <ele>332.000000</ele>
                <time>2012-07-14T12:20:12Z</time>
            </trkpt>
            <trkpt lat="47.447058410" lon="6.833510427">
                <ele>332.000000</ele>
                <time>2012-07-14T12:20:27Z</time>
            </trkpt>
            <trkpt lat="47.446893621" lon="6.832782459">
                <ele>333.000000</ele>
                <time>2012-07-14T12:20:40Z</time>
            </trkpt>
            <trkpt lat="47.446910972" lon="6.832524128">
                <ele>333.000000</ele>
                <time>2012-07-14T12:20:44Z</time>
            </trkpt>
            <trkpt lat="47.447112640" lon="6.831709072">
                <ele>332.000000</ele>
                <time>2012-07-14T12:20:56Z</time>
            </trkpt>
            <trkpt lat="47.447138540" lon="6.831376059">
                <ele>332.000000</ele>
                <time>2012-07-14T12:21:01Z</time>
            </trkpt>
            <trkpt lat="47.447105516" lon="6.831102138">
                <ele>332.000000</ele>
                <time>2012-07-14T12:21:05Z</time>
            </trkpt>
            <trkpt lat="47.446704106" lon="6.829723651">
                <ele>333.000000</ele>
                <time>2012-07-14T12:21:26Z</time>
            </trkpt>
            <trkpt lat="47.446307475" lon="6.828566948">
                <ele>333.000000</ele>
                <time>2012-07-14T12:21:43Z</time>
            </trkpt>
            <trkpt lat="47.446034560" lon="6.827549636">
                <ele>333.000000</ele>
                <time>2012-07-14T12:21:58Z</time>
            </trkpt>
            <trkpt lat="47.445852589" lon="6.826594351">
                <ele>333.000000</ele>
                <time>2012-07-14T12:22:12Z</time>
            </trkpt>
            <trkpt lat="47.445689729" lon="6.825342514">
                <ele>333.000000</ele>
                <time>2012-07-14T12:22:30Z</time>
            </trkpt>
            <trkpt lat="47.445523012" lon="6.824138872">
                <ele>333.000000</ele>
                <time>2012-07-14T12:22:47Z</time>
            </trkpt>
            <trkpt lat="47.445389992" lon="6.823072024">
                <ele>333.000000</ele>
                <time>2012-07-14T12:23:02Z</time>
            </trkpt>
            <trkpt lat="47.445220929" lon="6.821784480">
                <ele>333.000000</ele>
                <time>2012-07-14T12:23:20Z</time>
            </trkpt>
            <trkpt lat="47.445071815" lon="6.820681840">
                <ele>333.000000</ele>
                <time>2012-07-14T12:23:36Z</time>
            </trkpt>
            <trkpt lat="47.444910128" lon="6.819428075">
                <ele>333.000000</ele>
                <time>2012-07-14T12:23:55Z</time>
            </trkpt>
            <trkpt lat="47.444751877" lon="6.818236336">
                <ele>333.000000</ele>
                <time>2012-07-14T12:24:13Z</time>
            </trkpt>
            <trkpt lat="47.444736035" lon="6.818105495">
                <ele>333.000000</ele>
                <time>2012-07-14T12:24:15Z</time>
            </trkpt>
            <trkpt lat="47.444684487" lon="6.817715652">
                <ele>333.000000</ele>
                <time>2012-07-14T12:24:21Z</time>
            </trkpt>
            <trkpt lat="47.444605948" lon="6.817053566">
                <ele>333.000000</ele>
                <time>2012-07-14T12:24:31Z</time>
            </trkpt>
            <trkpt lat="47.444624724" lon="6.816743435">
                <ele>333.000000</ele>
                <time>2012-07-14T12:24:36Z</time>
            </trkpt>
            <trkpt lat="47.444667891" lon="6.816563895">
                <ele>333.000000</ele>
                <time>2012-07-14T12:24:39Z</time>
            </trkpt>
            <trkpt lat="47.444716673" lon="6.816449398">
                <ele>333.000000</ele>
                <time>2012-07-14T12:24:41Z</time>
            </trkpt>
            <trkpt lat="47.444800828" lon="6.816279581">
                <ele>333.000000</ele>
                <time>2012-07-14T12:24:44Z</time>
            </trkpt>
            <trkpt lat="47.445501052" lon="6.815531496">
                <ele>333.000000</ele>
                <time>2012-07-14T12:25:01Z</time>
            </trkpt>
            <trkpt lat="47.446262045" lon="6.814780897">
                <ele>333.000000</ele>
                <time>2012-07-14T12:25:19Z</time>
            </trkpt>
            <trkpt lat="47.447066372" lon="6.814001547">
                <ele>333.000000</ele>
                <time>2012-07-14T12:25:37Z</time>
            </trkpt>
            <trkpt lat="47.447771458" lon="6.813316746">
                <ele>333.000000</ele>
                <time>2012-07-14T12:25:53Z</time>
            </trkpt>
            <trkpt lat="47.447814541" lon="6.813277518">
                <ele>333.000000</ele>
                <time>2012-07-14T12:25:54Z</time>
            </trkpt>
            <trkpt lat="47.448030878" lon="6.813070150">
                <ele>333.000000</ele>
                <time>2012-07-14T12:25:59Z</time>
            </trkpt>
            <trkpt lat="47.448811736" lon="6.812246544">
                <ele>333.000000</ele>
                <time>2012-07-14T12:26:18Z</time>
            </trkpt>
            <trkpt lat="47.449442726" lon="6.811576998">
                <ele>334.000000</ele>
                <time>2012-07-14T12:26:34Z</time>
            </trkpt>
            <trkpt lat="47.449555462" lon="6.811455544">
                <ele>334.000000</ele>
                <time>2012-07-14T12:26:37Z</time>
            </trkpt>
            <trkpt lat="47.449811446" lon="6.811220348">
                <ele>334.000000</ele>
                <time>2012-07-14T12:26:44Z</time>
            </trkpt>
            <trkpt lat="47.450248981" lon="6.811033683">
                <ele>334.000000</ele>
                <time>2012-07-14T12:26:54Z</time>
            </trkpt>
            <trkpt lat="47.450761534" lon="6.810337063">
                <ele>334.000000</ele>
                <time>2012-07-14T12:27:09Z</time>
            </trkpt>
            <trkpt lat="47.450928837" lon="6.810048977">
                <ele>334.000000</ele>
                <time>2012-07-14T12:27:15Z</time>
            </trkpt>
            <trkpt lat="47.450976698" lon="6.809938503">
                <ele>333.000000</ele>
                <time>2012-07-14T12:27:17Z</time>
            </trkpt>
            <trkpt lat="47.451081304" lon="6.809581183">
                <ele>333.000000</ele>
                <time>2012-07-14T12:27:23Z</time>
            </trkpt>
            <trkpt lat="47.451113407" lon="6.809397703">
                <ele>333.000000</ele>
                <time>2012-07-14T12:27:26Z</time>
            </trkpt>
            <trkpt lat="47.451155065" lon="6.808862016">
                <ele>334.000000</ele>
                <time>2012-07-14T12:27:35Z</time>
            </trkpt>
            <trkpt lat="47.451297138" lon="6.807756778">
                <ele>335.000000</ele>
                <time>2012-07-14T12:27:53Z</time>
            </trkpt>
            <trkpt lat="47.451472990" lon="6.806768216">
                <ele>336.000000</ele>
                <time>2012-07-14T12:28:11Z</time>
            </trkpt>
            <trkpt lat="47.451528227" lon="6.806252310">
                <ele>336.000000</ele>
                <time>2012-07-14T12:28:21Z</time>
            </trkpt>
            <trkpt lat="47.451583212" lon="6.805538256">
                <ele>336.000000</ele>
                <time>2012-07-14T12:28:34Z</time>
            </trkpt>
            <trkpt lat="47.451601233" lon="6.804815568">
                <ele>336.000000</ele>
                <time>2012-07-14T12:28:47Z</time>
            </trkpt>
            <trkpt lat="47.451572651" lon="6.804068908">
                <ele>337.000000</ele>
                <time>2012-07-14T12:29:02Z</time>
            </trkpt>
            <trkpt lat="47.451548176" lon="6.803563312">
                <ele>337.000000</ele>
                <time>2012-07-14T12:29:15Z</time>
            </trkpt>
            <trkpt lat="47.451511044" lon="6.802956378">
                <ele>337.000000</ele>
                <time>2012-07-14T12:29:28Z</time>
            </trkpt>
            <trkpt lat="47.451508613" lon="6.802917737">
                <ele>337.000000</ele>
                <time>2012-07-14T12:29:30Z</time>
            </trkpt>
            <trkpt lat="47.451511547" lon="6.802893011">
                <ele>337.000000</ele>
                <time>2012-07-14T12:29:36Z</time>
            </trkpt>
            <trkpt lat="47.451480199" lon="6.802485315">
                <ele>338.000000</ele>
                <time>2012-07-14T12:29:47Z</time>
            </trkpt>
            <trkpt lat="47.451431584" lon="6.801696829">
                <ele>338.000000</ele>
                <time>2012-07-14T12:30:02Z</time>
            </trkpt>
            <trkpt lat="47.451378275" lon="6.800849754">
                <ele>339.000000</ele>
                <time>2012-07-14T12:30:18Z</time>
            </trkpt>
            <trkpt lat="47.451328570" lon="6.799902935">
                <ele>339.000000</ele>
                <time>2012-07-14T12:30:35Z</time>
            </trkpt>
            <trkpt lat="47.451298898" lon="6.799389459">
                <ele>339.000000</ele>
                <time>2012-07-14T12:30:43Z</time>
            </trkpt>
            <trkpt lat="47.451192280" lon="6.798280366">
                <ele>339.000000</ele>
                <time>2012-07-14T12:31:00Z</time>
            </trkpt>
            <trkpt lat="47.451149197" lon="6.797748953">
                <ele>339.000000</ele>
                <time>2012-07-14T12:31:11Z</time>
            </trkpt>
            <trkpt lat="47.451010141" lon="6.797380988">
                <ele>339.000000</ele>
                <time>2012-07-14T12:31:19Z</time>
            </trkpt>
            <trkpt lat="47.450621976" lon="6.796406256">
                <ele>339.000000</ele>
                <time>2012-07-14T12:31:37Z</time>
            </trkpt>
            <trkpt lat="47.450161977" lon="6.795578627">
                <ele>338.000000</ele>
                <time>2012-07-14T12:31:52Z</time>
            </trkpt>
            <trkpt lat="47.449961817" lon="6.795621542">
                <ele>337.000000</ele>
                <time>2012-07-14T12:31:58Z</time>
            </trkpt>
            <trkpt lat="47.449586811" lon="6.795840394">
                <ele>336.000000</ele>
                <time>2012-07-14T12:32:11Z</time>
            </trkpt>
            <trkpt lat="47.449208284" lon="6.795757245">
                <ele>336.000000</ele>
                <time>2012-07-14T12:32:26Z</time>
            </trkpt>
            <trkpt lat="47.449185066" lon="6.795765879">
                <ele>335.000000</ele>
                <time>2012-07-14T12:32:43Z</time>
            </trkpt>
            <trkpt lat="47.449209038" lon="6.795744002">
                <ele>335.000000</ele>
                <time>2012-07-14T12:33:04Z</time>
            </trkpt>
            <trkpt lat="47.449210798" lon="6.795736123">
                <ele>335.000000</ele>
                <time>2012-07-14T12:33:31Z</time>
            </trkpt>
            <trkpt lat="47.449188251" lon="6.795716342">
                <ele>335.000000</ele>
                <time>2012-07-14T12:34:02Z</time>
            </trkpt>
            <trkpt lat="47.449175511" lon="6.795754312">
                <ele>334.000000</ele>
                <time>2012-07-14T12:34:35Z</time>
            </trkpt>
            <trkpt lat="47.449177271" lon="6.795765124">
                <ele>334.000000</ele>
                <time>2012-07-14T12:35:06Z</time>
            </trkpt>
            <trkpt lat="47.449186239" lon="6.795755904">
                <ele>334.000000</ele>
                <time>2012-07-14T12:35:28Z</time>
            </trkpt>
            <trkpt lat="47.449173834" lon="6.795771243">
                <ele>334.000000</ele>
                <time>2012-07-14T12:35:57Z</time>
            </trkpt>
            <trkpt lat="47.449179282" lon="6.795773003">
                <ele>334.000000</ele>
                <time>2012-07-14T12:36:29Z</time>
            </trkpt>
            <trkpt lat="47.449186575" lon="6.795777278">
                <ele>334.000000</ele>
                <time>2012-07-14T12:37:04Z</time>
            </trkpt>
            <trkpt lat="47.449182216" lon="6.795771495">
                <ele>334.000000</ele>
                <time>2012-07-14T12:37:36Z</time>
            </trkpt>
            <trkpt lat="47.449176516" lon="6.795773925">
                <ele>335.000000</ele>
                <time>2012-07-14T12:38:11Z</time>
            </trkpt>
            <trkpt lat="47.449167632" lon="6.795779290">
                <ele>335.000000</ele>
                <time>2012-07-14T12:38:46Z</time>
            </trkpt>
            <trkpt lat="47.449171822" lon="6.795774931">
                <ele>335.000000</ele>
                <time>2012-07-14T12:39:15Z</time>
            </trkpt>
            <trkpt lat="47.449172325" lon="6.795764202">
                <ele>335.000000</ele>
                <time>2012-07-14T12:39:41Z</time>
            </trkpt>
            <trkpt lat="47.449179199" lon="6.795765963">
                <ele>334.000000</ele>
                <time>2012-07-14T12:40:04Z</time>
            </trkpt>
            <trkpt lat="47.449194118" lon="6.795765711">
                <ele>334.000000</ele>
                <time>2012-07-14T12:40:23Z</time>
            </trkpt>
            <trkpt lat="47.449208284" lon="6.795779541">
                <ele>334.000000</ele>
                <time>2012-07-14T12:40:45Z</time>
            </trkpt>
            <trkpt lat="47.449285062" lon="6.795811225">
                <ele>334.000000</ele>
                <time>2012-07-14T12:40:50Z</time>
            </trkpt>
            <trkpt lat="47.449734751" lon="6.795899989">
                <ele>334.000000</ele>
                <time>2012-07-14T12:41:06Z</time>
            </trkpt>
            <trkpt lat="47.450026525" lon="6.795587260">
                <ele>334.000000</ele>
                <time>2012-07-14T12:41:18Z</time>
            </trkpt>
            <trkpt lat="47.450055024" lon="6.795576280">
                <ele>335.000000</ele>
                <time>2012-07-14T12:41:19Z</time>
            </trkpt>
            <trkpt lat="47.450360460" lon="6.795991603">
                <ele>336.000000</ele>
                <time>2012-07-14T12:41:31Z</time>
            </trkpt>
            <trkpt lat="47.450717781" lon="6.796707250">
                <ele>337.000000</ele>
                <time>2012-07-14T12:41:48Z</time>
            </trkpt>
            <trkpt lat="47.451076275" lon="6.797704194">
                <ele>337.000000</ele>
                <time>2012-07-14T12:42:09Z</time>
            </trkpt>
            <trkpt lat="47.451177444" lon="6.798770036">
                <ele>337.000000</ele>
                <time>2012-07-14T12:42:26Z</time>
            </trkpt>
            <trkpt lat="47.451270567" lon="6.800066717">
                <ele>337.000000</ele>
                <time>2012-07-14T12:42:44Z</time>
            </trkpt>
            <trkpt lat="47.451353716" lon="6.801533215">
                <ele>338.000000</ele>
                <time>2012-07-14T12:43:04Z</time>
            </trkpt>
            <trkpt lat="47.451430410" lon="6.802865602">
                <ele>338.000000</ele>
                <time>2012-07-14T12:43:22Z</time>
            </trkpt>
            <trkpt lat="47.451467123" lon="6.803461053">
                <ele>338.000000</ele>
                <time>2012-07-14T12:43:30Z</time>
            </trkpt>
            <trkpt lat="47.451485563" lon="6.803736314">
                <ele>338.000000</ele>
                <time>2012-07-14T12:43:34Z</time>
            </trkpt>
            <trkpt lat="47.451331755" lon="6.803915268">
                <ele>337.000000</ele>
                <time>2012-07-14T12:43:39Z</time>
            </trkpt>
            <trkpt lat="47.450917857" lon="6.803948712">
                <ele>336.000000</ele>
                <time>2012-07-14T12:43:47Z</time>
            </trkpt>
            <trkpt lat="47.450759104" lon="6.803833628">
                <ele>336.000000</ele>
                <time>2012-07-14T12:43:51Z</time>
            </trkpt>
            <trkpt lat="47.450395078" lon="6.803229293">
                <ele>336.000000</ele>
                <time>2012-07-14T12:44:08Z</time>
            </trkpt>
            <trkpt lat="47.450247388" lon="6.802938776">
                <ele>336.000000</ele>
                <time>2012-07-14T12:44:19Z</time>
            </trkpt>
            <trkpt lat="47.450231127" lon="6.803002395">
                <ele>336.000000</ele>
                <time>2012-07-14T12:44:25Z</time>
            </trkpt>
            <trkpt lat="47.450476382" lon="6.803479493">
                <ele>336.000000</ele>
                <time>2012-07-14T12:44:41Z</time>
            </trkpt>
            <trkpt lat="47.450419134" lon="6.803582422">
                <ele>336.000000</ele>
                <time>2012-07-14T12:44:50Z</time>
            </trkpt>
            <trkpt lat="47.450335231" lon="6.803644868">
                <ele>336.000000</ele>
                <time>2012-07-14T12:44:56Z</time>
            </trkpt>
            <trkpt lat="47.450263901" lon="6.803610921">
                <ele>335.000000</ele>
                <time>2012-07-14T12:45:07Z</time>
            </trkpt>
            <trkpt lat="47.450268762" lon="6.803611172">
                <ele>335.000000</ele>
                <time>2012-07-14T12:45:35Z</time>
            </trkpt>
            <trkpt lat="47.450272199" lon="6.803615866">
                <ele>335.000000</ele>
                <time>2012-07-14T12:46:18Z</time>
            </trkpt>
            <trkpt lat="47.450274043" lon="6.803619890">
                <ele>334.000000</ele>
                <time>2012-07-14T12:46:46Z</time>
            </trkpt>
            <trkpt lat="47.450370435" lon="6.803673115">
                <ele>334.000000</ele>
                <time>2012-07-14T12:46:54Z</time>
            </trkpt>
            <trkpt lat="47.450488284" lon="6.803549146">
                <ele>334.000000</ele>
                <time>2012-07-14T12:47:01Z</time>
            </trkpt>
            <trkpt lat="47.450498007" lon="6.803444792">
                <ele>334.000000</ele>
                <time>2012-07-14T12:47:05Z</time>
            </trkpt>
            <trkpt lat="47.450262224" lon="6.802997030">
                <ele>334.000000</ele>
                <time>2012-07-14T12:47:20Z</time>
            </trkpt>
            <trkpt lat="47.450003559" lon="6.802238887">
                <ele>334.000000</ele>
                <time>2012-07-14T12:47:37Z</time>
            </trkpt>
            <trkpt lat="47.449808093" lon="6.801653076">
                <ele>336.000000</ele>
                <time>2012-07-14T12:47:55Z</time>
            </trkpt>
            <trkpt lat="47.449639114" lon="6.801376054">
                <ele>336.000000</ele>
                <time>2012-07-14T12:48:07Z</time>
            </trkpt>
            <trkpt lat="47.449455801" lon="6.801106324">
                <ele>338.000000</ele>
                <time>2012-07-14T12:48:21Z</time>
            </trkpt>
            <trkpt lat="47.449252708" lon="6.800805582">
                <ele>341.000000</ele>
                <time>2012-07-14T12:48:37Z</time>
            </trkpt>
            <trkpt lat="47.449154304" lon="6.800429737">
                <ele>344.000000</ele>
                <time>2012-07-14T12:48:51Z</time>
            </trkpt>
            <trkpt lat="47.449127063" lon="6.800395874">
                <ele>345.000000</ele>
                <time>2012-07-14T12:48:53Z</time>
            </trkpt>
            <trkpt lat="47.449072832" lon="6.800283389">
                <ele>349.000000</ele>
                <time>2012-07-14T12:48:58Z</time>
            </trkpt>
            <trkpt lat="47.448832439" lon="6.800040565">
                <ele>350.000000</ele>
                <time>2012-07-14T12:49:13Z</time>
            </trkpt>
            <trkpt lat="47.448813245" lon="6.800042828">
                <ele>350.000000</ele>
                <time>2012-07-14T12:49:14Z</time>
            </trkpt>
            <trkpt lat="47.448745184" lon="6.799991615">
                <ele>352.000000</ele>
                <time>2012-07-14T12:49:26Z</time>
            </trkpt>
            <trkpt lat="47.448749710" lon="6.799992118">
                <ele>352.000000</ele>
                <time>2012-07-14T12:50:07Z</time>
            </trkpt>
            <trkpt lat="47.448750213" lon="6.799990609">
                <ele>352.000000</ele>
                <time>2012-07-14T12:50:18Z</time>
            </trkpt>
            <trkpt lat="47.448557932" lon="6.799971415">
                <ele>353.000000</ele>
                <time>2012-07-14T12:50:29Z</time>
            </trkpt>
            <trkpt lat="47.448109249" lon="6.799872592">
                <ele>356.000000</ele>
                <time>2012-07-14T12:50:46Z</time>
            </trkpt>
            <trkpt lat="47.447641036" lon="6.799782067">
                <ele>358.000000</ele>
                <time>2012-07-14T12:51:04Z</time>
            </trkpt>
            <trkpt lat="47.447137367" lon="6.799673103">
                <ele>361.000000</ele>
                <time>2012-07-14T12:51:23Z</time>
            </trkpt>
            <trkpt lat="47.446705280" lon="6.799603701">
                <ele>363.000000</ele>
                <time>2012-07-14T12:51:39Z</time>
            </trkpt>
            <trkpt lat="47.446352821" lon="6.799513763">
                <ele>364.000000</ele>
                <time>2012-07-14T12:51:53Z</time>
            </trkpt>
            <trkpt lat="47.446030704" lon="6.799411420">
                <ele>364.000000</ele>
                <time>2012-07-14T12:52:06Z</time>
            </trkpt>
            <trkpt lat="47.445527958" lon="6.799244117">
                <ele>367.000000</ele>
                <time>2012-07-14T12:52:26Z</time>
            </trkpt>
            <trkpt lat="47.445151024" lon="6.799146971">
                <ele>368.000000</ele>
                <time>2012-07-14T12:52:43Z</time>
            </trkpt>
            <trkpt lat="47.444871236" lon="6.799119227">
                <ele>370.000000</ele>
                <time>2012-07-14T12:52:59Z</time>
            </trkpt>
            <trkpt lat="47.444575103" lon="6.798988217">
                <ele>373.000000</ele>
                <time>2012-07-14T12:53:19Z</time>
            </trkpt>
            <trkpt lat="47.444291795" lon="6.798858382">
                <ele>375.000000</ele>
                <time>2012-07-14T12:53:38Z</time>
            </trkpt>
            <trkpt lat="47.444031118" lon="6.798747405">
                <ele>378.000000</ele>
                <time>2012-07-14T12:53:55Z</time>
            </trkpt>
            <trkpt lat="47.443934893" lon="6.798719075">
                <ele>378.000000</ele>
                <time>2012-07-14T12:54:01Z</time>
            </trkpt>
            <trkpt lat="47.443848476" lon="6.798580773">
                <ele>379.000000</ele>
                <time>2012-07-14T12:54:12Z</time>
            </trkpt>
            <trkpt lat="47.443901952" lon="6.798391007">
                <ele>380.000000</ele>
                <time>2012-07-14T12:54:26Z</time>
            </trkpt>
            <trkpt lat="47.443956435" lon="6.798182884">
                <ele>382.000000</ele>
                <time>2012-07-14T12:54:39Z</time>
            </trkpt>
            <trkpt lat="47.443998680" lon="6.797874430">
                <ele>384.000000</ele>
                <time>2012-07-14T12:54:54Z</time>
            </trkpt>
            <trkpt lat="47.443983341" lon="6.797813661">
                <ele>384.000000</ele>
                <time>2012-07-14T12:54:58Z</time>
            </trkpt>
            <trkpt lat="47.443890721" lon="6.797804022">
                <ele>387.000000</ele>
                <time>2012-07-14T12:55:12Z</time>
            </trkpt>
            <trkpt lat="47.443789802" lon="6.797891948">
                <ele>389.000000</ele>
                <time>2012-07-14T12:55:26Z</time>
            </trkpt>
            <trkpt lat="47.443710677" lon="6.797961015">
                <ele>391.000000</ele>
                <time>2012-07-14T12:55:42Z</time>
            </trkpt>
            <trkpt lat="47.443599366" lon="6.798067130">
                <ele>393.000000</ele>
                <time>2012-07-14T12:55:56Z</time>
            </trkpt>
            <trkpt lat="47.443467015" lon="6.798220687">
                <ele>395.000000</ele>
                <time>2012-07-14T12:56:10Z</time>
            </trkpt>
            <trkpt lat="47.443411443" lon="6.798303584">
                <ele>397.000000</ele>
                <time>2012-07-14T12:56:24Z</time>
            </trkpt>
            <trkpt lat="47.443375569" lon="6.798356892">
                <ele>399.000000</ele>
                <time>2012-07-14T12:56:38Z</time>
            </trkpt>
            <trkpt lat="47.443329468" lon="6.798419924">
                <ele>401.000000</ele>
                <time>2012-07-14T12:56:53Z</time>
            </trkpt>
            <trkpt lat="47.443280267" lon="6.798492009">
                <ele>403.000000</ele>
                <time>2012-07-14T12:57:10Z</time>
            </trkpt>
            <trkpt lat="47.443231484" lon="6.798549090">
                <ele>405.000000</ele>
                <time>2012-07-14T12:57:24Z</time>
            </trkpt>
            <trkpt lat="47.443189323" lon="6.798592089">
                <ele>407.000000</ele>
                <time>2012-07-14T12:57:39Z</time>
            </trkpt>
            <trkpt lat="47.443139199" lon="6.798630729">
                <ele>409.000000</ele>
                <time>2012-07-14T12:57:55Z</time>
            </trkpt>
            <trkpt lat="47.443089997" lon="6.798665933">
                <ele>410.000000</ele>
                <time>2012-07-14T12:58:18Z</time>
            </trkpt>
            <trkpt lat="47.443051524" lon="6.798697868">
                <ele>412.000000</ele>
                <time>2012-07-14T12:58:34Z</time>
            </trkpt>
            <trkpt lat="47.442994863" lon="6.798739862">
                <ele>414.000000</ele>
                <time>2012-07-14T12:58:51Z</time>
            </trkpt>
            <trkpt lat="47.442932753" lon="6.798780514">
                <ele>416.000000</ele>
                <time>2012-07-14T12:59:07Z</time>
            </trkpt>
            <trkpt lat="47.442784309" lon="6.798900375">
                <ele>417.000000</ele>
                <time>2012-07-14T12:59:21Z</time>
            </trkpt>
            <trkpt lat="47.442731168" lon="6.798946811">
                <ele>418.000000</ele>
                <time>2012-07-14T12:59:24Z</time>
            </trkpt>
            <trkpt lat="47.442456493" lon="6.799146636">
                <ele>420.000000</ele>
                <time>2012-07-14T12:59:37Z</time>
            </trkpt>
            <trkpt lat="47.442334872" lon="6.799229449">
                <ele>421.000000</ele>
                <time>2012-07-14T12:59:43Z</time>
            </trkpt>
            <trkpt lat="47.442214508" lon="6.799232801">
                <ele>422.000000</ele>
                <time>2012-07-14T12:59:50Z</time>
            </trkpt>
            <trkpt lat="47.442017281" lon="6.799027864">
                <ele>425.000000</ele>
                <time>2012-07-14T13:00:07Z</time>
            </trkpt>
            <trkpt lat="47.442023233" lon="6.798808929">
                <ele>426.000000</ele>
                <time>2012-07-14T13:00:20Z</time>
            </trkpt>
            <trkpt lat="47.442025999" lon="6.798573565">
                <ele>427.000000</ele>
                <time>2012-07-14T13:00:35Z</time>
            </trkpt>
            <trkpt lat="47.442019880" lon="6.798557304">
                <ele>427.000000</ele>
                <time>2012-07-14T13:00:36Z</time>
            </trkpt>
            <trkpt lat="47.441963470" lon="6.798220938">
                <ele>430.000000</ele>
                <time>2012-07-14T13:00:54Z</time>
            </trkpt>
            <trkpt lat="47.441964643" lon="6.798119601">
                <ele>430.000000</ele>
                <time>2012-07-14T13:00:59Z</time>
            </trkpt>
            <trkpt lat="47.441968499" lon="6.798028490">
                <ele>431.000000</ele>
                <time>2012-07-14T13:01:04Z</time>
            </trkpt>
            <trkpt lat="47.441957099" lon="6.797729256">
                <ele>433.000000</ele>
                <time>2012-07-14T13:01:20Z</time>
            </trkpt>
            <trkpt lat="47.441945281" lon="6.797433542">
                <ele>435.000000</ele>
                <time>2012-07-14T13:01:33Z</time>
            </trkpt>
            <trkpt lat="47.441977384" lon="6.797038671">
                <ele>436.000000</ele>
                <time>2012-07-14T13:01:46Z</time>
            </trkpt>
            <trkpt lat="47.441918878" lon="6.796647320">
                <ele>437.000000</ele>
                <time>2012-07-14T13:01:58Z</time>
            </trkpt>
            <trkpt lat="47.441865569" lon="6.796614463">
                <ele>437.000000</ele>
                <time>2012-07-14T13:02:02Z</time>
            </trkpt>
            <trkpt lat="47.441706900" lon="6.796520669">
                <ele>439.000000</ele>
                <time>2012-07-14T13:02:14Z</time>
            </trkpt>
            <trkpt lat="47.441663649" lon="6.796475491">
                <ele>440.000000</ele>
                <time>2012-07-14T13:02:28Z</time>
            </trkpt>
            <trkpt lat="47.441650154" lon="6.796472138">
                <ele>441.000000</ele>
                <time>2012-07-14T13:02:46Z</time>
            </trkpt>
            <trkpt lat="47.441556863" lon="6.796320677">
                <ele>441.000000</ele>
                <time>2012-07-14T13:02:56Z</time>
            </trkpt>
            <trkpt lat="47.441482432" lon="6.796258651">
                <ele>442.000000</ele>
                <time>2012-07-14T13:03:01Z</time>
            </trkpt>
            <trkpt lat="47.441376569" lon="6.796207856">
                <ele>442.000000</ele>
                <time>2012-07-14T13:03:06Z</time>
            </trkpt>
            <trkpt lat="47.441110779" lon="6.796098305">
                <ele>443.000000</ele>
                <time>2012-07-14T13:03:21Z</time>
            </trkpt>
            <trkpt lat="47.440914223" lon="6.796009121">
                <ele>444.000000</ele>
                <time>2012-07-14T13:03:33Z</time>
            </trkpt>
            <trkpt lat="47.440716075" lon="6.795896720">
                <ele>445.000000</ele>
                <time>2012-07-14T13:03:45Z</time>
            </trkpt>
            <trkpt lat="47.440476436" lon="6.795759005">
                <ele>447.000000</ele>
                <time>2012-07-14T13:04:00Z</time>
            </trkpt>
            <trkpt lat="47.440287424" lon="6.795736039">
                <ele>449.000000</ele>
                <time>2012-07-14T13:04:13Z</time>
            </trkpt>
            <trkpt lat="47.440272169" lon="6.795730926">
                <ele>449.000000</ele>
                <time>2012-07-14T13:04:14Z</time>
            </trkpt>
            <trkpt lat="47.440224895" lon="6.795714246">
                <ele>449.000000</ele>
                <time>2012-07-14T13:04:18Z</time>
            </trkpt>
            <trkpt lat="47.440100675" lon="6.795689184">
                <ele>450.000000</ele>
                <time>2012-07-14T13:04:28Z</time>
            </trkpt>
            <trkpt lat="47.439872352" lon="6.795767639">
                <ele>451.000000</ele>
                <time>2012-07-14T13:04:42Z</time>
            </trkpt>
            <trkpt lat="47.439624416" lon="6.795913568">
                <ele>453.000000</ele>
                <time>2012-07-14T13:04:57Z</time>
            </trkpt>
            <trkpt lat="47.439586949" lon="6.795924883">
                <ele>453.000000</ele>
                <time>2012-07-14T13:05:00Z</time>
            </trkpt>
            <trkpt lat="47.439350914" lon="6.795858331">
                <ele>455.000000</ele>
                <time>2012-07-14T13:05:15Z</time>
            </trkpt>
            <trkpt lat="47.439148407" lon="6.795717096">
                <ele>456.000000</ele>
                <time>2012-07-14T13:05:28Z</time>
            </trkpt>
            <trkpt lat="47.438977249" lon="6.795555325">
                <ele>457.000000</ele>
                <time>2012-07-14T13:05:41Z</time>
            </trkpt>
            <trkpt lat="47.438795697" lon="6.795483409">
                <ele>457.000000</ele>
                <time>2012-07-14T13:05:49Z</time>
            </trkpt>
            <trkpt lat="47.438513059" lon="6.795551218">
                <ele>458.000000</ele>
                <time>2012-07-14T13:06:05Z</time>
            </trkpt>
            <trkpt lat="47.438225057" lon="6.795619028">
                <ele>461.000000</ele>
                <time>2012-07-14T13:06:24Z</time>
            </trkpt>
            <trkpt lat="47.438170994" lon="6.795628415">
                <ele>461.000000</ele>
                <time>2012-07-14T13:06:28Z</time>
            </trkpt>
            <trkpt lat="47.438118355" lon="6.795603018">
                <ele>462.000000</ele>
                <time>2012-07-14T13:06:32Z</time>
            </trkpt>
            <trkpt lat="47.438080888" lon="6.795568401">
                <ele>462.000000</ele>
                <time>2012-07-14T13:06:35Z</time>
            </trkpt>
            <trkpt lat="47.438054066" lon="6.795493299">
                <ele>462.000000</ele>
                <time>2012-07-14T13:06:39Z</time>
            </trkpt>
            <trkpt lat="47.438013749" lon="6.795037994">
                <ele>463.000000</ele>
                <time>2012-07-14T13:06:52Z</time>
            </trkpt>
            <trkpt lat="47.438032106" lon="6.794818305">
                <ele>463.000000</ele>
                <time>2012-07-14T13:06:58Z</time>
            </trkpt>
            <trkpt lat="47.438005786" lon="6.794488141">
                <ele>463.000000</ele>
                <time>2012-07-14T13:07:11Z</time>
            </trkpt>
            <trkpt lat="47.437972678" lon="6.794304829">
                <ele>463.000000</ele>
                <time>2012-07-14T13:07:18Z</time>
            </trkpt>
            <trkpt lat="47.437951891" lon="6.794244312">
                <ele>463.000000</ele>
                <time>2012-07-14T13:07:21Z</time>
            </trkpt>
            <trkpt lat="47.437897325" lon="6.794181196">
                <ele>464.000000</ele>
                <time>2012-07-14T13:07:28Z</time>
            </trkpt>
            <trkpt lat="47.437841417" lon="6.794147668">
                <ele>464.000000</ele>
                <time>2012-07-14T13:07:36Z</time>
            </trkpt>
            <trkpt lat="47.437799256" lon="6.794165103">
                <ele>464.000000</ele>
                <time>2012-07-14T13:07:39Z</time>
            </trkpt>
            <trkpt lat="47.437664224" lon="6.794182705">
                <ele>465.000000</ele>
                <time>2012-07-14T13:07:43Z</time>
            </trkpt>
            <trkpt lat="47.437548721" lon="6.794220088">
                <ele>465.000000</ele>
                <time>2012-07-14T13:07:48Z</time>
            </trkpt>
            <trkpt lat="47.437333390" lon="6.794216065">
                <ele>466.000000</ele>
                <time>2012-07-14T13:07:59Z</time>
            </trkpt>
            <trkpt lat="47.437296426" lon="6.794240540">
                <ele>466.000000</ele>
                <time>2012-07-14T13:08:02Z</time>
            </trkpt>
            <trkpt lat="47.437166423" lon="6.794351600">
                <ele>467.000000</ele>
                <time>2012-07-14T13:08:11Z</time>
            </trkpt>
            <trkpt lat="47.437041365" lon="6.794392252">
                <ele>467.000000</ele>
                <time>2012-07-14T13:08:16Z</time>
            </trkpt>
            <trkpt lat="47.437014291" lon="6.794406250">
                <ele>467.000000</ele>
                <time>2012-07-14T13:08:18Z</time>
            </trkpt>
            <trkpt lat="47.436778005" lon="6.794452183">
                <ele>467.000000</ele>
                <time>2012-07-14T13:08:30Z</time>
            </trkpt>
            <trkpt lat="47.436526716" lon="6.794459308">
                <ele>469.000000</ele>
                <time>2012-07-14T13:08:41Z</time>
            </trkpt>
            <trkpt lat="47.436477262" lon="6.794458721">
                <ele>468.000000</ele>
                <time>2012-07-14T13:08:42Z</time>
            </trkpt>
            <trkpt lat="47.436229242" lon="6.794399461">
                <ele>469.000000</ele>
                <time>2012-07-14T13:08:54Z</time>
            </trkpt>
            <trkpt lat="47.436168473" lon="6.794389151">
                <ele>469.000000</ele>
                <time>2012-07-14T13:08:57Z</time>
            </trkpt>
            <trkpt lat="47.436003434" lon="6.794413123">
                <ele>469.000000</ele>
                <time>2012-07-14T13:09:05Z</time>
            </trkpt>
            <trkpt lat="47.435850464" lon="6.794421924">
                <ele>469.000000</ele>
                <time>2012-07-14T13:09:10Z</time>
            </trkpt>
            <trkpt lat="47.435521893" lon="6.794574643">
                <ele>470.000000</ele>
                <time>2012-07-14T13:09:22Z</time>
            </trkpt>
            <trkpt lat="47.435385352" lon="6.794656366">
                <ele>470.000000</ele>
                <time>2012-07-14T13:09:27Z</time>
            </trkpt>
            <trkpt lat="47.435233723" lon="6.794704562">
                <ele>470.000000</ele>
                <time>2012-07-14T13:09:32Z</time>
            </trkpt>
            <trkpt lat="47.435122998" lon="6.794727193">
                <ele>470.000000</ele>
                <time>2012-07-14T13:09:36Z</time>
            </trkpt>
            <trkpt lat="47.434953684" lon="6.794830626">
                <ele>470.000000</ele>
                <time>2012-07-14T13:09:43Z</time>
            </trkpt>
            <trkpt lat="47.434889982" lon="6.794856275">
                <ele>470.000000</ele>
                <time>2012-07-14T13:09:45Z</time>
            </trkpt>
            <trkpt lat="47.434701389" lon="6.794979991">
                <ele>470.000000</ele>
                <time>2012-07-14T13:09:52Z</time>
            </trkpt>
            <trkpt lat="47.434622431" lon="6.795077054">
                <ele>469.000000</ele>
                <time>2012-07-14T13:09:55Z</time>
            </trkpt>
            <trkpt lat="47.434481280" lon="6.795159448">
                <ele>469.000000</ele>
                <time>2012-07-14T13:10:01Z</time>
            </trkpt>
            <trkpt lat="47.434400814" lon="6.795202112">
                <ele>468.000000</ele>
                <time>2012-07-14T13:10:06Z</time>
            </trkpt>
            <trkpt lat="47.434240552" lon="6.795282662">
                <ele>468.000000</ele>
                <time>2012-07-14T13:10:14Z</time>
            </trkpt>
            <trkpt lat="47.433979623" lon="6.795255840">
                <ele>470.000000</ele>
                <time>2012-07-14T13:10:30Z</time>
            </trkpt>
            <trkpt lat="47.433941821" lon="6.795238322">
                <ele>470.000000</ele>
                <time>2012-07-14T13:10:44Z</time>
            </trkpt>
            <trkpt lat="47.433925560" lon="6.795232287">
                <ele>470.000000</ele>
                <time>2012-07-14T13:11:03Z</time>
            </trkpt>
            <trkpt lat="47.433924470" lon="6.795264641">
                <ele>470.000000</ele>
                <time>2012-07-14T13:11:11Z</time>
            </trkpt>
            <trkpt lat="47.433804190" lon="6.795331528">
                <ele>471.000000</ele>
                <time>2012-07-14T13:11:20Z</time>
            </trkpt>
            <trkpt lat="47.433740906" lon="6.795368241">
                <ele>471.000000</ele>
                <time>2012-07-14T13:11:24Z</time>
            </trkpt>
            <trkpt lat="47.433669157" lon="6.795368996">
                <ele>472.000000</ele>
                <time>2012-07-14T13:11:28Z</time>
            </trkpt>
            <trkpt lat="47.433569329" lon="6.795431692">
                <ele>473.000000</ele>
                <time>2012-07-14T13:11:35Z</time>
            </trkpt>
            <trkpt lat="47.433332372" lon="6.795495562">
                <ele>475.000000</ele>
                <time>2012-07-14T13:11:48Z</time>
            </trkpt>
            <trkpt lat="47.433144031" lon="6.795612825">
                <ele>476.000000</ele>
                <time>2012-07-14T13:11:58Z</time>
            </trkpt>
            <trkpt lat="47.432952253" lon="6.795659764">
                <ele>477.000000</ele>
                <time>2012-07-14T13:12:08Z</time>
            </trkpt>
            <trkpt lat="47.432643715" lon="6.795652974">
                <ele>477.000000</ele>
                <time>2012-07-14T13:12:21Z</time>
            </trkpt>
            <trkpt lat="47.432602057" lon="6.795652052">
                <ele>477.000000</ele>
                <time>2012-07-14T13:12:24Z</time>
            </trkpt>
            <trkpt lat="47.432459481" lon="6.795718186">
                <ele>477.000000</ele>
                <time>2012-07-14T13:12:31Z</time>
            </trkpt>
            <trkpt lat="47.432127222" lon="6.795624141">
                <ele>477.000000</ele>
                <time>2012-07-14T13:12:45Z</time>
            </trkpt>
            <trkpt lat="47.431979785" lon="6.795659512">
                <ele>478.000000</ele>
                <time>2012-07-14T13:12:52Z</time>
            </trkpt>
            <trkpt lat="47.431741236" lon="6.795696896">
                <ele>479.000000</ele>
                <time>2012-07-14T13:13:03Z</time>
            </trkpt>
            <trkpt lat="47.431712905" lon="6.795737632">
                <ele>479.000000</ele>
                <time>2012-07-14T13:13:06Z</time>
            </trkpt>
            <trkpt lat="47.431646017" lon="6.795885321">
                <ele>480.000000</ele>
                <time>2012-07-14T13:13:14Z</time>
            </trkpt>
            <trkpt lat="47.431611149" lon="6.795977186">
                <ele>481.000000</ele>
                <time>2012-07-14T13:13:19Z</time>
            </trkpt>
            <trkpt lat="47.431447450" lon="6.796062095">
                <ele>484.000000</ele>
                <time>2012-07-14T13:13:31Z</time>
            </trkpt>
            <trkpt lat="47.431299509" lon="6.796001829">
                <ele>484.000000</ele>
                <time>2012-07-14T13:13:40Z</time>
            </trkpt>
            <trkpt lat="47.431265060" lon="6.795906276">
                <ele>485.000000</ele>
                <time>2012-07-14T13:13:45Z</time>
            </trkpt>
            <trkpt lat="47.431189204" lon="6.795839053">
                <ele>486.000000</ele>
                <time>2012-07-14T13:13:57Z</time>
            </trkpt>
            <trkpt lat="47.431187527" lon="6.795849698">
                <ele>486.000000</ele>
                <time>2012-07-14T13:14:15Z</time>
            </trkpt>
            <trkpt lat="47.431175290" lon="6.795867886">
                <ele>486.000000</ele>
                <time>2012-07-14T13:14:48Z</time>
            </trkpt>
            <trkpt lat="47.431172691" lon="6.795886830">
                <ele>486.000000</ele>
                <time>2012-07-14T13:15:22Z</time>
            </trkpt>
            <trkpt lat="47.431169590" lon="6.795910215">
                <ele>486.000000</ele>
                <time>2012-07-14T13:15:56Z</time>
            </trkpt>
            <trkpt lat="47.431172524" lon="6.795921782">
                <ele>486.000000</ele>
                <time>2012-07-14T13:16:32Z</time>
            </trkpt>
            <trkpt lat="47.431164561" lon="6.795920776">
                <ele>486.000000</ele>
                <time>2012-07-14T13:17:02Z</time>
            </trkpt>
            <trkpt lat="47.431163387" lon="6.795916082">
                <ele>486.000000</ele>
                <time>2012-07-14T13:17:31Z</time>
            </trkpt>
            <trkpt lat="47.431149306" lon="6.795910886">
                <ele>487.000000</ele>
                <time>2012-07-14T13:17:49Z</time>
            </trkpt>
            <trkpt lat="47.431146959" lon="6.795895798">
                <ele>488.000000</ele>
                <time>2012-07-14T13:18:11Z</time>
            </trkpt>
            <trkpt lat="47.431137990" lon="6.795897726">
                <ele>488.000000</ele>
                <time>2012-07-14T13:18:12Z</time>
            </trkpt>
            <trkpt lat="47.430841355" lon="6.795925051">
                <ele>488.000000</ele>
                <time>2012-07-14T13:18:27Z</time>
            </trkpt>
            <trkpt lat="47.430825094" lon="6.795931840">
                <ele>488.000000</ele>
                <time>2012-07-14T13:18:28Z</time>
            </trkpt>
            <trkpt lat="47.430508090" lon="6.795897810">
                <ele>488.000000</ele>
                <time>2012-07-14T13:18:40Z</time>
            </trkpt>
            <trkpt lat="47.430288149" lon="6.795813823">
                <ele>488.000000</ele>
                <time>2012-07-14T13:18:52Z</time>
            </trkpt>
            <trkpt lat="47.430163175" lon="6.795829916">
                <ele>489.000000</ele>
                <time>2012-07-14T13:19:00Z</time>
            </trkpt>
            <trkpt lat="47.429879950" lon="6.795925135">
                <ele>489.000000</ele>
                <time>2012-07-14T13:19:12Z</time>
            </trkpt>
            <trkpt lat="47.429609466" lon="6.795894708">
                <ele>489.000000</ele>
                <time>2012-07-14T13:19:20Z</time>
            </trkpt>
            <trkpt lat="47.429495473" lon="6.795928907">
                <ele>488.000000</ele>
                <time>2012-07-14T13:19:23Z</time>
            </trkpt>
            <trkpt lat="47.429311657" lon="6.795865372">
                <ele>488.000000</ele>
                <time>2012-07-14T13:19:29Z</time>
            </trkpt>
            <trkpt lat="47.429014603" lon="6.795809548">
                <ele>486.000000</ele>
                <time>2012-07-14T13:19:36Z</time>
            </trkpt>
            <trkpt lat="47.428760296" lon="6.795755150">
                <ele>483.000000</ele>
                <time>2012-07-14T13:19:41Z</time>
            </trkpt>
            <trkpt lat="47.428656779" lon="6.795741236">
                <ele>482.000000</ele>
                <time>2012-07-14T13:19:43Z</time>
            </trkpt>
            <trkpt lat="47.428239779" lon="6.795757581">
                <ele>483.000000</ele>
                <time>2012-07-14T13:19:54Z</time>
            </trkpt>
            <trkpt lat="47.428215053" lon="6.795755317">
                <ele>483.000000</ele>
                <time>2012-07-14T13:19:55Z</time>
            </trkpt>
            <trkpt lat="47.427962339" lon="6.795728663">
                <ele>484.000000</ele>
                <time>2012-07-14T13:20:06Z</time>
            </trkpt>
            <trkpt lat="47.427871060" lon="6.795707792">
                <ele>484.000000</ele>
                <time>2012-07-14T13:20:10Z</time>
            </trkpt>
            <trkpt lat="47.427816577" lon="6.795704272">
                <ele>485.000000</ele>
                <time>2012-07-14T13:20:13Z</time>
            </trkpt>
            <trkpt lat="47.427489683" lon="6.795640569">
                <ele>486.000000</ele>
                <time>2012-07-14T13:20:26Z</time>
            </trkpt>
            <trkpt lat="47.427102607" lon="6.795583991">
                <ele>486.000000</ele>
                <time>2012-07-14T13:20:36Z</time>
            </trkpt>
            <trkpt lat="47.426748052" lon="6.795496987">
                <ele>486.000000</ele>
                <time>2012-07-14T13:20:46Z</time>
            </trkpt>
            <trkpt lat="47.426708154" lon="6.795487599">
                <ele>486.000000</ele>
                <time>2012-07-14T13:20:47Z</time>
            </trkpt>
            <trkpt lat="47.426392995" lon="6.795433955">
                <ele>486.000000</ele>
                <time>2012-07-14T13:20:56Z</time>
            </trkpt>
            <trkpt lat="47.426195517" lon="6.795389196">
                <ele>484.000000</ele>
                <time>2012-07-14T13:21:02Z</time>
            </trkpt>
            <trkpt lat="47.426134748" lon="6.795362039">
                <ele>484.000000</ele>
                <time>2012-07-14T13:21:06Z</time>
            </trkpt>
            <trkpt lat="47.426086469" lon="6.795372684">
                <ele>484.000000</ele>
                <time>2012-07-14T13:21:09Z</time>
            </trkpt>
            <trkpt lat="47.426043302" lon="6.795392465">
                <ele>484.000000</ele>
                <time>2012-07-14T13:21:12Z</time>
            </trkpt>
            <trkpt lat="47.425926709" lon="6.795394812">
                <ele>484.000000</ele>
                <time>2012-07-14T13:21:26Z</time>
            </trkpt>
            <trkpt lat="47.425911203" lon="6.795379389">
                <ele>484.000000</ele>
                <time>2012-07-14T13:21:44Z</time>
            </trkpt>
            <trkpt lat="47.425695034" lon="6.795406798">
                <ele>484.000000</ele>
                <time>2012-07-14T13:21:54Z</time>
            </trkpt>
            <trkpt lat="47.425294882" lon="6.795439403">
                <ele>484.000000</ele>
                <time>2012-07-14T13:22:06Z</time>
            </trkpt>
            <trkpt lat="47.424929934" lon="6.795394476">
                <ele>484.000000</ele>
                <time>2012-07-14T13:22:15Z</time>
            </trkpt>
            <trkpt lat="47.424733797" lon="6.795321973">
                <ele>484.000000</ele>
                <time>2012-07-14T13:22:20Z</time>
            </trkpt>
            <trkpt lat="47.424600190" lon="6.795283333">
                <ele>483.000000</ele>
                <time>2012-07-14T13:22:23Z</time>
            </trkpt>
            <trkpt lat="47.424173886" lon="6.795176966">
                <ele>481.000000</ele>
                <time>2012-07-14T13:22:35Z</time>
            </trkpt>
            <trkpt lat="47.423830731" lon="6.795099517">
                <ele>480.000000</ele>
                <time>2012-07-14T13:22:48Z</time>
            </trkpt>
            <trkpt lat="47.423669547" lon="6.795091052">
                <ele>479.000000</ele>
                <time>2012-07-14T13:22:57Z</time>
            </trkpt>
            <trkpt lat="47.423361847" lon="6.795062469">
                <ele>479.000000</ele>
                <time>2012-07-14T13:23:05Z</time>
            </trkpt>
            <trkpt lat="47.422698000" lon="6.794863651">
                <ele>476.000000</ele>
                <time>2012-07-14T13:23:20Z</time>
            </trkpt>
            <trkpt lat="47.422507564" lon="6.794844791">
                <ele>476.000000</ele>
                <time>2012-07-14T13:23:25Z</time>
            </trkpt>
            <trkpt lat="47.422418213" lon="6.794832889">
                <ele>476.000000</ele>
                <time>2012-07-14T13:23:27Z</time>
            </trkpt>
            <trkpt lat="47.422066005" lon="6.794758458">
                <ele>475.000000</ele>
                <time>2012-07-14T13:23:37Z</time>
            </trkpt>
            <trkpt lat="47.421770878" lon="6.794726439">
                <ele>475.000000</ele>
                <time>2012-07-14T13:23:49Z</time>
            </trkpt>
            <trkpt lat="47.421572730" lon="6.794701545">
                <ele>476.000000</ele>
                <time>2012-07-14T13:24:01Z</time>
            </trkpt>
            <trkpt lat="47.421328900" lon="6.794686625">
                <ele>478.000000</ele>
                <time>2012-07-14T13:24:13Z</time>
            </trkpt>
            <trkpt lat="47.421101080" lon="6.794697270">
                <ele>479.000000</ele>
                <time>2012-07-14T13:24:25Z</time>
            </trkpt>
            <trkpt lat="47.420895891" lon="6.794753428">
                <ele>481.000000</ele>
                <time>2012-07-14T13:24:39Z</time>
            </trkpt>
            <trkpt lat="47.420661952" lon="6.794819143">
                <ele>483.000000</ele>
                <time>2012-07-14T13:24:55Z</time>
            </trkpt>
            <trkpt lat="47.420575870" lon="6.794841941">
                <ele>484.000000</ele>
                <time>2012-07-14T13:25:02Z</time>
            </trkpt>
            <trkpt lat="47.420519544" lon="6.794851748">
                <ele>484.000000</ele>
                <time>2012-07-14T13:25:06Z</time>
            </trkpt>
            <trkpt lat="47.420458440" lon="6.794886449">
                <ele>485.000000</ele>
                <time>2012-07-14T13:25:10Z</time>
            </trkpt>
            <trkpt lat="47.420381159" lon="6.794871613">
                <ele>485.000000</ele>
                <time>2012-07-14T13:25:18Z</time>
            </trkpt>
            <trkpt lat="47.420141520" lon="6.794903632">
                <ele>486.000000</ele>
                <time>2012-07-14T13:25:30Z</time>
            </trkpt>
            <trkpt lat="47.420059377" lon="6.794899190">
                <ele>486.000000</ele>
                <time>2012-07-14T13:25:34Z</time>
            </trkpt>
            <trkpt lat="47.419954017" lon="6.794976471">
                <ele>486.000000</ele>
                <time>2012-07-14T13:25:40Z</time>
            </trkpt>
            <trkpt lat="47.419804568" lon="6.795134721">
                <ele>487.000000</ele>
                <time>2012-07-14T13:25:48Z</time>
            </trkpt>
            <trkpt lat="47.419600300" lon="6.795475278">
                <ele>487.000000</ele>
                <time>2012-07-14T13:26:01Z</time>
            </trkpt>
            <trkpt lat="47.419485468" lon="6.795719024">
                <ele>487.000000</ele>
                <time>2012-07-14T13:26:09Z</time>
            </trkpt>
            <trkpt lat="47.419325542" lon="6.796147339">
                <ele>487.000000</ele>
                <time>2012-07-14T13:26:21Z</time>
            </trkpt>
            <trkpt lat="47.419303497" lon="6.796190506">
                <ele>487.000000</ele>
                <time>2012-07-14T13:26:23Z</time>
            </trkpt>
            <trkpt lat="47.419280112" lon="6.796286898">
                <ele>487.000000</ele>
                <time>2012-07-14T13:26:27Z</time>
            </trkpt>
            <trkpt lat="47.419204759" lon="6.796675818">
                <ele>486.000000</ele>
                <time>2012-07-14T13:26:39Z</time>
            </trkpt>
            <trkpt lat="47.419146420" lon="6.797035066">
                <ele>486.000000</ele>
                <time>2012-07-14T13:26:48Z</time>
            </trkpt>
            <trkpt lat="47.419121107" lon="6.797460616">
                <ele>486.000000</ele>
                <time>2012-07-14T13:27:00Z</time>
            </trkpt>
            <trkpt lat="47.419076851" lon="6.797806537">
                <ele>485.000000</ele>
                <time>2012-07-14T13:27:12Z</time>
            </trkpt>
            <trkpt lat="47.419074336" lon="6.797835873">
                <ele>485.000000</ele>
                <time>2012-07-14T13:27:13Z</time>
            </trkpt>
            <trkpt lat="47.419058411" lon="6.797909299">
                <ele>485.000000</ele>
                <time>2012-07-14T13:27:16Z</time>
            </trkpt>
            <trkpt lat="47.419032678" lon="6.798265614">
                <ele>484.000000</ele>
                <time>2012-07-14T13:27:28Z</time>
            </trkpt>
            <trkpt lat="47.419007365" lon="6.798427720">
                <ele>483.000000</ele>
                <time>2012-07-14T13:27:33Z</time>
            </trkpt>
            <trkpt lat="47.419009544" lon="6.798536768">
                <ele>483.000000</ele>
                <time>2012-07-14T13:27:36Z</time>
            </trkpt>
            <trkpt lat="47.418996468" lon="6.798729636">
                <ele>483.000000</ele>
                <time>2012-07-14T13:27:41Z</time>
            </trkpt>
            <trkpt lat="47.418909632" lon="6.799288373">
                <ele>483.000000</ele>
                <time>2012-07-14T13:27:55Z</time>
            </trkpt>
            <trkpt lat="47.418720452" lon="6.799974265">
                <ele>481.000000</ele>
                <time>2012-07-14T13:28:08Z</time>
            </trkpt>
            <trkpt lat="47.418674100" lon="6.800081637">
                <ele>481.000000</ele>
                <time>2012-07-14T13:28:10Z</time>
            </trkpt>
            <trkpt lat="47.418485675" lon="6.800316665">
                <ele>480.000000</ele>
                <time>2012-07-14T13:28:18Z</time>
            </trkpt>
            <trkpt lat="47.418341758" lon="6.800499810">
                <ele>479.000000</ele>
                <time>2012-07-14T13:28:30Z</time>
            </trkpt>
            <trkpt lat="47.418326503" lon="6.800519172">
                <ele>479.000000</ele>
                <time>2012-07-14T13:28:32Z</time>
            </trkpt>
            <trkpt lat="47.418297501" lon="6.800535684">
                <ele>479.000000</ele>
                <time>2012-07-14T13:28:35Z</time>
            </trkpt>
            <trkpt lat="47.418213431" lon="6.800546246">
                <ele>479.000000</ele>
                <time>2012-07-14T13:28:42Z</time>
            </trkpt>
            <trkpt lat="47.418065658" lon="6.800463935">
                <ele>482.000000</ele>
                <time>2012-07-14T13:28:57Z</time>
            </trkpt>
            <trkpt lat="47.418059874" lon="6.800450441">
                <ele>482.000000</ele>
                <time>2012-07-14T13:28:58Z</time>
            </trkpt>
            <trkpt lat="47.417985946" lon="6.800378775">
                <ele>482.000000</ele>
                <time>2012-07-14T13:29:04Z</time>
            </trkpt>
            <trkpt lat="47.417791318" lon="6.800423451">
                <ele>484.000000</ele>
                <time>2012-07-14T13:29:18Z</time>
            </trkpt>
            <trkpt lat="47.417612616" lon="6.800478436">
                <ele>487.000000</ele>
                <time>2012-07-14T13:29:34Z</time>
            </trkpt>
            <trkpt lat="47.417458976" lon="6.800486315">
                <ele>490.000000</ele>
                <time>2012-07-14T13:29:49Z</time>
            </trkpt>
            <trkpt lat="47.417294607" lon="6.800499475">
                <ele>493.000000</ele>
                <time>2012-07-14T13:30:04Z</time>
            </trkpt>
            <trkpt lat="47.417110372" lon="6.800466701">
                <ele>495.000000</ele>
                <time>2012-07-14T13:30:21Z</time>
            </trkpt>
            <trkpt lat="47.416956816" lon="6.800403921">
                <ele>497.000000</ele>
                <time>2012-07-14T13:30:36Z</time>
            </trkpt>
            <trkpt lat="47.416884731" lon="6.800379949">
                <ele>498.000000</ele>
                <time>2012-07-14T13:30:50Z</time>
            </trkpt>
            <trkpt lat="47.416878026" lon="6.800376596">
                <ele>498.000000</ele>
                <time>2012-07-14T13:31:12Z</time>
            </trkpt>
            <trkpt lat="47.416879702" lon="6.800379781">
                <ele>498.000000</ele>
                <time>2012-07-14T13:31:40Z</time>
            </trkpt>
            <trkpt lat="47.416878948" lon="6.800384726">
                <ele>498.000000</ele>
                <time>2012-07-14T13:31:55Z</time>
            </trkpt>
            <trkpt lat="47.416661019" lon="6.800083648">
                <ele>498.000000</ele>
                <time>2012-07-14T13:32:08Z</time>
            </trkpt>
            <trkpt lat="47.416400509" lon="6.799733285">
                <ele>498.000000</ele>
                <time>2012-07-14T13:32:21Z</time>
            </trkpt>
            <trkpt lat="47.416162630" lon="6.799382670">
                <ele>497.000000</ele>
                <time>2012-07-14T13:32:32Z</time>
            </trkpt>
            <trkpt lat="47.415822074" lon="6.798812198">
                <ele>493.000000</ele>
                <time>2012-07-14T13:32:43Z</time>
            </trkpt>
            <trkpt lat="47.415749403" lon="6.798692085">
                <ele>491.000000</ele>
                <time>2012-07-14T13:32:45Z</time>
            </trkpt>
            <trkpt lat="47.415661225" lon="6.798661658">
                <ele>488.000000</ele>
                <time>2012-07-14T13:32:49Z</time>
            </trkpt>
            <trkpt lat="47.415617807" lon="6.798681608">
                <ele>488.000000</ele>
                <time>2012-07-14T13:32:53Z</time>
            </trkpt>
            <trkpt lat="47.415562403" lon="6.798659982">
                <ele>493.000000</ele>
                <time>2012-07-14T13:32:57Z</time>
            </trkpt>
            <trkpt lat="47.415297199" lon="6.798555795">
                <ele>494.000000</ele>
                <time>2012-07-14T13:33:10Z</time>
            </trkpt>
            <trkpt lat="47.415050771" lon="6.798468539">
                <ele>494.000000</ele>
                <time>2012-07-14T13:33:25Z</time>
            </trkpt>
            <trkpt lat="47.414749274" lon="6.798308613">
                <ele>494.000000</ele>
                <time>2012-07-14T13:33:37Z</time>
            </trkpt>
            <trkpt lat="47.414459847" lon="6.798202666">
                <ele>496.000000</ele>
                <time>2012-07-14T13:33:54Z</time>
            </trkpt>
            <trkpt lat="47.414210066" lon="6.798112309">
                <ele>499.000000</ele>
                <time>2012-07-14T13:34:11Z</time>
            </trkpt>
            <trkpt lat="47.413972775" lon="6.797982557">
                <ele>502.000000</ele>
                <time>2012-07-14T13:34:28Z</time>
            </trkpt>
            <trkpt lat="47.413898595" lon="6.797940815">
                <ele>502.000000</ele>
                <time>2012-07-14T13:34:34Z</time>
            </trkpt>
            <trkpt lat="47.413867330" lon="6.797947018">
                <ele>503.000000</ele>
                <time>2012-07-14T13:34:38Z</time>
            </trkpt>
            <trkpt lat="47.413687874" lon="6.797747612">
                <ele>504.000000</ele>
                <time>2012-07-14T13:34:53Z</time>
            </trkpt>
            <trkpt lat="47.413530294" lon="6.797620207">
                <ele>505.000000</ele>
                <time>2012-07-14T13:35:06Z</time>
            </trkpt>
            <trkpt lat="47.413292415" lon="6.797370762">
                <ele>506.000000</ele>
                <time>2012-07-14T13:35:22Z</time>
            </trkpt>
            <trkpt lat="47.413021848" lon="6.797194742">
                <ele>506.000000</ele>
                <time>2012-07-14T13:35:35Z</time>
            </trkpt>
            <trkpt lat="47.412906680" lon="6.797214858">
                <ele>506.000000</ele>
                <time>2012-07-14T13:35:45Z</time>
            </trkpt>
            <trkpt lat="47.412884636" lon="6.797233969">
                <ele>506.000000</ele>
                <time>2012-07-14T13:36:02Z</time>
            </trkpt>
            <trkpt lat="47.412836356" lon="6.797288032">
                <ele>506.000000</ele>
                <time>2012-07-14T13:36:16Z</time>
            </trkpt>
            <trkpt lat="47.412678609" lon="6.797302868">
                <ele>506.000000</ele>
                <time>2012-07-14T13:36:27Z</time>
            </trkpt>
            <trkpt lat="47.412293795" lon="6.797484923">
                <ele>505.000000</ele>
                <time>2012-07-14T13:36:38Z</time>
            </trkpt>
            <trkpt lat="47.412056085" lon="6.797735291">
                <ele>505.000000</ele>
                <time>2012-07-14T13:36:49Z</time>
            </trkpt>
            <trkpt lat="47.411999507" lon="6.797803184">
                <ele>505.000000</ele>
                <time>2012-07-14T13:36:53Z</time>
            </trkpt>
            <trkpt lat="47.411921471" lon="6.797856912">
                <ele>507.000000</ele>
                <time>2012-07-14T13:36:58Z</time>
            </trkpt>
            <trkpt lat="47.411736818" lon="6.798033519">
                <ele>509.000000</ele>
                <time>2012-07-14T13:37:10Z</time>
            </trkpt>
            <trkpt lat="47.411512183" lon="6.798263770">
                <ele>512.000000</ele>
                <time>2012-07-14T13:37:25Z</time>
            </trkpt>
            <trkpt lat="47.411303055" lon="6.798493685">
                <ele>514.000000</ele>
                <time>2012-07-14T13:37:39Z</time>
            </trkpt>
            <trkpt lat="47.411045730" lon="6.798437862">
                <ele>516.000000</ele>
                <time>2012-07-14T13:37:54Z</time>
            </trkpt>
            <trkpt lat="47.410873734" lon="6.798145669">
                <ele>518.000000</ele>
                <time>2012-07-14T13:38:09Z</time>
            </trkpt>
            <trkpt lat="47.410722859" lon="6.797812656">
                <ele>520.000000</ele>
                <time>2012-07-14T13:38:24Z</time>
            </trkpt>
            <trkpt lat="47.410586905" lon="6.797453407">
                <ele>522.000000</ele>
                <time>2012-07-14T13:38:38Z</time>
            </trkpt>
            <trkpt lat="47.410542900" lon="6.797276381">
                <ele>522.000000</ele>
                <time>2012-07-14T13:38:45Z</time>
            </trkpt>
            <trkpt lat="47.410499733" lon="6.796915960">
                <ele>524.000000</ele>
                <time>2012-07-14T13:38:58Z</time>
            </trkpt>
            <trkpt lat="47.410419351" lon="6.796613121">
                <ele>525.000000</ele>
                <time>2012-07-14T13:39:10Z</time>
            </trkpt>
            <trkpt lat="47.410374926" lon="6.796482280">
                <ele>526.000000</ele>
                <time>2012-07-14T13:39:16Z</time>
            </trkpt>
            <trkpt lat="47.410239642" lon="6.796137867">
                <ele>528.000000</ele>
                <time>2012-07-14T13:39:32Z</time>
            </trkpt>
            <trkpt lat="47.410183232" lon="6.795964027">
                <ele>529.000000</ele>
                <time>2012-07-14T13:39:40Z</time>
            </trkpt>
            <trkpt lat="47.410166888" lon="6.795901582">
                <ele>530.000000</ele>
                <time>2012-07-14T13:39:43Z</time>
            </trkpt>
            <trkpt lat="47.410141826" lon="6.795781720">
                <ele>530.000000</ele>
                <time>2012-07-14T13:39:49Z</time>
            </trkpt>
            <trkpt lat="47.409999082" lon="6.795472596">
                <ele>533.000000</ele>
                <time>2012-07-14T13:40:06Z</time>
            </trkpt>
            <trkpt lat="47.409864636" lon="6.795145785">
                <ele>535.000000</ele>
                <time>2012-07-14T13:40:23Z</time>
            </trkpt>
            <trkpt lat="47.409750391" lon="6.794850239">
                <ele>537.000000</ele>
                <time>2012-07-14T13:40:37Z</time>
            </trkpt>
            <trkpt lat="47.409630949" lon="6.794508509">
                <ele>538.000000</ele>
                <time>2012-07-14T13:40:51Z</time>
            </trkpt>
            <trkpt lat="47.409488205" lon="6.794049768">
                <ele>538.000000</ele>
                <time>2012-07-14T13:41:04Z</time>
            </trkpt>
            <trkpt lat="47.409287039" lon="6.793520115">
                <ele>538.000000</ele>
                <time>2012-07-14T13:41:15Z</time>
            </trkpt>
            <trkpt lat="47.408994343" lon="6.793041593">
                <ele>540.000000</ele>
                <time>2012-07-14T13:41:30Z</time>
            </trkpt>
            <trkpt lat="47.408655463" lon="6.792661138">
                <ele>541.000000</ele>
                <time>2012-07-14T13:41:48Z</time>
            </trkpt>
            <trkpt lat="47.408422865" lon="6.792558711">
                <ele>544.000000</ele>
                <time>2012-07-14T13:42:03Z</time>
            </trkpt>
            <trkpt lat="47.408296131" lon="6.792527195">
                <ele>548.000000</ele>
                <time>2012-07-14T13:42:14Z</time>
            </trkpt>
            <trkpt lat="47.408214658" lon="6.792512359">
                <ele>551.000000</ele>
                <time>2012-07-14T13:42:19Z</time>
            </trkpt>
            <trkpt lat="47.408028916" lon="6.792484447">
                <ele>551.000000</ele>
                <time>2012-07-14T13:42:35Z</time>
            </trkpt>
            <trkpt lat="47.407875443" lon="6.792496936">
                <ele>554.000000</ele>
                <time>2012-07-14T13:42:50Z</time>
            </trkpt>
            <trkpt lat="47.407760527" lon="6.792540858">
                <ele>556.000000</ele>
                <time>2012-07-14T13:43:03Z</time>
            </trkpt>
            <trkpt lat="47.407676121" lon="6.792589389">
                <ele>557.000000</ele>
                <time>2012-07-14T13:43:11Z</time>
            </trkpt>
            <trkpt lat="47.407522146" lon="6.792776473">
                <ele>560.000000</ele>
                <time>2012-07-14T13:43:27Z</time>
            </trkpt>
            <trkpt lat="47.407430951" lon="6.793103786">
                <ele>563.000000</ele>
                <time>2012-07-14T13:43:41Z</time>
            </trkpt>
            <trkpt lat="47.407373535" lon="6.793545010">
                <ele>564.000000</ele>
                <time>2012-07-14T13:43:58Z</time>
            </trkpt>
            <trkpt lat="47.407261888" lon="6.794025293">
                <ele>566.000000</ele>
                <time>2012-07-14T13:44:17Z</time>
            </trkpt>
            <trkpt lat="47.407051921" lon="6.794345733">
                <ele>567.000000</ele>
                <time>2012-07-14T13:44:32Z</time>
            </trkpt>
            <trkpt lat="47.406534758" lon="6.794762062">
                <ele>567.000000</ele>
                <time>2012-07-14T13:44:45Z</time>
            </trkpt>
            <trkpt lat="47.406114237" lon="6.795213930">
                <ele>567.000000</ele>
                <time>2012-07-14T13:44:57Z</time>
            </trkpt>
            <trkpt lat="47.405888429" lon="6.795553817">
                <ele>567.000000</ele>
                <time>2012-07-14T13:45:10Z</time>
            </trkpt>
            <trkpt lat="47.405817937" lon="6.795694046">
                <ele>568.000000</ele>
                <time>2012-07-14T13:45:15Z</time>
            </trkpt>
            <trkpt lat="47.405551393" lon="6.795959584">
                <ele>570.000000</ele>
                <time>2012-07-14T13:45:28Z</time>
            </trkpt>
            <trkpt lat="47.405184098" lon="6.796094952">
                <ele>571.000000</ele>
                <time>2012-07-14T13:45:40Z</time>
            </trkpt>
            <trkpt lat="47.404716052" lon="6.796381781">
                <ele>571.000000</ele>
                <time>2012-07-14T13:45:54Z</time>
            </trkpt>
            <trkpt lat="47.404285390" lon="6.796667101">
                <ele>571.000000</ele>
                <time>2012-07-14T13:46:06Z</time>
            </trkpt>
            <trkpt lat="47.404162260" lon="6.796790482">
                <ele>571.000000</ele>
                <time>2012-07-14T13:46:10Z</time>
            </trkpt>
            <trkpt lat="47.404072071" lon="6.796947308">
                <ele>571.000000</ele>
                <time>2012-07-14T13:46:13Z</time>
            </trkpt>
            <trkpt lat="47.403972577" lon="6.797109833">
                <ele>570.000000</ele>
                <time>2012-07-14T13:46:16Z</time>
            </trkpt>
            <trkpt lat="47.403638810" lon="6.797499424">
                <ele>570.000000</ele>
                <time>2012-07-14T13:46:29Z</time>
            </trkpt>
            <trkpt lat="47.403465640" lon="6.797605203">
                <ele>572.000000</ele>
                <time>2012-07-14T13:46:37Z</time>
            </trkpt>
            <trkpt lat="47.403114019" lon="6.797804274">
                <ele>574.000000</ele>
                <time>2012-07-14T13:46:53Z</time>
            </trkpt>
            <trkpt lat="47.402759464" lon="6.798076434">
                <ele>576.000000</ele>
                <time>2012-07-14T13:47:09Z</time>
            </trkpt>
            <trkpt lat="47.402672041" lon="6.798672052">
                <ele>577.000000</ele>
                <time>2012-07-14T13:47:20Z</time>
            </trkpt>
            <trkpt lat="47.402636921" lon="6.799198603">
                <ele>577.000000</ele>
                <time>2012-07-14T13:47:28Z</time>
            </trkpt>
            <trkpt lat="47.402538937" lon="6.799115958">
                <ele>575.000000</ele>
                <time>2012-07-14T13:47:34Z</time>
            </trkpt>
            <trkpt lat="47.402299885" lon="6.798091689">
                <ele>575.000000</ele>
                <time>2012-07-14T13:47:55Z</time>
            </trkpt>
            <trkpt lat="47.401808286" lon="6.797226844">
                <ele>574.000000</ele>
                <time>2012-07-14T13:48:11Z</time>
            </trkpt>
            <trkpt lat="47.401098087" lon="6.795859504">
                <ele>571.000000</ele>
                <time>2012-07-14T13:48:32Z</time>
            </trkpt>
            <trkpt lat="47.400688883" lon="6.794736413">
                <ele>570.000000</ele>
                <time>2012-07-14T13:48:50Z</time>
            </trkpt>
            <trkpt lat="47.400202900" lon="6.793990591">
                <ele>569.000000</ele>
                <time>2012-07-14T13:49:06Z</time>
            </trkpt>
            <trkpt lat="47.399671823" lon="6.793362871">
                <ele>569.000000</ele>
                <time>2012-07-14T13:49:23Z</time>
            </trkpt>
            <trkpt lat="47.399053238" lon="6.792660384">
                <ele>571.000000</ele>
                <time>2012-07-14T13:49:44Z</time>
            </trkpt>
            <trkpt lat="47.398435827" lon="6.792133665">
                <ele>572.000000</ele>
                <time>2012-07-14T13:50:04Z</time>
            </trkpt>
            <trkpt lat="47.397839958" lon="6.791570317">
                <ele>572.000000</ele>
                <time>2012-07-14T13:50:21Z</time>
            </trkpt>
            <trkpt lat="47.397316592" lon="6.791206626">
                <ele>572.000000</ele>
                <time>2012-07-14T13:50:33Z</time>
            </trkpt>
            <trkpt lat="47.397115845" lon="6.790991547">
                <ele>572.000000</ele>
                <time>2012-07-14T13:50:38Z</time>
            </trkpt>
            <trkpt lat="47.396533554" lon="6.789962836">
                <ele>570.000000</ele>
                <time>2012-07-14T13:50:55Z</time>
            </trkpt>
            <trkpt lat="47.396026533" lon="6.789124142">
                <ele>569.000000</ele>
                <time>2012-07-14T13:51:09Z</time>
            </trkpt>
            <trkpt lat="47.395544657" lon="6.788165337">
                <ele>568.000000</ele>
                <time>2012-07-14T13:51:23Z</time>
            </trkpt>
            <trkpt lat="47.395124221" lon="6.787170991">
                <ele>563.000000</ele>
                <time>2012-07-14T13:51:34Z</time>
            </trkpt>
            <trkpt lat="47.394993966" lon="6.786750890">
                <ele>559.000000</ele>
                <time>2012-07-14T13:51:38Z</time>
            </trkpt>
            <trkpt lat="47.394864801" lon="6.786362389">
                <ele>556.000000</ele>
                <time>2012-07-14T13:51:42Z</time>
            </trkpt>
            <trkpt lat="47.394766146" lon="6.786057875">
                <ele>555.000000</ele>
                <time>2012-07-14T13:51:45Z</time>
            </trkpt>
            <trkpt lat="47.394773103" lon="6.785390675">
                <ele>551.000000</ele>
                <time>2012-07-14T13:51:51Z</time>
            </trkpt>
            <trkpt lat="47.394863125" lon="6.785148606">
                <ele>550.000000</ele>
                <time>2012-07-14T13:51:53Z</time>
            </trkpt>
            <trkpt lat="47.394934371" lon="6.784780137">
                <ele>545.000000</ele>
                <time>2012-07-14T13:51:56Z</time>
            </trkpt>
            <trkpt lat="47.394968402" lon="6.784580816">
                <ele>542.000000</ele>
                <time>2012-07-14T13:51:58Z</time>
            </trkpt>
            <trkpt lat="47.395077199" lon="6.784304800">
                <ele>538.000000</ele>
                <time>2012-07-14T13:52:02Z</time>
            </trkpt>
            <trkpt lat="47.395143751" lon="6.784189548">
                <ele>536.000000</ele>
                <time>2012-07-14T13:52:04Z</time>
            </trkpt>
            <trkpt lat="47.395284651" lon="6.784001039">
                <ele>534.000000</ele>
                <time>2012-07-14T13:52:08Z</time>
            </trkpt>
            <trkpt lat="47.395278700" lon="6.783929206">
                <ele>534.000000</ele>
                <time>2012-07-14T13:52:11Z</time>
            </trkpt>
            <trkpt lat="47.395216841" lon="6.783942869">
                <ele>534.000000</ele>
                <time>2012-07-14T13:52:23Z</time>
            </trkpt>
            <trkpt lat="47.395190606" lon="6.784007912">
                <ele>534.000000</ele>
                <time>2012-07-14T13:52:36Z</time>
            </trkpt>
            <trkpt lat="47.395206783" lon="6.783999698">
                <ele>534.000000</ele>
                <time>2012-07-14T13:52:53Z</time>
            </trkpt>
            <trkpt lat="47.395190103" lon="6.783999614">
                <ele>534.000000</ele>
                <time>2012-07-14T13:53:22Z</time>
            </trkpt>
            <trkpt lat="47.395022968" lon="6.784026604">
                <ele>534.000000</ele>
                <time>2012-07-14T13:53:35Z</time>
            </trkpt>
            <trkpt lat="47.394524077" lon="6.784158619">
                <ele>533.000000</ele>
                <time>2012-07-14T13:53:50Z</time>
            </trkpt>
            <trkpt lat="47.394255186" lon="6.784086954">
                <ele>533.000000</ele>
                <time>2012-07-14T13:53:57Z</time>
            </trkpt>
            <trkpt lat="47.394107329" lon="6.783961561">
                <ele>532.000000</ele>
                <time>2012-07-14T13:54:01Z</time>
            </trkpt>
            <trkpt lat="47.394068604" lon="6.783899702">
                <ele>532.000000</ele>
                <time>2012-07-14T13:54:02Z</time>
            </trkpt>
            <trkpt lat="47.393743219" lon="6.783183468">
                <ele>529.000000</ele>
                <time>2012-07-14T13:54:14Z</time>
            </trkpt>
            <trkpt lat="47.393550184" lon="6.782505540">
                <ele>528.000000</ele>
                <time>2012-07-14T13:54:25Z</time>
            </trkpt>
            <trkpt lat="47.393507352" lon="6.782148806">
                <ele>528.000000</ele>
                <time>2012-07-14T13:54:30Z</time>
            </trkpt>
            <trkpt lat="47.393477261" lon="6.781902797">
                <ele>527.000000</ele>
                <time>2012-07-14T13:54:33Z</time>
            </trkpt>
            <trkpt lat="47.393440465" lon="6.781517649">
                <ele>526.000000</ele>
                <time>2012-07-14T13:54:38Z</time>
            </trkpt>
            <trkpt lat="47.393344324" lon="6.781179020">
                <ele>523.000000</ele>
                <time>2012-07-14T13:54:42Z</time>
            </trkpt>
            <trkpt lat="47.393252542" lon="6.780927814">
                <ele>519.000000</ele>
                <time>2012-07-14T13:54:45Z</time>
            </trkpt>
            <trkpt lat="47.393300906" lon="6.780514419">
                <ele>516.000000</ele>
                <time>2012-07-14T13:54:52Z</time>
            </trkpt>
            <trkpt lat="47.393302918" lon="6.780524477">
                <ele>518.000000</ele>
                <time>2012-07-14T13:55:02Z</time>
            </trkpt>
            <trkpt lat="47.393497964" lon="6.780426661">
                <ele>518.000000</ele>
                <time>2012-07-14T13:55:12Z</time>
            </trkpt>
            <trkpt lat="47.393725198" lon="6.780283833">
                <ele>517.000000</ele>
                <time>2012-07-14T13:55:21Z</time>
            </trkpt>
            <trkpt lat="47.393730562" lon="6.780277379">
                <ele>515.000000</ele>
                <time>2012-07-14T13:55:33Z</time>
            </trkpt>
            <trkpt lat="47.393753361" lon="6.780283749">
                <ele>515.000000</ele>
                <time>2012-07-14T13:55:46Z</time>
            </trkpt>
            <trkpt lat="47.393755373" lon="6.780268913">
                <ele>514.000000</ele>
                <time>2012-07-14T13:56:08Z</time>
            </trkpt>
            <trkpt lat="47.393768197" lon="6.780269081">
                <ele>514.000000</ele>
                <time>2012-07-14T13:56:16Z</time>
            </trkpt>
            <trkpt lat="47.393830726" lon="6.780471420">
                <ele>514.000000</ele>
                <time>2012-07-14T13:56:23Z</time>
            </trkpt>
            <trkpt lat="47.393878000" lon="6.780991685">
                <ele>513.000000</ele>
                <time>2012-07-14T13:56:34Z</time>
            </trkpt>
            <trkpt lat="47.393899290" lon="6.781222019">
                <ele>509.000000</ele>
                <time>2012-07-14T13:56:38Z</time>
            </trkpt>
            <trkpt lat="47.393899038" lon="6.781325117">
                <ele>506.000000</ele>
                <time>2012-07-14T13:56:40Z</time>
            </trkpt>
            <trkpt lat="47.393938182" lon="6.781601887">
                <ele>501.000000</ele>
                <time>2012-07-14T13:56:44Z</time>
            </trkpt>
            <trkpt lat="47.393965088" lon="6.781843202">
                <ele>501.000000</ele>
                <time>2012-07-14T13:56:47Z</time>
            </trkpt>
            <trkpt lat="47.394085452" lon="6.782307224">
                <ele>500.000000</ele>
                <time>2012-07-14T13:56:57Z</time>
            </trkpt>
            <trkpt lat="47.394127781" lon="6.782382075">
                <ele>500.000000</ele>
                <time>2012-07-14T13:57:00Z</time>
            </trkpt>
            <trkpt lat="47.394233895" lon="6.782470420">
                <ele>500.000000</ele>
                <time>2012-07-14T13:57:05Z</time>
            </trkpt>
            <trkpt lat="47.394330790" lon="6.782419123">
                <ele>496.000000</ele>
                <time>2012-07-14T13:57:13Z</time>
            </trkpt>
            <trkpt lat="47.394335317" lon="6.782402443">
                <ele>493.000000</ele>
                <time>2012-07-14T13:57:16Z</time>
            </trkpt>
            <trkpt lat="47.394358534" lon="6.782407137">
                <ele>494.000000</ele>
                <time>2012-07-14T13:57:41Z</time>
            </trkpt>
            <trkpt lat="47.394368257" lon="6.782289958">
                <ele>494.000000</ele>
                <time>2012-07-14T13:57:55Z</time>
            </trkpt>
            <trkpt lat="47.394372029" lon="6.782248300">
                <ele>492.000000</ele>
                <time>2012-07-14T13:57:57Z</time>
            </trkpt>
            <trkpt lat="47.394398935" lon="6.782151489">
                <ele>489.000000</ele>
                <time>2012-07-14T13:58:00Z</time>
            </trkpt>
            <trkpt lat="47.394401198" lon="6.782098934">
                <ele>488.000000</ele>
                <time>2012-07-14T13:58:01Z</time>
            </trkpt>
            <trkpt lat="47.394405473" lon="6.782050068">
                <ele>486.000000</ele>
                <time>2012-07-14T13:58:02Z</time>
            </trkpt>
            <trkpt lat="47.394414023" lon="6.782001201">
                <ele>485.000000</ele>
                <time>2012-07-14T13:58:03Z</time>
            </trkpt>
            <trkpt lat="47.394438162" lon="6.781923668">
                <ele>482.000000</ele>
                <time>2012-07-14T13:58:05Z</time>
            </trkpt>
            <trkpt lat="47.394463895" lon="6.781762065">
                <ele>478.000000</ele>
                <time>2012-07-14T13:58:08Z</time>
            </trkpt>
            <trkpt lat="47.394467918" lon="6.781710014">
                <ele>478.000000</ele>
                <time>2012-07-14T13:58:09Z</time>
            </trkpt>
            <trkpt lat="47.394489543" lon="6.781609515">
                <ele>476.000000</ele>
                <time>2012-07-14T13:58:11Z</time>
            </trkpt>
            <trkpt lat="47.394533465" lon="6.781497784">
                <ele>476.000000</ele>
                <time>2012-07-14T13:58:13Z</time>
            </trkpt>
            <trkpt lat="47.394573446" lon="6.781321177">
                <ele>473.000000</ele>
                <time>2012-07-14T13:58:17Z</time>
            </trkpt>
            <trkpt lat="47.394637903" lon="6.781220008">
                <ele>469.000000</ele>
                <time>2012-07-14T13:58:21Z</time>
            </trkpt>
            <trkpt lat="47.394663719" lon="6.781199388">
                <ele>468.000000</ele>
                <time>2012-07-14T13:58:22Z</time>
            </trkpt>
            <trkpt lat="47.394722896" lon="6.781068211">
                <ele>463.000000</ele>
                <time>2012-07-14T13:58:26Z</time>
            </trkpt>
            <trkpt lat="47.394735301" lon="6.781001408">
                <ele>464.000000</ele>
                <time>2012-07-14T13:58:43Z</time>
            </trkpt>
            <trkpt lat="47.394768996" lon="6.780909794">
                <ele>465.000000</ele>
                <time>2012-07-14T13:59:06Z</time>
            </trkpt>
            <trkpt lat="47.394782240" lon="6.780890850">
                <ele>465.000000</ele>
                <time>2012-07-14T13:59:07Z</time>
            </trkpt>
            <trkpt lat="47.394850384" lon="6.780736288">
                <ele>462.000000</ele>
                <time>2012-07-14T13:59:13Z</time>
            </trkpt>
            <trkpt lat="47.394878128" lon="6.780674849">
                <ele>460.000000</ele>
                <time>2012-07-14T13:59:14Z</time>
            </trkpt>
            <trkpt lat="47.394926408" lon="6.780554149">
                <ele>457.000000</ele>
                <time>2012-07-14T13:59:16Z</time>
            </trkpt>
            <trkpt lat="47.394942334" lon="6.780513916">
                <ele>456.000000</ele>
                <time>2012-07-14T13:59:17Z</time>
            </trkpt>
            <trkpt lat="47.394969407" lon="6.780460859">
                <ele>454.000000</ele>
                <time>2012-07-14T13:59:18Z</time>
            </trkpt>
            <trkpt lat="47.395004109" lon="6.780404868">
                <ele>453.000000</ele>
                <time>2012-07-14T13:59:19Z</time>
            </trkpt>
            <trkpt lat="47.395050880" lon="6.780285509">
                <ele>450.000000</ele>
                <time>2012-07-14T13:59:21Z</time>
            </trkpt>
            <trkpt lat="47.395078288" lon="6.780223986">
                <ele>448.000000</ele>
                <time>2012-07-14T13:59:22Z</time>
            </trkpt>
            <trkpt lat="47.395172417" lon="6.779980408">
                <ele>442.000000</ele>
                <time>2012-07-14T13:59:26Z</time>
            </trkpt>
            <trkpt lat="47.395263193" lon="6.779646473">
                <ele>440.000000</ele>
                <time>2012-07-14T13:59:34Z</time>
            </trkpt>
            <trkpt lat="47.395322369" lon="6.779448828">
                <ele>438.000000</ele>
                <time>2012-07-14T13:59:38Z</time>
            </trkpt>
            <trkpt lat="47.395391269" lon="6.779290745">
                <ele>434.000000</ele>
                <time>2012-07-14T13:59:41Z</time>
            </trkpt>
            <trkpt lat="47.395478105" lon="6.779045323">
                <ele>431.000000</ele>
                <time>2012-07-14T13:59:44Z</time>
            </trkpt>
            <trkpt lat="47.395596290" lon="6.778761428">
                <ele>428.000000</ele>
                <time>2012-07-14T13:59:48Z</time>
            </trkpt>
            <trkpt lat="47.395648425" lon="6.778639387">
                <ele>427.000000</ele>
                <time>2012-07-14T13:59:49Z</time>
            </trkpt>
            <trkpt lat="47.395673990" lon="6.778562358">
                <ele>426.000000</ele>
                <time>2012-07-14T13:59:50Z</time>
            </trkpt>
            <trkpt lat="47.395782787" lon="6.778350212">
                <ele>425.000000</ele>
                <time>2012-07-14T13:59:53Z</time>
            </trkpt>
            <trkpt lat="47.395856380" lon="6.778172180">
                <ele>423.000000</ele>
                <time>2012-07-14T13:59:55Z</time>
            </trkpt>
            <trkpt lat="47.395976577" lon="6.777845956">
                <ele>421.000000</ele>
                <time>2012-07-14T13:59:58Z</time>
            </trkpt>
            <trkpt lat="47.396021588" lon="6.777757024">
                <ele>420.000000</ele>
                <time>2012-07-14T13:59:59Z</time>
            </trkpt>
            <trkpt lat="47.396189226" lon="6.777532306">
                <ele>417.000000</ele>
                <time>2012-07-14T14:00:02Z</time>
            </trkpt>
            <trkpt lat="47.396285031" lon="6.777437339">
                <ele>415.000000</ele>
                <time>2012-07-14T14:00:04Z</time>
            </trkpt>
            <trkpt lat="47.396589629" lon="6.777175488">
                <ele>413.000000</ele>
                <time>2012-07-14T14:00:13Z</time>
            </trkpt>
            <trkpt lat="47.396714855" lon="6.777092591">
                <ele>413.000000</ele>
                <time>2012-07-14T14:00:17Z</time>
            </trkpt>
            <trkpt lat="47.396963546" lon="6.777073313">
                <ele>414.000000</ele>
                <time>2012-07-14T14:00:32Z</time>
            </trkpt>
            <trkpt lat="47.396983998" lon="6.777057638">
                <ele>414.000000</ele>
                <time>2012-07-14T14:00:45Z</time>
            </trkpt>
            <trkpt lat="47.397201425" lon="6.777078342">
                <ele>414.000000</ele>
                <time>2012-07-14T14:00:51Z</time>
            </trkpt>
            <trkpt lat="47.397341821" lon="6.776968958">
                <ele>413.000000</ele>
                <time>2012-07-14T14:00:55Z</time>
            </trkpt>
            <trkpt lat="47.397334194" lon="6.776869884">
                <ele>412.000000</ele>
                <time>2012-07-14T14:00:58Z</time>
            </trkpt>
            <trkpt lat="47.397291530" lon="6.776932580">
                <ele>411.000000</ele>
                <time>2012-07-14T14:00:59Z</time>
            </trkpt>
            <trkpt lat="47.397224559" lon="6.776909195">
                <ele>409.000000</ele>
                <time>2012-07-14T14:01:01Z</time>
            </trkpt>
            <trkpt lat="47.397117773" lon="6.776837278">
                <ele>406.000000</ele>
                <time>2012-07-14T14:01:03Z</time>
            </trkpt>
            <trkpt lat="47.396963295" lon="6.776830321">
                <ele>404.000000</ele>
                <time>2012-07-14T14:01:05Z</time>
            </trkpt>
            <trkpt lat="47.396814767" lon="6.776787909">
                <ele>402.000000</ele>
                <time>2012-07-14T14:01:07Z</time>
            </trkpt>
            <trkpt lat="47.396752993" lon="6.776775839">
                <ele>401.000000</ele>
                <time>2012-07-14T14:01:08Z</time>
            </trkpt>
            <trkpt lat="47.396687195" lon="6.776770139">
                <ele>401.000000</ele>
                <time>2012-07-14T14:01:09Z</time>
            </trkpt>
            <trkpt lat="47.396544535" lon="6.776740886">
                <ele>399.000000</ele>
                <time>2012-07-14T14:01:11Z</time>
            </trkpt>
            <trkpt lat="47.396237925" lon="6.776804505">
                <ele>396.000000</ele>
                <time>2012-07-14T14:01:15Z</time>
            </trkpt>
            <trkpt lat="47.395657645" lon="6.777001144">
                <ele>391.000000</ele>
                <time>2012-07-14T14:01:22Z</time>
            </trkpt>
            <trkpt lat="47.395573827" lon="6.777019752">
                <ele>390.000000</ele>
                <time>2012-07-14T14:01:23Z</time>
            </trkpt>
            <trkpt lat="47.395410631" lon="6.777140452">
                <ele>389.000000</ele>
                <time>2012-07-14T14:01:25Z</time>
            </trkpt>
            <trkpt lat="47.395240562" lon="6.777340276">
                <ele>388.000000</ele>
                <time>2012-07-14T14:01:29Z</time>
            </trkpt>
            <trkpt lat="47.395002600" lon="6.777481260">
                <ele>387.000000</ele>
                <time>2012-07-14T14:01:37Z</time>
            </trkpt>
            <trkpt lat="47.394978963" lon="6.777490815">
                <ele>389.000000</ele>
                <time>2012-07-14T14:01:39Z</time>
            </trkpt>
            <trkpt lat="47.394822892" lon="6.777616376">
                <ele>390.000000</ele>
                <time>2012-07-14T14:01:54Z</time>
            </trkpt>
            <trkpt lat="47.394716442" lon="6.777604055">
                <ele>392.000000</ele>
                <time>2012-07-14T14:02:05Z</time>
            </trkpt>
            <trkpt lat="47.394677550" lon="6.777589638">
                <ele>392.000000</ele>
                <time>2012-07-14T14:02:09Z</time>
            </trkpt>
            <trkpt lat="47.394438665" lon="6.777554685">
                <ele>393.000000</ele>
                <time>2012-07-14T14:02:24Z</time>
            </trkpt>
            <trkpt lat="47.394288629" lon="6.777540687">
                <ele>393.000000</ele>
                <time>2012-07-14T14:02:29Z</time>
            </trkpt>
            <trkpt lat="47.394200955" lon="6.777540520">
                <ele>393.000000</ele>
                <time>2012-07-14T14:02:31Z</time>
            </trkpt>
            <trkpt lat="47.393828044" lon="6.777483774">
                <ele>391.000000</ele>
                <time>2012-07-14T14:02:37Z</time>
            </trkpt>
            <trkpt lat="47.393563176" lon="6.777390568">
                <ele>388.000000</ele>
                <time>2012-07-14T14:02:41Z</time>
            </trkpt>
            <trkpt lat="47.393362848" lon="6.777322087">
                <ele>385.000000</ele>
                <time>2012-07-14T14:02:44Z</time>
            </trkpt>
            <trkpt lat="47.393161012" lon="6.777270790">
                <ele>381.000000</ele>
                <time>2012-07-14T14:02:47Z</time>
            </trkpt>
            <trkpt lat="47.392983986" lon="6.777215721">
                <ele>379.000000</ele>
                <time>2012-07-14T14:02:50Z</time>
            </trkpt>
            <trkpt lat="47.392836632" lon="6.777174482">
                <ele>378.000000</ele>
                <time>2012-07-14T14:02:52Z</time>
            </trkpt>
            <trkpt lat="47.392598419" lon="6.777177332">
                <ele>376.000000</ele>
                <time>2012-07-14T14:02:54Z</time>
            </trkpt>
            <trkpt lat="47.392378561" lon="6.777220331">
                <ele>373.000000</ele>
                <time>2012-07-14T14:02:57Z</time>
            </trkpt>
            <trkpt lat="47.392301615" lon="6.777216978">
                <ele>372.000000</ele>
                <time>2012-07-14T14:02:58Z</time>
            </trkpt>
            <trkpt lat="47.392065329" lon="6.777138188">
                <ele>367.000000</ele>
                <time>2012-07-14T14:03:02Z</time>
            </trkpt>
            <trkpt lat="47.391996514" lon="6.777093178">
                <ele>365.000000</ele>
                <time>2012-07-14T14:03:10Z</time>
            </trkpt>
            <trkpt lat="47.391989138" lon="6.777095608">
                <ele>366.000000</ele>
                <time>2012-07-14T14:03:22Z</time>
            </trkpt>
            <trkpt lat="47.391880173" lon="6.777025619">
                <ele>366.000000</ele>
                <time>2012-07-14T14:03:27Z</time>
            </trkpt>
            <trkpt lat="47.391637182" lon="6.776952278">
                <ele>365.000000</ele>
                <time>2012-07-14T14:03:32Z</time>
            </trkpt>
            <trkpt lat="47.391478261" lon="6.776796710">
                <ele>361.000000</ele>
                <time>2012-07-14T14:03:36Z</time>
            </trkpt>
            <trkpt lat="47.391447499" lon="6.776760500">
                <ele>360.000000</ele>
                <time>2012-07-14T14:03:37Z</time>
            </trkpt>
            <trkpt lat="47.391340211" lon="6.776681207">
                <ele>357.000000</ele>
                <time>2012-07-14T14:03:40Z</time>
            </trkpt>
            <trkpt lat="47.391017843" lon="6.776818838">
                <ele>359.000000</ele>
                <time>2012-07-14T14:03:49Z</time>
            </trkpt>
            <trkpt lat="47.390599670" lon="6.777004162">
                <ele>361.000000</ele>
                <time>2012-07-14T14:04:03Z</time>
            </trkpt>
            <trkpt lat="47.390095498" lon="6.777200801">
                <ele>361.000000</ele>
                <time>2012-07-14T14:04:17Z</time>
            </trkpt>
            <trkpt lat="47.389759552" lon="6.777454522">
                <ele>361.000000</ele>
                <time>2012-07-14T14:04:30Z</time>
            </trkpt>
            <trkpt lat="47.389626196" lon="6.777636995">
                <ele>361.000000</ele>
                <time>2012-07-14T14:04:40Z</time>
            </trkpt>
            <trkpt lat="47.389127556" lon="6.778194308">
                <ele>361.000000</ele>
                <time>2012-07-14T14:04:54Z</time>
            </trkpt>
            <trkpt lat="47.388573177" lon="6.778914314">
                <ele>361.000000</ele>
                <time>2012-07-14T14:05:09Z</time>
            </trkpt>
            <trkpt lat="47.388540739" lon="6.778963516">
                <ele>361.000000</ele>
                <time>2012-07-14T14:05:10Z</time>
            </trkpt>
            <trkpt lat="47.388185430" lon="6.779340953">
                <ele>363.000000</ele>
                <time>2012-07-14T14:05:22Z</time>
            </trkpt>
            <trkpt lat="47.387996167" lon="6.778922863">
                <ele>363.000000</ele>
                <time>2012-07-14T14:05:33Z</time>
            </trkpt>
            <trkpt lat="47.387817884" lon="6.778103784">
                <ele>363.000000</ele>
                <time>2012-07-14T14:05:49Z</time>
            </trkpt>
            <trkpt lat="47.387596602" lon="6.777134500">
                <ele>363.000000</ele>
                <time>2012-07-14T14:06:08Z</time>
            </trkpt>
            <trkpt lat="47.387214974" lon="6.776183322">
                <ele>363.000000</ele>
                <time>2012-07-14T14:06:26Z</time>
            </trkpt>
            <trkpt lat="47.386742821" lon="6.775085712">
                <ele>363.000000</ele>
                <time>2012-07-14T14:06:41Z</time>
            </trkpt>
            <trkpt lat="47.386678448" lon="6.774939867">
                <ele>362.000000</ele>
                <time>2012-07-14T14:06:43Z</time>
            </trkpt>
            <trkpt lat="47.386433277" lon="6.774364030">
                <ele>361.000000</ele>
                <time>2012-07-14T14:06:51Z</time>
            </trkpt>
            <trkpt lat="47.386300424" lon="6.774141574">
                <ele>361.000000</ele>
                <time>2012-07-14T14:06:55Z</time>
            </trkpt>
            <trkpt lat="47.385739675" lon="6.773906462">
                <ele>359.000000</ele>
                <time>2012-07-14T14:07:07Z</time>
            </trkpt>
            <trkpt lat="47.384866197" lon="6.773690879">
                <ele>359.000000</ele>
                <time>2012-07-14T14:07:27Z</time>
            </trkpt>
            <trkpt lat="47.384420950" lon="6.773579065">
                <ele>359.000000</ele>
                <time>2012-07-14T14:07:43Z</time>
            </trkpt>
            <trkpt lat="47.383933878" lon="6.773455767">
                <ele>359.000000</ele>
                <time>2012-07-14T14:07:57Z</time>
            </trkpt>
            <trkpt lat="47.383842180" lon="6.773433387">
                <ele>359.000000</ele>
                <time>2012-07-14T14:07:59Z</time>
            </trkpt>
            <trkpt lat="47.383343121" lon="6.773349065">
                <ele>358.000000</ele>
                <time>2012-07-14T14:08:10Z</time>
            </trkpt>
            <trkpt lat="47.383091580" lon="6.773264911">
                <ele>356.000000</ele>
                <time>2012-07-14T14:08:23Z</time>
            </trkpt>
            <trkpt lat="47.383083031" lon="6.773245800">
                <ele>356.000000</ele>
                <time>2012-07-14T14:08:29Z</time>
            </trkpt>
            <trkpt lat="47.383076409" lon="6.773204310">
                <ele>356.000000</ele>
                <time>2012-07-14T14:08:40Z</time>
            </trkpt>
            <trkpt lat="47.383078420" lon="6.773217386">
                <ele>356.000000</ele>
                <time>2012-07-14T14:08:59Z</time>
            </trkpt>
            <trkpt lat="47.383085042" lon="6.773245465">
                <ele>356.000000</ele>
                <time>2012-07-14T14:09:19Z</time>
            </trkpt>
            <trkpt lat="47.383088730" lon="6.773266252">
                <ele>355.000000</ele>
                <time>2012-07-14T14:09:48Z</time>
            </trkpt>
            <trkpt lat="47.383091496" lon="6.773250327">
                <ele>355.000000</ele>
                <time>2012-07-14T14:10:03Z</time>
            </trkpt>
            <trkpt lat="47.383081270" lon="6.773270695">
                <ele>355.000000</ele>
                <time>2012-07-14T14:10:28Z</time>
            </trkpt>
            <trkpt lat="47.383080432" lon="6.773311095">
                <ele>355.000000</ele>
                <time>2012-07-14T14:10:50Z</time>
            </trkpt>
            <trkpt lat="47.383079007" lon="6.773353592">
                <ele>355.000000</ele>
                <time>2012-07-14T14:11:17Z</time>
            </trkpt>
            <trkpt lat="47.383085210" lon="6.773415198">
                <ele>356.000000</ele>
                <time>2012-07-14T14:11:45Z</time>
            </trkpt>
            <trkpt lat="47.383083701" lon="6.773424083">
                <ele>356.000000</ele>
                <time>2012-07-14T14:12:17Z</time>
            </trkpt>
            <trkpt lat="47.383104153" lon="6.773427688">
                <ele>356.000000</ele>
                <time>2012-07-14T14:12:41Z</time>
            </trkpt>
            <trkpt lat="47.383114463" lon="6.773422910">
                <ele>357.000000</ele>
                <time>2012-07-14T14:13:11Z</time>
            </trkpt>
            <trkpt lat="47.383131394" lon="6.773417378">
                <ele>357.000000</ele>
                <time>2012-07-14T14:13:38Z</time>
            </trkpt>
            <trkpt lat="47.383135753" lon="6.773411175">
                <ele>357.000000</ele>
                <time>2012-07-14T14:14:01Z</time>
            </trkpt>
            <trkpt lat="47.383140111" lon="6.773397094">
                <ele>357.000000</ele>
                <time>2012-07-14T14:14:29Z</time>
            </trkpt>
            <trkpt lat="47.383110607" lon="6.773401452">
                <ele>358.000000</ele>
                <time>2012-07-14T14:14:59Z</time>
            </trkpt>
            <trkpt lat="47.383108679" lon="6.773432800">
                <ele>358.000000</ele>
                <time>2012-07-14T14:15:26Z</time>
            </trkpt>
            <trkpt lat="47.383109434" lon="6.773442105">
                <ele>358.000000</ele>
                <time>2012-07-14T14:15:43Z</time>
            </trkpt>
            <trkpt lat="47.383137345" lon="6.773392567">
                <ele>359.000000</ele>
                <time>2012-07-14T14:16:12Z</time>
            </trkpt>
            <trkpt lat="47.383152181" lon="6.773378821">
                <ele>359.000000</ele>
                <time>2012-07-14T14:16:35Z</time>
            </trkpt>
            <trkpt lat="47.383167185" lon="6.773328781">
                <ele>359.000000</ele>
                <time>2012-07-14T14:17:02Z</time>
            </trkpt>
            <trkpt lat="47.383184452" lon="6.773290476">
                <ele>359.000000</ele>
                <time>2012-07-14T14:17:26Z</time>
            </trkpt>
            <trkpt lat="47.383175567" lon="6.773302043">
                <ele>359.000000</ele>
                <time>2012-07-14T14:17:45Z</time>
            </trkpt>
            <trkpt lat="47.383162659" lon="6.773303384">
                <ele>360.000000</ele>
                <time>2012-07-14T14:18:05Z</time>
            </trkpt>
            <trkpt lat="47.383153606" lon="6.773309084">
                <ele>360.000000</ele>
                <time>2012-07-14T14:18:25Z</time>
            </trkpt>
            <trkpt lat="47.383151594" lon="6.773292823">
                <ele>360.000000</ele>
                <time>2012-07-14T14:18:45Z</time>
            </trkpt>
            <trkpt lat="47.383159306" lon="6.773269437">
                <ele>360.000000</ele>
                <time>2012-07-14T14:19:07Z</time>
            </trkpt>
            <trkpt lat="47.383164335" lon="6.773267258">
                <ele>360.000000</ele>
                <time>2012-07-14T14:19:31Z</time>
            </trkpt>
            <trkpt lat="47.383167772" lon="6.773265665">
                <ele>360.000000</ele>
                <time>2012-07-14T14:19:50Z</time>
            </trkpt>
            <trkpt lat="47.383179171" lon="6.773270695">
                <ele>361.000000</ele>
                <time>2012-07-14T14:20:21Z</time>
            </trkpt>
            <trkpt lat="47.383191492" lon="6.773243872">
                <ele>361.000000</ele>
                <time>2012-07-14T14:20:43Z</time>
            </trkpt>
            <trkpt lat="47.383194594" lon="6.773232222">
                <ele>361.000000</ele>
                <time>2012-07-14T14:21:03Z</time>
            </trkpt>
            <trkpt lat="47.383195264" lon="6.773239346">
                <ele>361.000000</ele>
                <time>2012-07-14T14:21:25Z</time>
            </trkpt>
            <trkpt lat="47.383195264" lon="6.773239346">
                <ele>362.000000</ele>
                <time>2012-07-14T14:21:48Z</time>
            </trkpt>
            <trkpt lat="47.383193169" lon="6.773239346">
                <ele>362.000000</ele>
                <time>2012-07-14T14:22:04Z</time>
            </trkpt>
            <trkpt lat="47.383194342" lon="6.773257619">
                <ele>362.000000</ele>
                <time>2012-07-14T14:22:33Z</time>
            </trkpt>
            <trkpt lat="47.383200126" lon="6.773268683">
                <ele>362.000000</ele>
                <time>2012-07-14T14:22:53Z</time>
            </trkpt>
            <trkpt lat="47.383211358" lon="6.773277484">
                <ele>363.000000</ele>
                <time>2012-07-14T14:23:21Z</time>
            </trkpt>
            <trkpt lat="47.383209430" lon="6.773282765">
                <ele>363.000000</ele>
                <time>2012-07-14T14:23:42Z</time>
            </trkpt>
            <trkpt lat="47.383205909" lon="6.773281591">
                <ele>363.000000</ele>
                <time>2012-07-14T14:24:05Z</time>
            </trkpt>
            <trkpt lat="47.383209597" lon="6.773287710">
                <ele>363.000000</ele>
                <time>2012-07-14T14:24:27Z</time>
            </trkpt>
            <trkpt lat="47.383202724" lon="6.773279495">
                <ele>363.000000</ele>
                <time>2012-07-14T14:24:53Z</time>
            </trkpt>
            <trkpt lat="47.383190403" lon="6.773297349">
                <ele>363.000000</ele>
                <time>2012-07-14T14:25:13Z</time>
            </trkpt>
            <trkpt lat="47.383179506" lon="6.773295756">
                <ele>363.000000</ele>
                <time>2012-07-14T14:25:21Z</time>
            </trkpt>
            <trkpt lat="47.383313365" lon="6.773384185">
                <ele>363.000000</ele>
                <time>2012-07-14T14:25:30Z</time>
            </trkpt>
            <trkpt lat="47.383499276" lon="6.773395501">
                <ele>363.000000</ele>
                <time>2012-07-14T14:25:44Z</time>
            </trkpt>
            <trkpt lat="47.383621149" lon="6.773395669">
                <ele>363.000000</ele>
                <time>2012-07-14T14:25:56Z</time>
            </trkpt>
            <trkpt lat="47.384008476" lon="6.773508824">
                <ele>364.000000</ele>
                <time>2012-07-14T14:26:11Z</time>
            </trkpt>
            <trkpt lat="47.384419190" lon="6.773640756">
                <ele>365.000000</ele>
                <time>2012-07-14T14:26:27Z</time>
            </trkpt>
            <trkpt lat="47.384624463" lon="6.773702446">
                <ele>365.000000</ele>
                <time>2012-07-14T14:26:34Z</time>
            </trkpt>
            <trkpt lat="47.384731919" lon="6.773848124">
                <ele>366.000000</ele>
                <time>2012-07-14T14:26:40Z</time>
            </trkpt>
            <trkpt lat="47.385008018" lon="6.774358079">
                <ele>367.000000</ele>
                <time>2012-07-14T14:26:58Z</time>
            </trkpt>
            <trkpt lat="47.385110445" lon="6.774689248">
                <ele>368.000000</ele>
                <time>2012-07-14T14:27:12Z</time>
            </trkpt>
            <trkpt lat="47.385219662" lon="6.775066182">
                <ele>370.000000</ele>
                <time>2012-07-14T14:27:29Z</time>
            </trkpt>
            <trkpt lat="47.385347988" lon="6.775459126">
                <ele>371.000000</ele>
                <time>2012-07-14T14:27:46Z</time>
            </trkpt>
            <trkpt lat="47.385475477" lon="6.775930272">
                <ele>373.000000</ele>
                <time>2012-07-14T14:28:06Z</time>
            </trkpt>
            <trkpt lat="47.385483691" lon="6.776004117">
                <ele>374.000000</ele>
                <time>2012-07-14T14:28:09Z</time>
            </trkpt>
            <trkpt lat="47.385548735" lon="6.776400413">
                <ele>376.000000</ele>
                <time>2012-07-14T14:28:25Z</time>
            </trkpt>
            <trkpt lat="47.385672201" lon="6.776920678">
                <ele>378.000000</ele>
                <time>2012-07-14T14:28:46Z</time>
            </trkpt>
            <trkpt lat="47.385824500" lon="6.777345641">
                <ele>380.000000</ele>
                <time>2012-07-14T14:29:04Z</time>
            </trkpt>
            <trkpt lat="47.385961795" lon="6.777714780">
                <ele>382.000000</ele>
                <time>2012-07-14T14:29:20Z</time>
            </trkpt>
            <trkpt lat="47.386152651" lon="6.778171845">
                <ele>385.000000</ele>
                <time>2012-07-14T14:29:40Z</time>
            </trkpt>
            <trkpt lat="47.386410730" lon="6.778628994">
                <ele>387.000000</ele>
                <time>2012-07-14T14:30:02Z</time>
            </trkpt>
            <trkpt lat="47.386432188" lon="6.778949937">
                <ele>389.000000</ele>
                <time>2012-07-14T14:30:17Z</time>
            </trkpt>
            <trkpt lat="47.386236051" lon="6.778796213">
                <ele>390.000000</ele>
                <time>2012-07-14T14:30:31Z</time>
            </trkpt>
            <trkpt lat="47.385999681" lon="6.778436042">
                <ele>393.000000</ele>
                <time>2012-07-14T14:30:50Z</time>
            </trkpt>
            <trkpt lat="47.385749649" lon="6.778105460">
                <ele>395.000000</ele>
                <time>2012-07-14T14:31:10Z</time>
            </trkpt>
            <trkpt lat="47.385516548" lon="6.777896248">
                <ele>397.000000</ele>
                <time>2012-07-14T14:31:26Z</time>
            </trkpt>
            <trkpt lat="47.385228714" lon="6.777673708">
                <ele>399.000000</ele>
                <time>2012-07-14T14:31:45Z</time>
            </trkpt>
            <trkpt lat="47.385011623" lon="6.777505651">
                <ele>401.000000</ele>
                <time>2012-07-14T14:32:01Z</time>
            </trkpt>
            <trkpt lat="47.384749269" lon="6.777307503">
                <ele>402.000000</ele>
                <time>2012-07-14T14:32:20Z</time>
            </trkpt>
            <trkpt lat="47.384651955" lon="6.777256457">
                <ele>403.000000</ele>
                <time>2012-07-14T14:32:28Z</time>
            </trkpt>
            <trkpt lat="47.384605436" lon="6.777208261">
                <ele>404.000000</ele>
                <time>2012-07-14T14:32:32Z</time>
            </trkpt>
            <trkpt lat="47.384524131" lon="6.777141709">
                <ele>405.000000</ele>
                <time>2012-07-14T14:32:38Z</time>
            </trkpt>
            <trkpt lat="47.384295557" lon="6.776933922">
                <ele>406.000000</ele>
                <time>2012-07-14T14:32:55Z</time>
            </trkpt>
            <trkpt lat="47.384106545" lon="6.776770642">
                <ele>408.000000</ele>
                <time>2012-07-14T14:33:10Z</time>
            </trkpt>
            <trkpt lat="47.383908229" lon="6.776596801">
                <ele>409.000000</ele>
                <time>2012-07-14T14:33:25Z</time>
            </trkpt>
            <trkpt lat="47.383607486" lon="6.776513904">
                <ele>411.000000</ele>
                <time>2012-07-14T14:33:44Z</time>
            </trkpt>
            <trkpt lat="47.383380504" lon="6.776453471">
                <ele>414.000000</ele>
                <time>2012-07-14T14:33:59Z</time>
            </trkpt>
            <trkpt lat="47.383144386" lon="6.776425224">
                <ele>415.000000</ele>
                <time>2012-07-14T14:34:15Z</time>
            </trkpt>
            <trkpt lat="47.382941712" lon="6.776432516">
                <ele>417.000000</ele>
                <time>2012-07-14T14:34:29Z</time>
            </trkpt>
            <trkpt lat="47.382726548" lon="6.776462859">
                <ele>418.000000</ele>
                <time>2012-07-14T14:34:44Z</time>
            </trkpt>
            <trkpt lat="47.382609202" lon="6.776487920">
                <ele>419.000000</ele>
                <time>2012-07-14T14:34:53Z</time>
            </trkpt>
            <trkpt lat="47.382409628" lon="6.776544750">
                <ele>422.000000</ele>
                <time>2012-07-14T14:35:08Z</time>
            </trkpt>
            <trkpt lat="47.382214246" lon="6.776545588">
                <ele>424.000000</ele>
                <time>2012-07-14T14:35:22Z</time>
            </trkpt>
            <trkpt lat="47.382091619" lon="6.776570315">
                <ele>425.000000</ele>
                <time>2012-07-14T14:35:31Z</time>
            </trkpt>
            <trkpt lat="47.382065719" lon="6.776568554">
                <ele>425.000000</ele>
                <time>2012-07-14T14:35:33Z</time>
            </trkpt>
            <trkpt lat="47.381845107" lon="6.776614320">
                <ele>427.000000</ele>
                <time>2012-07-14T14:35:48Z</time>
            </trkpt>
            <trkpt lat="47.381758522" lon="6.776623288">
                <ele>428.000000</ele>
                <time>2012-07-14T14:35:54Z</time>
            </trkpt>
            <trkpt lat="47.381657101" lon="6.776620941">
                <ele>429.000000</ele>
                <time>2012-07-14T14:36:00Z</time>
            </trkpt>
            <trkpt lat="47.381632207" lon="6.776630748">
                <ele>429.000000</ele>
                <time>2012-07-14T14:36:02Z</time>
            </trkpt>
            <trkpt lat="47.381444955" lon="6.776729403">
                <ele>431.000000</ele>
                <time>2012-07-14T14:36:16Z</time>
            </trkpt>
            <trkpt lat="47.381283101" lon="6.776745161">
                <ele>432.000000</ele>
                <time>2012-07-14T14:36:26Z</time>
            </trkpt>
            <trkpt lat="47.381145135" lon="6.776805511">
                <ele>434.000000</ele>
                <time>2012-07-14T14:36:37Z</time>
            </trkpt>
            <trkpt lat="47.380914716" lon="6.776893018">
                <ele>435.000000</ele>
                <time>2012-07-14T14:36:49Z</time>
            </trkpt>
            <trkpt lat="47.380834417" lon="6.776912212">
                <ele>435.000000</ele>
                <time>2012-07-14T14:36:54Z</time>
            </trkpt>
            <trkpt lat="47.380612548" lon="6.776970215">
                <ele>437.000000</ele>
                <time>2012-07-14T14:37:07Z</time>
            </trkpt>
            <trkpt lat="47.380474750" lon="6.777063087">
                <ele>438.000000</ele>
                <time>2012-07-14T14:37:19Z</time>
            </trkpt>
            <trkpt lat="47.380208457" lon="6.777187558">
                <ele>440.000000</ele>
                <time>2012-07-14T14:37:35Z</time>
            </trkpt>
            <trkpt lat="47.380070156" lon="6.777252685">
                <ele>441.000000</ele>
                <time>2012-07-14T14:37:44Z</time>
            </trkpt>
            <trkpt lat="47.379876114" lon="6.777338935">
                <ele>442.000000</ele>
                <time>2012-07-14T14:37:57Z</time>
            </trkpt>
            <trkpt lat="47.379718786" lon="6.777366092">
                <ele>443.000000</ele>
                <time>2012-07-14T14:38:07Z</time>
            </trkpt>
            <trkpt lat="47.379465150" lon="6.777411522">
                <ele>446.000000</ele>
                <time>2012-07-14T14:38:22Z</time>
            </trkpt>
            <trkpt lat="47.379394407" lon="6.777405404">
                <ele>447.000000</ele>
                <time>2012-07-14T14:38:27Z</time>
            </trkpt>
            <trkpt lat="47.379194414" lon="6.777445553">
                <ele>449.000000</ele>
                <time>2012-07-14T14:38:40Z</time>
            </trkpt>
            <trkpt lat="47.379089389" lon="6.777459299">
                <ele>450.000000</ele>
                <time>2012-07-14T14:38:47Z</time>
            </trkpt>
            <trkpt lat="47.378991908" lon="6.777475309">
                <ele>450.000000</ele>
                <time>2012-07-14T14:38:54Z</time>
            </trkpt>
            <trkpt lat="47.378904987" lon="6.777505735">
                <ele>451.000000</ele>
                <time>2012-07-14T14:39:00Z</time>
            </trkpt>
            <trkpt lat="47.378678508" lon="6.777512021">
                <ele>452.000000</ele>
                <time>2012-07-14T14:39:13Z</time>
            </trkpt>
            <trkpt lat="47.378666941" lon="6.777512273">
                <ele>452.000000</ele>
                <time>2012-07-14T14:39:14Z</time>
            </trkpt>
            <trkpt lat="47.378595527" lon="6.777547728">
                <ele>453.000000</ele>
                <time>2012-07-14T14:39:19Z</time>
            </trkpt>
            <trkpt lat="47.378473487" lon="6.777545717">
                <ele>454.000000</ele>
                <time>2012-07-14T14:39:25Z</time>
            </trkpt>
            <trkpt lat="47.378219767" lon="6.777537838">
                <ele>455.000000</ele>
                <time>2012-07-14T14:39:38Z</time>
            </trkpt>
            <trkpt lat="47.378156483" lon="6.777538005">
                <ele>455.000000</ele>
                <time>2012-07-14T14:39:41Z</time>
            </trkpt>
            <trkpt lat="47.377925478" lon="6.777546890">
                <ele>457.000000</ele>
                <time>2012-07-14T14:39:54Z</time>
            </trkpt>
            <trkpt lat="47.377747363" lon="6.777595254">
                <ele>459.000000</ele>
                <time>2012-07-14T14:40:05Z</time>
            </trkpt>
            <trkpt lat="47.377651138" lon="6.777633475">
                <ele>460.000000</ele>
                <time>2012-07-14T14:40:12Z</time>
            </trkpt>
            <trkpt lat="47.377594225" lon="6.777653173">
                <ele>461.000000</ele>
                <time>2012-07-14T14:40:16Z</time>
            </trkpt>
            <trkpt lat="47.377367578" lon="6.777711846">
                <ele>462.000000</ele>
                <time>2012-07-14T14:40:30Z</time>
            </trkpt>
            <trkpt lat="47.377171358" lon="6.777719809">
                <ele>464.000000</ele>
                <time>2012-07-14T14:40:42Z</time>
            </trkpt>
            <trkpt lat="47.376948148" lon="6.777720479">
                <ele>466.000000</ele>
                <time>2012-07-14T14:40:55Z</time>
            </trkpt>
            <trkpt lat="47.376715215" lon="6.777731292">
                <ele>468.000000</ele>
                <time>2012-07-14T14:41:05Z</time>
            </trkpt>
            <trkpt lat="47.376538189" lon="6.777748056">
                <ele>469.000000</ele>
                <time>2012-07-14T14:41:15Z</time>
            </trkpt>
            <trkpt lat="47.376327803" lon="6.777734142">
                <ele>470.000000</ele>
                <time>2012-07-14T14:41:27Z</time>
            </trkpt>
            <trkpt lat="47.376273489" lon="6.777713271">
                <ele>471.000000</ele>
                <time>2012-07-14T14:41:31Z</time>
            </trkpt>
            <trkpt lat="47.376055894" lon="6.777589554">
                <ele>473.000000</ele>
                <time>2012-07-14T14:41:42Z</time>
            </trkpt>
            <trkpt lat="47.375835031" lon="6.777405655">
                <ele>474.000000</ele>
                <time>2012-07-14T14:41:53Z</time>
            </trkpt>
            <trkpt lat="47.375794798" lon="6.777353939">
                <ele>474.000000</ele>
                <time>2012-07-14T14:41:56Z</time>
            </trkpt>
            <trkpt lat="47.375730090" lon="6.777225193">
                <ele>476.000000</ele>
                <time>2012-07-14T14:42:03Z</time>
            </trkpt>
            <trkpt lat="47.375649707" lon="6.777148917">
                <ele>476.000000</ele>
                <time>2012-07-14T14:42:08Z</time>
            </trkpt>
            <trkpt lat="47.375437142" lon="6.777091082">
                <ele>478.000000</ele>
                <time>2012-07-14T14:42:21Z</time>
            </trkpt>
            <trkpt lat="47.375404956" lon="6.777196024">
                <ele>479.000000</ele>
                <time>2012-07-14T14:42:27Z</time>
            </trkpt>
            <trkpt lat="47.375411661" lon="6.777230808">
                <ele>480.000000</ele>
                <time>2012-07-14T14:42:29Z</time>
            </trkpt>
            <trkpt lat="47.375437561" lon="6.777303144">
                <ele>481.000000</ele>
                <time>2012-07-14T14:42:33Z</time>
            </trkpt>
            <trkpt lat="47.375504952" lon="6.777487714">
                <ele>482.000000</ele>
                <time>2012-07-14T14:42:44Z</time>
            </trkpt>
            <trkpt lat="47.375597991" lon="6.777661471">
                <ele>483.000000</ele>
                <time>2012-07-14T14:42:56Z</time>
            </trkpt>
            <trkpt lat="47.375734532" lon="6.777837910">
                <ele>485.000000</ele>
                <time>2012-07-14T14:43:07Z</time>
            </trkpt>
            <trkpt lat="47.375865122" lon="6.778015103">
                <ele>487.000000</ele>
                <time>2012-07-14T14:43:17Z</time>
            </trkpt>
            <trkpt lat="47.376026055" lon="6.778199840">
                <ele>488.000000</ele>
                <time>2012-07-14T14:43:29Z</time>
            </trkpt>
            <trkpt lat="47.376226801" lon="6.778308386">
                <ele>489.000000</ele>
                <time>2012-07-14T14:43:41Z</time>
            </trkpt>
            <trkpt lat="47.376377759" lon="6.778339148">
                <ele>490.000000</ele>
                <time>2012-07-14T14:43:50Z</time>
            </trkpt>
            <trkpt lat="47.376526035" lon="6.778376112">
                <ele>491.000000</ele>
                <time>2012-07-14T14:44:00Z</time>
            </trkpt>
            <trkpt lat="47.376731308" lon="6.778389607">
                <ele>492.000000</ele>
                <time>2012-07-14T14:44:12Z</time>
            </trkpt>
            <trkpt lat="47.376986789" lon="6.778441239">
                <ele>494.000000</ele>
                <time>2012-07-14T14:44:27Z</time>
            </trkpt>
            <trkpt lat="47.377197426" lon="6.778509300">
                <ele>496.000000</ele>
                <time>2012-07-14T14:44:40Z</time>
            </trkpt>
            <trkpt lat="47.377433628" lon="6.778599573">
                <ele>498.000000</ele>
                <time>2012-07-14T14:44:56Z</time>
            </trkpt>
            <trkpt lat="47.377586262" lon="6.778661516">
                <ele>498.000000</ele>
                <time>2012-07-14T14:45:05Z</time>
            </trkpt>
            <trkpt lat="47.377664046" lon="6.778690936">
                <ele>499.000000</ele>
                <time>2012-07-14T14:45:09Z</time>
            </trkpt>
            <trkpt lat="47.377871834" lon="6.778778778">
                <ele>500.000000</ele>
                <time>2012-07-14T14:45:20Z</time>
            </trkpt>
            <trkpt lat="47.378127482" lon="6.778895203">
                <ele>501.000000</ele>
                <time>2012-07-14T14:45:32Z</time>
            </trkpt>
            <trkpt lat="47.378391177" lon="6.778989416">
                <ele>504.000000</ele>
                <time>2012-07-14T14:45:47Z</time>
            </trkpt>
            <trkpt lat="47.378640790" lon="6.779056387">
                <ele>506.000000</ele>
                <time>2012-07-14T14:46:01Z</time>
            </trkpt>
            <trkpt lat="47.378863413" lon="6.779106427">
                <ele>508.000000</ele>
                <time>2012-07-14T14:46:14Z</time>
            </trkpt>
            <trkpt lat="47.379103973" lon="6.779161915">
                <ele>510.000000</ele>
                <time>2012-07-14T14:46:29Z</time>
            </trkpt>
            <trkpt lat="47.379314611" lon="6.779237771">
                <ele>512.000000</ele>
                <time>2012-07-14T14:46:39Z</time>
            </trkpt>
            <trkpt lat="47.379572270" lon="6.779277082">
                <ele>513.000000</ele>
                <time>2012-07-14T14:46:51Z</time>
            </trkpt>
            <trkpt lat="47.379604960" lon="6.779291918">
                <ele>513.000000</ele>
                <time>2012-07-14T14:46:53Z</time>
            </trkpt>
            <trkpt lat="47.379637146" lon="6.779294768">
                <ele>514.000000</ele>
                <time>2012-07-14T14:46:56Z</time>
            </trkpt>
            <trkpt lat="47.379735215" lon="6.779295439">
                <ele>514.000000</ele>
                <time>2012-07-14T14:47:01Z</time>
            </trkpt>
            <trkpt lat="47.379998406" lon="6.779313125">
                <ele>516.000000</ele>
                <time>2012-07-14T14:47:14Z</time>
            </trkpt>
            <trkpt lat="47.380224466" lon="6.779303066">
                <ele>518.000000</ele>
                <time>2012-07-14T14:47:25Z</time>
            </trkpt>
            <trkpt lat="47.380419346" lon="6.779287392">
                <ele>519.000000</ele>
                <time>2012-07-14T14:47:34Z</time>
            </trkpt>
            <trkpt lat="47.380480450" lon="6.779263923">
                <ele>519.000000</ele>
                <time>2012-07-14T14:47:39Z</time>
            </trkpt>
            <trkpt lat="47.380780606" lon="6.779216398">
                <ele>521.000000</ele>
                <time>2012-07-14T14:47:53Z</time>
            </trkpt>
            <trkpt lat="47.381051257" lon="6.779157976">
                <ele>522.000000</ele>
                <time>2012-07-14T14:48:06Z</time>
            </trkpt>
            <trkpt lat="47.381270360" lon="6.779115144">
                <ele>524.000000</ele>
                <time>2012-07-14T14:48:19Z</time>
            </trkpt>
            <trkpt lat="47.381498264" lon="6.779044317">
                <ele>526.000000</ele>
                <time>2012-07-14T14:48:33Z</time>
            </trkpt>
            <trkpt lat="47.381545873" lon="6.779038953">
                <ele>526.000000</ele>
                <time>2012-07-14T14:48:36Z</time>
            </trkpt>
            <trkpt lat="47.381565068" lon="6.778982962">
                <ele>527.000000</ele>
                <time>2012-07-14T14:48:48Z</time>
            </trkpt>
            <trkpt lat="47.381546460" lon="6.778984387">
                <ele>528.000000</ele>
                <time>2012-07-14T14:49:20Z</time>
            </trkpt>
            <trkpt lat="47.381566660" lon="6.778945662">
                <ele>527.000000</ele>
                <time>2012-07-14T14:49:54Z</time>
            </trkpt>
            <trkpt lat="47.381575042" lon="6.778941890">
                <ele>527.000000</ele>
                <time>2012-07-14T14:50:18Z</time>
            </trkpt>
            <trkpt lat="47.381574791" lon="6.778973574">
                <ele>527.000000</ele>
                <time>2012-07-14T14:50:41Z</time>
            </trkpt>
            <trkpt lat="47.381580323" lon="6.778980363">
                <ele>527.000000</ele>
                <time>2012-07-14T14:50:42Z</time>
            </trkpt>
            <trkpt lat="47.381676380" lon="6.779068373">
                <ele>527.000000</ele>
                <time>2012-07-14T14:50:48Z</time>
            </trkpt>
            <trkpt lat="47.381771514" lon="6.779111791">
                <ele>528.000000</ele>
                <time>2012-07-14T14:50:53Z</time>
            </trkpt>
            <trkpt lat="47.382009476" lon="6.779162083">
                <ele>529.000000</ele>
                <time>2012-07-14T14:51:05Z</time>
            </trkpt>
            <trkpt lat="47.382276943" lon="6.779352604">
                <ele>531.000000</ele>
                <time>2012-07-14T14:51:18Z</time>
            </trkpt>
            <trkpt lat="47.382417088" lon="6.779667679">
                <ele>533.000000</ele>
                <time>2012-07-14T14:51:33Z</time>
            </trkpt>
            <trkpt lat="47.382446174" lon="6.779805478">
                <ele>534.000000</ele>
                <time>2012-07-14T14:51:37Z</time>
            </trkpt>
            <trkpt lat="47.382352715" lon="6.780231446">
                <ele>536.000000</ele>
                <time>2012-07-14T14:51:52Z</time>
            </trkpt>
            <trkpt lat="47.382014003" lon="6.780590024">
                <ele>538.000000</ele>
                <time>2012-07-14T14:52:09Z</time>
            </trkpt>
            <trkpt lat="47.381595913" lon="6.780844582">
                <ele>540.000000</ele>
                <time>2012-07-14T14:52:27Z</time>
            </trkpt>
            <trkpt lat="47.381165251" lon="6.781019680">
                <ele>542.000000</ele>
                <time>2012-07-14T14:52:45Z</time>
            </trkpt>
            <trkpt lat="47.380851516" lon="6.780982465">
                <ele>544.000000</ele>
                <time>2012-07-14T14:52:59Z</time>
            </trkpt>
            <trkpt lat="47.380650015" lon="6.780893868">
                <ele>545.000000</ele>
                <time>2012-07-14T14:53:09Z</time>
            </trkpt>
            <trkpt lat="47.380419010" lon="6.780809881">
                <ele>545.000000</ele>
                <time>2012-07-14T14:53:18Z</time>
            </trkpt>
            <trkpt lat="47.379875947" lon="6.780706113">
                <ele>547.000000</ele>
                <time>2012-07-14T14:53:32Z</time>
            </trkpt>
            <trkpt lat="47.379754158" lon="6.780678872">
                <ele>547.000000</ele>
                <time>2012-07-14T14:53:35Z</time>
            </trkpt>
            <trkpt lat="47.379604792" lon="6.780537553">
                <ele>547.000000</ele>
                <time>2012-07-14T14:53:39Z</time>
            </trkpt>
            <trkpt lat="47.379187290" lon="6.780065652">
                <ele>547.000000</ele>
                <time>2012-07-14T14:53:52Z</time>
            </trkpt>
            <trkpt lat="47.378783617" lon="6.780030616">
                <ele>547.000000</ele>
                <time>2012-07-14T14:54:04Z</time>
            </trkpt>
            <trkpt lat="47.378397463" lon="6.780212419">
                <ele>549.000000</ele>
                <time>2012-07-14T14:54:21Z</time>
            </trkpt>
            <trkpt lat="47.378155980" lon="6.780317444">
                <ele>550.000000</ele>
                <time>2012-07-14T14:54:33Z</time>
            </trkpt>
            <trkpt lat="47.377917850" lon="6.780384080">
                <ele>552.000000</ele>
                <time>2012-07-14T14:54:45Z</time>
            </trkpt>
            <trkpt lat="47.377737891" lon="6.780170174">
                <ele>553.000000</ele>
                <time>2012-07-14T14:54:58Z</time>
            </trkpt>
            <trkpt lat="47.377527421" lon="6.779887704">
                <ele>554.000000</ele>
                <time>2012-07-14T14:55:11Z</time>
            </trkpt>
            <trkpt lat="47.377238832" lon="6.779962303">
                <ele>557.000000</ele>
                <time>2012-07-14T14:55:27Z</time>
            </trkpt>
            <trkpt lat="47.377056610" lon="6.780271595">
                <ele>559.000000</ele>
                <time>2012-07-14T14:55:41Z</time>
            </trkpt>
            <trkpt lat="47.376850834" lon="6.780590192">
                <ele>561.000000</ele>
                <time>2012-07-14T14:55:53Z</time>
            </trkpt>
            <trkpt lat="47.376680011" lon="6.780929659">
                <ele>563.000000</ele>
                <time>2012-07-14T14:56:08Z</time>
            </trkpt>
            <trkpt lat="47.376615051" lon="6.781037534">
                <ele>563.000000</ele>
                <time>2012-07-14T14:56:15Z</time>
            </trkpt>
            <trkpt lat="47.376592252" lon="6.781036444">
                <ele>563.000000</ele>
                <time>2012-07-14T14:56:20Z</time>
            </trkpt>
            <trkpt lat="47.376579596" lon="6.781026553">
                <ele>564.000000</ele>
                <time>2012-07-14T14:56:22Z</time>
            </trkpt>
            <trkpt lat="47.376512540" lon="6.780947261">
                <ele>565.000000</ele>
                <time>2012-07-14T14:56:28Z</time>
            </trkpt>
            <trkpt lat="47.376522683" lon="6.780567812">
                <ele>567.000000</ele>
                <time>2012-07-14T14:56:44Z</time>
            </trkpt>
            <trkpt lat="47.376480941" lon="6.780192889">
                <ele>569.000000</ele>
                <time>2012-07-14T14:57:00Z</time>
            </trkpt>
            <trkpt lat="47.376200482" lon="6.780108567">
                <ele>571.000000</ele>
                <time>2012-07-14T14:57:15Z</time>
            </trkpt>
            <trkpt lat="47.376060085" lon="6.780411322">
                <ele>573.000000</ele>
                <time>2012-07-14T14:57:30Z</time>
            </trkpt>
            <trkpt lat="47.375945421" lon="6.780747520">
                <ele>575.000000</ele>
                <time>2012-07-14T14:57:45Z</time>
            </trkpt>
            <trkpt lat="47.375821034" lon="6.781077431">
                <ele>577.000000</ele>
                <time>2012-07-14T14:58:01Z</time>
            </trkpt>
            <trkpt lat="47.375632944" lon="6.781306090">
                <ele>580.000000</ele>
                <time>2012-07-14T14:58:17Z</time>
            </trkpt>
            <trkpt lat="47.375556082" lon="6.781277927">
                <ele>581.000000</ele>
                <time>2012-07-14T14:58:26Z</time>
            </trkpt>
            <trkpt lat="47.375549041" lon="6.781221349">
                <ele>581.000000</ele>
                <time>2012-07-14T14:58:30Z</time>
            </trkpt>
            <trkpt lat="47.375538815" lon="6.781011801">
                <ele>583.000000</ele>
                <time>2012-07-14T14:58:39Z</time>
            </trkpt>
            <trkpt lat="47.375526410" lon="6.780879702">
                <ele>584.000000</ele>
                <time>2012-07-14T14:58:45Z</time>
            </trkpt>
            <trkpt lat="47.375556668" lon="6.780755147">
                <ele>585.000000</ele>
                <time>2012-07-14T14:58:51Z</time>
            </trkpt>
            <trkpt lat="47.375469664" lon="6.780637046">
                <ele>585.000000</ele>
                <time>2012-07-14T14:58:58Z</time>
            </trkpt>
            <trkpt lat="47.375411326" lon="6.780612739">
                <ele>586.000000</ele>
                <time>2012-07-14T14:59:09Z</time>
            </trkpt>
            <trkpt lat="47.375399508" lon="6.780617265">
                <ele>587.000000</ele>
                <time>2012-07-14T14:59:35Z</time>
            </trkpt>
            <trkpt lat="47.375399005" lon="6.780614751">
                <ele>587.000000</ele>
                <time>2012-07-14T14:59:39Z</time>
            </trkpt>
            <trkpt lat="47.375367908" lon="6.780643249">
                <ele>587.000000</ele>
                <time>2012-07-14T14:59:43Z</time>
            </trkpt>
            <trkpt lat="47.375176465" lon="6.780936280">
                <ele>588.000000</ele>
                <time>2012-07-14T14:59:57Z</time>
            </trkpt>
            <trkpt lat="47.375106225" lon="6.781046754">
                <ele>588.000000</ele>
                <time>2012-07-14T15:00:02Z</time>
            </trkpt>
            <trkpt lat="47.375005223" lon="6.781173991">
                <ele>590.000000</ele>
                <time>2012-07-14T15:00:15Z</time>
            </trkpt>
            <trkpt lat="47.374859378" lon="6.781194946">
                <ele>592.000000</ele>
                <time>2012-07-14T15:00:27Z</time>
            </trkpt>
            <trkpt lat="47.374708168" lon="6.781251943">
                <ele>595.000000</ele>
                <time>2012-07-14T15:00:41Z</time>
            </trkpt>
            <trkpt lat="47.374463836" lon="6.781301061">
                <ele>598.000000</ele>
                <time>2012-07-14T15:00:57Z</time>
            </trkpt>
            <trkpt lat="47.374203997" lon="6.781304330">
                <ele>600.000000</ele>
                <time>2012-07-14T15:01:15Z</time>
            </trkpt>
            <trkpt lat="47.374000149" lon="6.781299971">
                <ele>602.000000</ele>
                <time>2012-07-14T15:01:29Z</time>
            </trkpt>
            <trkpt lat="47.373948768" lon="6.781277759">
                <ele>602.000000</ele>
                <time>2012-07-14T15:01:34Z</time>
            </trkpt>
            <trkpt lat="47.373907445" lon="6.781237358">
                <ele>603.000000</ele>
                <time>2012-07-14T15:01:46Z</time>
            </trkpt>
            <trkpt lat="47.373900153" lon="6.781218750">
                <ele>603.000000</ele>
                <time>2012-07-14T15:02:05Z</time>
            </trkpt>
            <trkpt lat="47.373801833" lon="6.780789932">
                <ele>603.000000</ele>
                <time>2012-07-14T15:02:17Z</time>
            </trkpt>
            <trkpt lat="47.373747267" lon="6.780567979">
                <ele>602.000000</ele>
                <time>2012-07-14T15:02:30Z</time>
            </trkpt>
            <trkpt lat="47.373727988" lon="6.780564794">
                <ele>601.000000</ele>
                <time>2012-07-14T15:02:47Z</time>
            </trkpt>
            <trkpt lat="47.373742573" lon="6.780513413">
                <ele>601.000000</ele>
                <time>2012-07-14T15:03:04Z</time>
            </trkpt>
            <trkpt lat="47.373729413" lon="6.780300764">
                <ele>600.000000</ele>
                <time>2012-07-14T15:03:11Z</time>
            </trkpt>
            <trkpt lat="47.373737376" lon="6.780256173">
                <ele>600.000000</ele>
                <time>2012-07-14T15:03:14Z</time>
            </trkpt>
            <trkpt lat="47.373841815" lon="6.780190375">
                <ele>600.000000</ele>
                <time>2012-07-14T15:03:19Z</time>
            </trkpt>
            <trkpt lat="47.374003502" lon="6.779910503">
                <ele>600.000000</ele>
                <time>2012-07-14T15:03:28Z</time>
            </trkpt>
            <trkpt lat="47.373955222" lon="6.779421754">
                <ele>600.000000</ele>
                <time>2012-07-14T15:03:40Z</time>
            </trkpt>
            <trkpt lat="47.373877354" lon="6.779323267">
                <ele>600.000000</ele>
                <time>2012-07-14T15:03:44Z</time>
            </trkpt>
            <trkpt lat="47.373781465" lon="6.779220421">
                <ele>600.000000</ele>
                <time>2012-07-14T15:03:49Z</time>
            </trkpt>
            <trkpt lat="47.373681720" lon="6.779176500">
                <ele>600.000000</ele>
                <time>2012-07-14T15:03:57Z</time>
            </trkpt>
            <trkpt lat="47.373693623" lon="6.779184798">
                <ele>600.000000</ele>
                <time>2012-07-14T15:04:22Z</time>
            </trkpt>
            <trkpt lat="47.373713907" lon="6.779189492">
                <ele>599.000000</ele>
                <time>2012-07-14T15:04:57Z</time>
            </trkpt>
            <trkpt lat="47.373743579" lon="6.779201059">
                <ele>599.000000</ele>
                <time>2012-07-14T15:05:27Z</time>
            </trkpt>
            <trkpt lat="47.373746261" lon="6.779183792">
                <ele>600.000000</ele>
                <time>2012-07-14T15:06:03Z</time>
            </trkpt>
            <trkpt lat="47.373741483" lon="6.779189995">
                <ele>600.000000</ele>
                <time>2012-07-14T15:06:28Z</time>
            </trkpt>
            <trkpt lat="47.373738885" lon="6.779194856">
                <ele>600.000000</ele>
                <time>2012-07-14T15:06:36Z</time>
            </trkpt>
            <trkpt lat="47.373823207" lon="6.779254032">
                <ele>600.000000</ele>
                <time>2012-07-14T15:06:42Z</time>
            </trkpt>
            <trkpt lat="47.374004172" lon="6.779532982">
                <ele>600.000000</ele>
                <time>2012-07-14T15:06:56Z</time>
            </trkpt>
            <trkpt lat="47.373995623" lon="6.780216694">
                <ele>600.000000</ele>
                <time>2012-07-14T15:07:05Z</time>
            </trkpt>
            <trkpt lat="47.373859165" lon="6.780254077">
                <ele>600.000000</ele>
                <time>2012-07-14T15:07:07Z</time>
            </trkpt>
            <trkpt lat="47.373791691" lon="6.780422218">
                <ele>600.000000</ele>
                <time>2012-07-14T15:07:17Z</time>
            </trkpt>
            <trkpt lat="47.373748524" lon="6.780533446">
                <ele>600.000000</ele>
                <time>2012-07-14T15:07:23Z</time>
            </trkpt>
            <trkpt lat="47.373752128" lon="6.780585917">
                <ele>600.000000</ele>
                <time>2012-07-14T15:07:40Z</time>
            </trkpt>
            <trkpt lat="47.373736538" lon="6.780556748">
                <ele>600.000000</ele>
                <time>2012-07-14T15:07:57Z</time>
            </trkpt>
            <trkpt lat="47.373739891" lon="6.780565800">
                <ele>600.000000</ele>
                <time>2012-07-14T15:08:32Z</time>
            </trkpt>
            <trkpt lat="47.373750787" lon="6.780584492">
                <ele>600.000000</ele>
                <time>2012-07-14T15:08:45Z</time>
            </trkpt>
            <trkpt lat="47.373814741" lon="6.780787082">
                <ele>600.000000</ele>
                <time>2012-07-14T15:08:53Z</time>
            </trkpt>
            <trkpt lat="47.373945415" lon="6.781228473">
                <ele>602.000000</ele>
                <time>2012-07-14T15:09:08Z</time>
            </trkpt>
            <trkpt lat="47.373937201" lon="6.781336935">
                <ele>602.000000</ele>
                <time>2012-07-14T15:09:13Z</time>
            </trkpt>
            <trkpt lat="47.373920018" lon="6.781425280">
                <ele>603.000000</ele>
                <time>2012-07-14T15:09:18Z</time>
            </trkpt>
            <trkpt lat="47.373901159" lon="6.781689394">
                <ele>603.000000</ele>
                <time>2012-07-14T15:09:30Z</time>
            </trkpt>
            <trkpt lat="47.373877438" lon="6.781643629">
                <ele>604.000000</ele>
                <time>2012-07-14T15:09:34Z</time>
            </trkpt>
            <trkpt lat="47.373752212" lon="6.781345904">
                <ele>604.000000</ele>
                <time>2012-07-14T15:09:46Z</time>
            </trkpt>
            <trkpt lat="47.373575438" lon="6.781250099">
                <ele>605.000000</ele>
                <time>2012-07-14T15:09:58Z</time>
            </trkpt>
            <trkpt lat="47.373427330" lon="6.781274490">
                <ele>607.000000</ele>
                <time>2012-07-14T15:10:12Z</time>
            </trkpt>
            <trkpt lat="47.373353150" lon="6.781322099">
                <ele>608.000000</ele>
                <time>2012-07-14T15:10:27Z</time>
            </trkpt>
            <trkpt lat="47.373319203" lon="6.781341294">
                <ele>609.000000</ele>
                <time>2012-07-14T15:10:51Z</time>
            </trkpt>
            <trkpt lat="47.373245358" lon="6.781413462">
                <ele>609.000000</ele>
                <time>2012-07-14T15:10:58Z</time>
            </trkpt>
            <trkpt lat="47.373169502" lon="6.781535754">
                <ele>611.000000</ele>
                <time>2012-07-14T15:11:06Z</time>
            </trkpt>
            <trkpt lat="47.373140752" lon="6.781556038">
                <ele>611.000000</ele>
                <time>2012-07-14T15:11:08Z</time>
            </trkpt>
            <trkpt lat="47.373019550" lon="6.781641953">
                <ele>612.000000</ele>
                <time>2012-07-14T15:11:16Z</time>
            </trkpt>
            <trkpt lat="47.372769686" lon="6.781755108">
                <ele>614.000000</ele>
                <time>2012-07-14T15:11:35Z</time>
            </trkpt>
            <trkpt lat="47.372606071" lon="6.781878741">
                <ele>618.000000</ele>
                <time>2012-07-14T15:11:51Z</time>
            </trkpt>
            <trkpt lat="47.372446312" lon="6.781971194">
                <ele>620.000000</ele>
                <time>2012-07-14T15:12:07Z</time>
            </trkpt>
            <trkpt lat="47.372336760" lon="6.782105556">
                <ele>622.000000</ele>
                <time>2012-07-14T15:12:21Z</time>
            </trkpt>
            <trkpt lat="47.372300047" lon="6.782170432">
                <ele>623.000000</ele>
                <time>2012-07-14T15:12:26Z</time>
            </trkpt>
            <trkpt lat="47.372256126" lon="6.782384086">
                <ele>624.000000</ele>
                <time>2012-07-14T15:12:42Z</time>
            </trkpt>
            <trkpt lat="47.372246571" lon="6.782396492">
                <ele>625.000000</ele>
                <time>2012-07-14T15:13:08Z</time>
            </trkpt>
            <trkpt lat="47.372242464" lon="6.782427505">
                <ele>625.000000</ele>
                <time>2012-07-14T15:13:16Z</time>
            </trkpt>
            <trkpt lat="47.372235926" lon="6.782519119">
                <ele>626.000000</ele>
                <time>2012-07-14T15:13:21Z</time>
            </trkpt>
            <trkpt lat="47.372144060" lon="6.782798571">
                <ele>627.000000</ele>
                <time>2012-07-14T15:13:37Z</time>
            </trkpt>
            <trkpt lat="47.372129140" lon="6.782857580">
                <ele>627.000000</ele>
                <time>2012-07-14T15:13:40Z</time>
            </trkpt>
            <trkpt lat="47.372066528" lon="6.782951374">
                <ele>628.000000</ele>
                <time>2012-07-14T15:13:47Z</time>
            </trkpt>
            <trkpt lat="47.371930406" lon="6.783127058">
                <ele>630.000000</ele>
                <time>2012-07-14T15:14:02Z</time>
            </trkpt>
            <trkpt lat="47.371906182" lon="6.783205681">
                <ele>631.000000</ele>
                <time>2012-07-14T15:14:06Z</time>
            </trkpt>
            <trkpt lat="47.371894782" lon="6.783357644">
                <ele>632.000000</ele>
                <time>2012-07-14T15:14:14Z</time>
            </trkpt>
            <trkpt lat="47.371893609" lon="6.783466106">
                <ele>633.000000</ele>
                <time>2012-07-14T15:14:19Z</time>
            </trkpt>
            <trkpt lat="47.371848011" lon="6.783702560">
                <ele>634.000000</ele>
                <time>2012-07-14T15:14:30Z</time>
            </trkpt>
            <trkpt lat="47.371846335" lon="6.783721587">
                <ele>634.000000</ele>
                <time>2012-07-14T15:14:31Z</time>
            </trkpt>
            <trkpt lat="47.371876845" lon="6.783950664">
                <ele>636.000000</ele>
                <time>2012-07-14T15:14:42Z</time>
            </trkpt>
            <trkpt lat="47.371904673" lon="6.784172952">
                <ele>637.000000</ele>
                <time>2012-07-14T15:14:53Z</time>
            </trkpt>
            <trkpt lat="47.371933004" lon="6.784370262">
                <ele>637.000000</ele>
                <time>2012-07-14T15:15:02Z</time>
            </trkpt>
            <trkpt lat="47.371953791" lon="6.784527591">
                <ele>638.000000</ele>
                <time>2012-07-14T15:15:09Z</time>
            </trkpt>
            <trkpt lat="47.371966196" lon="6.784737390">
                <ele>638.000000</ele>
                <time>2012-07-14T15:15:17Z</time>
            </trkpt>
            <trkpt lat="47.371945158" lon="6.785067637">
                <ele>639.000000</ele>
                <time>2012-07-14T15:15:25Z</time>
            </trkpt>
            <trkpt lat="47.371860081" lon="6.785280453">
                <ele>640.000000</ele>
                <time>2012-07-14T15:15:35Z</time>
            </trkpt>
            <trkpt lat="47.371711219" lon="6.785245333">
                <ele>641.000000</ele>
                <time>2012-07-14T15:15:41Z</time>
            </trkpt>
            <trkpt lat="47.371343924" lon="6.784888767">
                <ele>643.000000</ele>
                <time>2012-07-14T15:15:56Z</time>
            </trkpt>
            <trkpt lat="47.371322298" lon="6.784841996">
                <ele>644.000000</ele>
                <time>2012-07-14T15:15:58Z</time>
            </trkpt>
            <trkpt lat="47.371222135" lon="6.784599256">
                <ele>645.000000</ele>
                <time>2012-07-14T15:16:09Z</time>
            </trkpt>
            <trkpt lat="47.371146530" lon="6.784475874">
                <ele>646.000000</ele>
                <time>2012-07-14T15:16:14Z</time>
            </trkpt>
            <trkpt lat="47.371124821" lon="6.784352241">
                <ele>647.000000</ele>
                <time>2012-07-14T15:16:19Z</time>
            </trkpt>
            <trkpt lat="47.371117696" lon="6.784274625">
                <ele>648.000000</ele>
                <time>2012-07-14T15:16:32Z</time>
            </trkpt>
            <trkpt lat="47.371150302" lon="6.784266830">
                <ele>648.000000</ele>
                <time>2012-07-14T15:16:54Z</time>
            </trkpt>
            <trkpt lat="47.371151475" lon="6.784251491">
                <ele>649.000000</ele>
                <time>2012-07-14T15:17:19Z</time>
            </trkpt>
            <trkpt lat="47.371153571" lon="6.784275882">
                <ele>649.000000</ele>
                <time>2012-07-14T15:17:43Z</time>
            </trkpt>
            <trkpt lat="47.371150386" lon="6.784262555">
                <ele>650.000000</ele>
                <time>2012-07-14T15:18:11Z</time>
            </trkpt>
            <trkpt lat="47.371160779" lon="6.784236739">
                <ele>650.000000</ele>
                <time>2012-07-14T15:18:35Z</time>
            </trkpt>
            <trkpt lat="47.371178968" lon="6.784244785">
                <ele>649.000000</ele>
                <time>2012-07-14T15:19:07Z</time>
            </trkpt>
            <trkpt lat="47.371193301" lon="6.784231458">
                <ele>649.000000</ele>
                <time>2012-07-14T15:19:37Z</time>
            </trkpt>
            <trkpt lat="47.371200761" lon="6.784254340">
                <ele>650.000000</ele>
                <time>2012-07-14T15:20:13Z</time>
            </trkpt>
            <trkpt lat="47.371204700" lon="6.784247886">
                <ele>650.000000</ele>
                <time>2012-07-14T15:20:42Z</time>
            </trkpt>
            <trkpt lat="47.371209310" lon="6.784259118">
                <ele>650.000000</ele>
                <time>2012-07-14T15:21:14Z</time>
            </trkpt>
            <trkpt lat="47.371209562" lon="6.784244953">
                <ele>650.000000</ele>
                <time>2012-07-14T15:21:44Z</time>
            </trkpt>
            <trkpt lat="47.371201431" lon="6.784246378">
                <ele>650.000000</ele>
                <time>2012-07-14T15:22:20Z</time>
            </trkpt>
            <trkpt lat="47.371208305" lon="6.784272445">
                <ele>650.000000</ele>
                <time>2012-07-14T15:22:56Z</time>
            </trkpt>
            <trkpt lat="47.371214340" lon="6.784283593">
                <ele>650.000000</ele>
                <time>2012-07-14T15:23:22Z</time>
            </trkpt>
            <trkpt lat="47.371220207" lon="6.784270182">
                <ele>651.000000</ele>
                <time>2012-07-14T15:23:56Z</time>
            </trkpt>
            <trkpt lat="47.371216519" lon="6.784257358">
                <ele>651.000000</ele>
                <time>2012-07-14T15:24:11Z</time>
            </trkpt>
            <trkpt lat="47.371127503" lon="6.784077734">
                <ele>651.000000</ele>
                <time>2012-07-14T15:24:18Z</time>
            </trkpt>
            <trkpt lat="47.371060951" lon="6.783770537">
                <ele>652.000000</ele>
                <time>2012-07-14T15:24:29Z</time>
            </trkpt>
            <trkpt lat="47.371052653" lon="6.783676492">
                <ele>653.000000</ele>
                <time>2012-07-14T15:24:33Z</time>
            </trkpt>
            <trkpt lat="47.371035218" lon="6.783469627">
                <ele>653.000000</ele>
                <time>2012-07-14T15:24:40Z</time>
            </trkpt>
            <trkpt lat="47.371029602" lon="6.783353621">
                <ele>654.000000</ele>
                <time>2012-07-14T15:24:44Z</time>
            </trkpt>
            <trkpt lat="47.370993560" lon="6.783240298">
                <ele>655.000000</ele>
                <time>2012-07-14T15:24:48Z</time>
            </trkpt>
            <trkpt lat="47.370951986" lon="6.783176260">
                <ele>655.000000</ele>
                <time>2012-07-14T15:24:52Z</time>
            </trkpt>
            <trkpt lat="47.370935306" lon="6.783152036">
                <ele>655.000000</ele>
                <time>2012-07-14T15:24:54Z</time>
            </trkpt>
            <trkpt lat="47.370867832" lon="6.783125382">
                <ele>656.000000</ele>
                <time>2012-07-14T15:25:00Z</time>
            </trkpt>
            <trkpt lat="47.370801028" lon="6.783192521">
                <ele>658.000000</ele>
                <time>2012-07-14T15:25:09Z</time>
            </trkpt>
            <trkpt lat="47.370783929" lon="6.783227054">
                <ele>658.000000</ele>
                <time>2012-07-14T15:25:12Z</time>
            </trkpt>
            <trkpt lat="47.370764399" lon="6.783293439">
                <ele>658.000000</ele>
                <time>2012-07-14T15:25:16Z</time>
            </trkpt>
            <trkpt lat="47.370750317" lon="6.783408858">
                <ele>659.000000</ele>
                <time>2012-07-14T15:25:22Z</time>
            </trkpt>
            <trkpt lat="47.370660715" lon="6.783790821">
                <ele>661.000000</ele>
                <time>2012-07-14T15:25:37Z</time>
            </trkpt>
            <trkpt lat="47.370647555" lon="6.783849327">
                <ele>661.000000</ele>
                <time>2012-07-14T15:25:40Z</time>
            </trkpt>
            <trkpt lat="47.370610088" lon="6.784143029">
                <ele>662.000000</ele>
                <time>2012-07-14T15:25:52Z</time>
            </trkpt>
            <trkpt lat="47.370582428" lon="6.784267081">
                <ele>663.000000</ele>
                <time>2012-07-14T15:25:57Z</time>
            </trkpt>
            <trkpt lat="47.370565245" lon="6.784427008">
                <ele>664.000000</ele>
                <time>2012-07-14T15:26:03Z</time>
            </trkpt>
            <trkpt lat="47.370557031" lon="6.784515437">
                <ele>664.000000</ele>
                <time>2012-07-14T15:26:07Z</time>
            </trkpt>
            <trkpt lat="47.370542949" lon="6.784601267">
                <ele>665.000000</ele>
                <time>2012-07-14T15:26:11Z</time>
            </trkpt>
            <trkpt lat="47.370523084" lon="6.784778377">
                <ele>666.000000</ele>
                <time>2012-07-14T15:26:19Z</time>
            </trkpt>
            <trkpt lat="47.370524257" lon="6.784825735">
                <ele>666.000000</ele>
                <time>2012-07-14T15:26:22Z</time>
            </trkpt>
            <trkpt lat="47.370509589" lon="6.784858759">
                <ele>666.000000</ele>
                <time>2012-07-14T15:26:24Z</time>
            </trkpt>
            <trkpt lat="47.370488886" lon="6.784881055">
                <ele>666.000000</ele>
                <time>2012-07-14T15:26:26Z</time>
            </trkpt>
            <trkpt lat="47.370426524" lon="6.784889940">
                <ele>667.000000</ele>
                <time>2012-07-14T15:26:31Z</time>
            </trkpt>
            <trkpt lat="47.370386459" lon="6.784885079">
                <ele>668.000000</ele>
                <time>2012-07-14T15:26:34Z</time>
            </trkpt>
            <trkpt lat="47.370300712" lon="6.784827579">
                <ele>668.000000</ele>
                <time>2012-07-14T15:26:40Z</time>
            </trkpt>
            <trkpt lat="47.370206332" lon="6.784656169">
                <ele>669.000000</ele>
                <time>2012-07-14T15:26:50Z</time>
            </trkpt>
            <trkpt lat="47.370183533" lon="6.784379315">
                <ele>670.000000</ele>
                <time>2012-07-14T15:27:03Z</time>
            </trkpt>
            <trkpt lat="47.370163584" lon="6.783922669">
                <ele>672.000000</ele>
                <time>2012-07-14T15:27:17Z</time>
            </trkpt>
            <trkpt lat="47.370151933" lon="6.783511955">
                <ele>673.000000</ele>
                <time>2012-07-14T15:27:29Z</time>
            </trkpt>
            <trkpt lat="47.370142126" lon="6.783089424">
                <ele>673.000000</ele>
                <time>2012-07-14T15:27:40Z</time>
            </trkpt>
            <trkpt lat="47.370153945" lon="6.782751214">
                <ele>674.000000</ele>
                <time>2012-07-14T15:27:48Z</time>
            </trkpt>
            <trkpt lat="47.370117400" lon="6.782316109">
                <ele>675.000000</ele>
                <time>2012-07-14T15:27:59Z</time>
            </trkpt>
            <trkpt lat="47.370105246" lon="6.781996507">
                <ele>677.000000</ele>
                <time>2012-07-14T15:28:09Z</time>
            </trkpt>
            <trkpt lat="47.369961664" lon="6.781804226">
                <ele>679.000000</ele>
                <time>2012-07-14T15:28:21Z</time>
            </trkpt>
            <trkpt lat="47.369940709" lon="6.781784948">
                <ele>679.000000</ele>
                <time>2012-07-14T15:28:23Z</time>
            </trkpt>
            <trkpt lat="47.369862171" lon="6.781838089">
                <ele>680.000000</ele>
                <time>2012-07-14T15:28:37Z</time>
            </trkpt>
            <trkpt lat="47.369818417" lon="6.782007068">
                <ele>681.000000</ele>
                <time>2012-07-14T15:28:59Z</time>
            </trkpt>
            <trkpt lat="47.369766785" lon="6.782321390">
                <ele>682.000000</ele>
                <time>2012-07-14T15:29:10Z</time>
            </trkpt>
            <trkpt lat="47.369718170" lon="6.782633616">
                <ele>684.000000</ele>
                <time>2012-07-14T15:29:24Z</time>
            </trkpt>
            <trkpt lat="47.369658407" lon="6.782959923">
                <ele>687.000000</ele>
                <time>2012-07-14T15:29:38Z</time>
            </trkpt>
            <trkpt lat="47.369642230" lon="6.783032091">
                <ele>687.000000</ele>
                <time>2012-07-14T15:29:41Z</time>
            </trkpt>
            <trkpt lat="47.369602080" lon="6.783199478">
                <ele>688.000000</ele>
                <time>2012-07-14T15:29:48Z</time>
            </trkpt>
            <trkpt lat="47.369544832" lon="6.783460239">
                <ele>690.000000</ele>
                <time>2012-07-14T15:29:59Z</time>
            </trkpt>
            <trkpt lat="47.369525638" lon="6.783599295">
                <ele>690.000000</ele>
                <time>2012-07-14T15:30:04Z</time>
            </trkpt>
            <trkpt lat="47.369475597" lon="6.783923507">
                <ele>692.000000</ele>
                <time>2012-07-14T15:30:18Z</time>
            </trkpt>
            <trkpt lat="47.369440980" lon="6.784104137">
                <ele>693.000000</ele>
                <time>2012-07-14T15:30:27Z</time>
            </trkpt>
            <trkpt lat="47.369441483" lon="6.784203378">
                <ele>693.000000</ele>
                <time>2012-07-14T15:30:31Z</time>
            </trkpt>
            <trkpt lat="47.369413488" lon="6.784494733">
                <ele>695.000000</ele>
                <time>2012-07-14T15:30:43Z</time>
            </trkpt>
            <trkpt lat="47.369402675" lon="6.784628173">
                <ele>695.000000</ele>
                <time>2012-07-14T15:30:48Z</time>
            </trkpt>
            <trkpt lat="47.369357496" lon="6.784991194">
                <ele>697.000000</ele>
                <time>2012-07-14T15:31:02Z</time>
            </trkpt>
            <trkpt lat="47.369327322" lon="6.785309203">
                <ele>698.000000</ele>
                <time>2012-07-14T15:31:15Z</time>
            </trkpt>
            <trkpt lat="47.369285244" lon="6.785686891">
                <ele>700.000000</ele>
                <time>2012-07-14T15:31:31Z</time>
            </trkpt>
            <trkpt lat="47.369261021" lon="6.785804070">
                <ele>700.000000</ele>
                <time>2012-07-14T15:31:36Z</time>
            </trkpt>
            <trkpt lat="47.369250879" lon="6.786011774">
                <ele>701.000000</ele>
                <time>2012-07-14T15:31:45Z</time>
            </trkpt>
            <trkpt lat="47.369245682" lon="6.786094420">
                <ele>701.000000</ele>
                <time>2012-07-14T15:31:49Z</time>
            </trkpt>
            <trkpt lat="47.369223051" lon="6.786424834">
                <ele>703.000000</ele>
                <time>2012-07-14T15:32:04Z</time>
            </trkpt>
            <trkpt lat="47.369207209" lon="6.786552994">
                <ele>704.000000</ele>
                <time>2012-07-14T15:32:09Z</time>
            </trkpt>
            <trkpt lat="47.369166808" lon="6.786714429">
                <ele>705.000000</ele>
                <time>2012-07-14T15:32:16Z</time>
            </trkpt>
            <trkpt lat="47.368976120" lon="6.786638573">
                <ele>707.000000</ele>
                <time>2012-07-14T15:32:30Z</time>
            </trkpt>
            <trkpt lat="47.368940329" lon="6.786486190">
                <ele>708.000000</ele>
                <time>2012-07-14T15:32:41Z</time>
            </trkpt>
            <trkpt lat="47.368934965" lon="6.786454255">
                <ele>708.000000</ele>
                <time>2012-07-14T15:32:43Z</time>
            </trkpt>
            <trkpt lat="47.368944017" lon="6.786184441">
                <ele>709.000000</ele>
                <time>2012-07-14T15:32:57Z</time>
            </trkpt>
            <trkpt lat="47.368949465" lon="6.786041027">
                <ele>710.000000</ele>
                <time>2012-07-14T15:33:03Z</time>
            </trkpt>
            <trkpt lat="47.368954411" lon="6.785640288">
                <ele>711.000000</ele>
                <time>2012-07-14T15:33:17Z</time>
            </trkpt>
            <trkpt lat="47.369048288" lon="6.785062440">
                <ele>712.000000</ele>
                <time>2012-07-14T15:33:34Z</time>
            </trkpt>
            <trkpt lat="47.368972264" lon="6.784837553">
                <ele>713.000000</ele>
                <time>2012-07-14T15:33:41Z</time>
            </trkpt>
            <trkpt lat="47.368790042" lon="6.784865800">
                <ele>714.000000</ele>
                <time>2012-07-14T15:33:52Z</time>
            </trkpt>
            <trkpt lat="47.368801860" lon="6.784845348">
                <ele>714.000000</ele>
                <time>2012-07-14T15:33:57Z</time>
            </trkpt>
            <trkpt lat="47.368807057" lon="6.784713753">
                <ele>715.000000</ele>
                <time>2012-07-14T15:34:08Z</time>
            </trkpt>
            <trkpt lat="47.368755341" lon="6.784560196">
                <ele>717.000000</ele>
                <time>2012-07-14T15:34:25Z</time>
            </trkpt>
            <trkpt lat="47.368723741" lon="6.784504876">
                <ele>717.000000</ele>
                <time>2012-07-14T15:34:39Z</time>
            </trkpt>
            <trkpt lat="47.368717874" lon="6.784506217">
                <ele>718.000000</ele>
                <time>2012-07-14T15:35:13Z</time>
            </trkpt>
            <trkpt lat="47.368719382" lon="6.784505043">
                <ele>718.000000</ele>
                <time>2012-07-14T15:35:42Z</time>
            </trkpt>
            <trkpt lat="47.368717622" lon="6.784513509">
                <ele>718.000000</ele>
                <time>2012-07-14T15:36:09Z</time>
            </trkpt>
            <trkpt lat="47.368727094" lon="6.784524992">
                <ele>718.000000</ele>
                <time>2012-07-14T15:36:29Z</time>
            </trkpt>
            <trkpt lat="47.368732877" lon="6.784535218">
                <ele>718.000000</ele>
                <time>2012-07-14T15:36:30Z</time>
            </trkpt>
            <trkpt lat="47.368797502" lon="6.784676956">
                <ele>718.000000</ele>
                <time>2012-07-14T15:36:37Z</time>
            </trkpt>
            <trkpt lat="47.368817115" lon="6.784732863">
                <ele>718.000000</ele>
                <time>2012-07-14T15:36:40Z</time>
            </trkpt>
            <trkpt lat="47.368753245" lon="6.784927323">
                <ele>717.000000</ele>
                <time>2012-07-14T15:36:48Z</time>
            </trkpt>
            <trkpt lat="47.368726255" lon="6.785380449">
                <ele>717.000000</ele>
                <time>2012-07-14T15:37:05Z</time>
            </trkpt>
            <trkpt lat="47.368685603" lon="6.785700219">
                <ele>718.000000</ele>
                <time>2012-07-14T15:37:17Z</time>
            </trkpt>
            <trkpt lat="47.368587032" lon="6.786092073">
                <ele>720.000000</ele>
                <time>2012-07-14T15:37:31Z</time>
            </trkpt>
            <trkpt lat="47.368554929" lon="6.786256861">
                <ele>721.000000</ele>
                <time>2012-07-14T15:37:38Z</time>
            </trkpt>
            <trkpt lat="47.368531544" lon="6.786387786">
                <ele>723.000000</ele>
                <time>2012-07-14T15:37:43Z</time>
            </trkpt>
            <trkpt lat="47.368510673" lon="6.786597334">
                <ele>724.000000</ele>
                <time>2012-07-14T15:37:51Z</time>
            </trkpt>
            <trkpt lat="47.368491730" lon="6.786720632">
                <ele>724.000000</ele>
                <time>2012-07-14T15:37:56Z</time>
            </trkpt>
            <trkpt lat="47.368440265" lon="6.787000755">
                <ele>725.000000</ele>
                <time>2012-07-14T15:38:07Z</time>
            </trkpt>
            <trkpt lat="47.368410006" lon="6.787219690">
                <ele>727.000000</ele>
                <time>2012-07-14T15:38:15Z</time>
            </trkpt>
            <trkpt lat="47.368382011" lon="6.787486319">
                <ele>728.000000</ele>
                <time>2012-07-14T15:38:24Z</time>
            </trkpt>
            <trkpt lat="47.368322667" lon="6.787856882">
                <ele>730.000000</ele>
                <time>2012-07-14T15:38:36Z</time>
            </trkpt>
            <trkpt lat="47.368287882" lon="6.788054444">
                <ele>731.000000</ele>
                <time>2012-07-14T15:38:43Z</time>
            </trkpt>
            <trkpt lat="47.368168440" lon="6.788461721">
                <ele>733.000000</ele>
                <time>2012-07-14T15:38:56Z</time>
            </trkpt>
            <trkpt lat="47.368032066" lon="6.788896993">
                <ele>735.000000</ele>
                <time>2012-07-14T15:39:08Z</time>
            </trkpt>
            <trkpt lat="47.367834840" lon="6.789338971">
                <ele>737.000000</ele>
                <time>2012-07-14T15:39:22Z</time>
            </trkpt>
            <trkpt lat="47.367705423" lon="6.789824869">
                <ele>739.000000</ele>
                <time>2012-07-14T15:39:36Z</time>
            </trkpt>
            <trkpt lat="47.367590759" lon="6.790236924">
                <ele>741.000000</ele>
                <time>2012-07-14T15:39:50Z</time>
            </trkpt>
            <trkpt lat="47.367536193" lon="6.790578151">
                <ele>743.000000</ele>
                <time>2012-07-14T15:40:02Z</time>
            </trkpt>
            <trkpt lat="47.367391940" lon="6.791012669">
                <ele>746.000000</ele>
                <time>2012-07-14T15:40:16Z</time>
            </trkpt>
            <trkpt lat="47.367252465" lon="6.791435955">
                <ele>748.000000</ele>
                <time>2012-07-14T15:40:29Z</time>
            </trkpt>
            <trkpt lat="47.367144842" lon="6.791808447">
                <ele>750.000000</ele>
                <time>2012-07-14T15:40:41Z</time>
            </trkpt>
            <trkpt lat="47.367015425" lon="6.792290574">
                <ele>752.000000</ele>
                <time>2012-07-14T15:40:56Z</time>
            </trkpt>
            <trkpt lat="47.366994386" lon="6.792759877">
                <ele>754.000000</ele>
                <time>2012-07-14T15:41:08Z</time>
            </trkpt>
            <trkpt lat="47.366995057" lon="6.793158520">
                <ele>755.000000</ele>
                <time>2012-07-14T15:41:19Z</time>
            </trkpt>
            <trkpt lat="47.366923392" lon="6.793642659">
                <ele>757.000000</ele>
                <time>2012-07-14T15:41:32Z</time>
            </trkpt>
            <trkpt lat="47.366892043" lon="6.793858157">
                <ele>758.000000</ele>
                <time>2012-07-14T15:41:36Z</time>
            </trkpt>
            <trkpt lat="47.366726082" lon="6.794520747">
                <ele>759.000000</ele>
                <time>2012-07-14T15:41:50Z</time>
            </trkpt>
            <trkpt lat="47.366576381" lon="6.795078060">
                <ele>761.000000</ele>
                <time>2012-07-14T15:42:03Z</time>
            </trkpt>
            <trkpt lat="47.366395835" lon="6.795589272">
                <ele>762.000000</ele>
                <time>2012-07-14T15:42:15Z</time>
            </trkpt>
            <trkpt lat="47.366195088" lon="6.796025298">
                <ele>764.000000</ele>
                <time>2012-07-14T15:42:26Z</time>
            </trkpt>
            <trkpt lat="47.366023930" lon="6.796373147">
                <ele>766.000000</ele>
                <time>2012-07-14T15:42:39Z</time>
            </trkpt>
            <trkpt lat="47.366033904" lon="6.796382451">
                <ele>766.000000</ele>
                <time>2012-07-14T15:42:54Z</time>
            </trkpt>
            <trkpt lat="47.366015883" lon="6.796372728">
                <ele>767.000000</ele>
                <time>2012-07-14T15:43:27Z</time>
            </trkpt>
            <trkpt lat="47.366017224" lon="6.796358647">
                <ele>767.000000</ele>
                <time>2012-07-14T15:43:56Z</time>
            </trkpt>
            <trkpt lat="47.366027366" lon="6.796385469">
                <ele>768.000000</ele>
                <time>2012-07-14T15:44:13Z</time>
            </trkpt>
            <trkpt lat="47.366040442" lon="6.796406759">
                <ele>768.000000</ele>
                <time>2012-07-14T15:44:44Z</time>
            </trkpt>
            <trkpt lat="47.366032982" lon="6.796378680">
                <ele>768.000000</ele>
                <time>2012-07-14T15:44:50Z</time>
            </trkpt>
            <trkpt lat="47.366028121" lon="6.796300225">
                <ele>768.000000</ele>
                <time>2012-07-14T15:44:54Z</time>
            </trkpt>
            <trkpt lat="47.365997611" lon="6.796195703">
                <ele>770.000000</ele>
                <time>2012-07-14T15:45:09Z</time>
            </trkpt>
            <trkpt lat="47.365998784" lon="6.796211796">
                <ele>770.000000</ele>
                <time>2012-07-14T15:45:14Z</time>
            </trkpt>
            <trkpt lat="47.366008842" lon="6.796345571">
                <ele>770.000000</ele>
                <time>2012-07-14T15:45:19Z</time>
            </trkpt>
            <trkpt lat="47.366025522" lon="6.796435928">
                <ele>770.000000</ele>
                <time>2012-07-14T15:45:36Z</time>
            </trkpt>
            <trkpt lat="47.366039436" lon="6.796416985">
                <ele>770.000000</ele>
                <time>2012-07-14T15:45:58Z</time>
            </trkpt>
            <trkpt lat="47.366031725" lon="6.796405083">
                <ele>770.000000</ele>
                <time>2012-07-14T15:46:35Z</time>
            </trkpt>
            <trkpt lat="47.366026696" lon="6.796419751">
                <ele>770.000000</ele>
                <time>2012-07-14T15:46:37Z</time>
            </trkpt>
            <trkpt lat="47.365905745" lon="6.796714207">
                <ele>770.000000</ele>
                <time>2012-07-14T15:46:51Z</time>
            </trkpt>
            <trkpt lat="47.365812957" lon="6.796783190">
                <ele>770.000000</ele>
                <time>2012-07-14T15:46:56Z</time>
            </trkpt>
            <trkpt lat="47.365611959" lon="6.797047304">
                <ele>771.000000</ele>
                <time>2012-07-14T15:47:08Z</time>
            </trkpt>
            <trkpt lat="47.365441136" lon="6.797399595">
                <ele>772.000000</ele>
                <time>2012-07-14T15:47:18Z</time>
            </trkpt>
            <trkpt lat="47.365295710" lon="6.797874179">
                <ele>772.000000</ele>
                <time>2012-07-14T15:47:28Z</time>
            </trkpt>
            <trkpt lat="47.365190433" lon="6.798341889">
                <ele>772.000000</ele>
                <time>2012-07-14T15:47:39Z</time>
            </trkpt>
            <trkpt lat="47.365187332" lon="6.798378853">
                <ele>772.000000</ele>
                <time>2012-07-14T15:47:40Z</time>
            </trkpt>
            <trkpt lat="47.365155481" lon="6.798729803">
                <ele>773.000000</ele>
                <time>2012-07-14T15:47:53Z</time>
            </trkpt>
            <trkpt lat="47.365147350" lon="6.799045214">
                <ele>773.000000</ele>
                <time>2012-07-14T15:48:03Z</time>
            </trkpt>
            <trkpt lat="47.365157828" lon="6.799384849">
                <ele>774.000000</ele>
                <time>2012-07-14T15:48:14Z</time>
            </trkpt>
            <trkpt lat="47.365184314" lon="6.799621554">
                <ele>775.000000</ele>
                <time>2012-07-14T15:48:22Z</time>
            </trkpt>
            <trkpt lat="47.365192780" lon="6.800255310">
                <ele>776.000000</ele>
                <time>2012-07-14T15:48:37Z</time>
            </trkpt>
            <trkpt lat="47.365174256" lon="6.800739868">
                <ele>777.000000</ele>
                <time>2012-07-14T15:48:48Z</time>
            </trkpt>
            <trkpt lat="47.365172999" lon="6.801338755">
                <ele>777.000000</ele>
                <time>2012-07-14T15:48:59Z</time>
            </trkpt>
            <trkpt lat="47.365212813" lon="6.802089522">
                <ele>777.000000</ele>
                <time>2012-07-14T15:49:11Z</time>
            </trkpt>
            <trkpt lat="47.365200911" lon="6.802591598">
                <ele>777.000000</ele>
                <time>2012-07-14T15:49:18Z</time>
            </trkpt>
            <trkpt lat="47.365204264" lon="6.803822648">
                <ele>777.000000</ele>
                <time>2012-07-14T15:49:34Z</time>
            </trkpt>
            <trkpt lat="47.365206024" lon="6.803992298">
                <ele>777.000000</ele>
                <time>2012-07-14T15:49:36Z</time>
            </trkpt>
            <trkpt lat="47.365187835" lon="6.805015644">
                <ele>775.000000</ele>
                <time>2012-07-14T15:49:48Z</time>
            </trkpt>
            <trkpt lat="47.365170568" lon="6.805339688">
                <ele>775.000000</ele>
                <time>2012-07-14T15:49:52Z</time>
            </trkpt>
            <trkpt lat="47.365159588" lon="6.805576393">
                <ele>774.000000</ele>
                <time>2012-07-14T15:49:55Z</time>
            </trkpt>
            <trkpt lat="47.365142070" lon="6.805886943">
                <ele>774.000000</ele>
                <time>2012-07-14T15:49:59Z</time>
            </trkpt>
            <trkpt lat="47.365112649" lon="6.806824710">
                <ele>774.000000</ele>
                <time>2012-07-14T15:50:11Z</time>
            </trkpt>
            <trkpt lat="47.365111811" lon="6.807194604">
                <ele>774.000000</ele>
                <time>2012-07-14T15:50:16Z</time>
            </trkpt>
            <trkpt lat="47.365107955" lon="6.807486042">
                <ele>774.000000</ele>
                <time>2012-07-14T15:50:20Z</time>
            </trkpt>
            <trkpt lat="47.365089683" lon="6.807810590">
                <ele>774.000000</ele>
                <time>2012-07-14T15:50:24Z</time>
            </trkpt>
            <trkpt lat="47.365090353" lon="6.808106555">
                <ele>774.000000</ele>
                <time>2012-07-14T15:50:28Z</time>
            </trkpt>
            <trkpt lat="47.365090437" lon="6.808779286">
                <ele>773.000000</ele>
                <time>2012-07-14T15:50:39Z</time>
            </trkpt>
            <trkpt lat="47.365118600" lon="6.809130069">
                <ele>773.000000</ele>
                <time>2012-07-14T15:50:53Z</time>
            </trkpt>
            <trkpt lat="47.365163444" lon="6.809501136">
                <ele>773.000000</ele>
                <time>2012-07-14T15:51:05Z</time>
            </trkpt>
            <trkpt lat="47.365152463" lon="6.809865581">
                <ele>773.000000</ele>
                <time>2012-07-14T15:51:16Z</time>
            </trkpt>
            <trkpt lat="47.365120444" lon="6.810240336">
                <ele>772.000000</ele>
                <time>2012-07-14T15:51:26Z</time>
            </trkpt>
            <trkpt lat="47.365069315" lon="6.810726570">
                <ele>772.000000</ele>
                <time>2012-07-14T15:51:37Z</time>
            </trkpt>
            <trkpt lat="47.364955908" lon="6.811287235">
                <ele>772.000000</ele>
                <time>2012-07-14T15:51:49Z</time>
            </trkpt>
            <trkpt lat="47.364818444" lon="6.811737763">
                <ele>772.000000</ele>
                <time>2012-07-14T15:51:59Z</time>
            </trkpt>
            <trkpt lat="47.364653321" lon="6.812204383">
                <ele>773.000000</ele>
                <time>2012-07-14T15:52:11Z</time>
            </trkpt>
            <trkpt lat="47.364579896" lon="6.812419882">
                <ele>774.000000</ele>
                <time>2012-07-14T15:52:17Z</time>
            </trkpt>
            <trkpt lat="47.364364229" lon="6.812900668">
                <ele>775.000000</ele>
                <time>2012-07-14T15:52:30Z</time>
            </trkpt>
            <trkpt lat="47.364293653" lon="6.813078281">
                <ele>776.000000</ele>
                <time>2012-07-14T15:52:36Z</time>
            </trkpt>
            <trkpt lat="47.364293067" lon="6.813178863">
                <ele>776.000000</ele>
                <time>2012-07-14T15:52:39Z</time>
            </trkpt>
            <trkpt lat="47.364126686" lon="6.813631151">
                <ele>777.000000</ele>
                <time>2012-07-14T15:52:52Z</time>
            </trkpt>
            <trkpt lat="47.363989055" lon="6.813996350">
                <ele>778.000000</ele>
                <time>2012-07-14T15:53:04Z</time>
            </trkpt>
            <trkpt lat="47.363869948" lon="6.814401448">
                <ele>779.000000</ele>
                <time>2012-07-14T15:53:15Z</time>
            </trkpt>
            <trkpt lat="47.363713207" lon="6.814809898">
                <ele>781.000000</ele>
                <time>2012-07-14T15:53:25Z</time>
            </trkpt>
            <trkpt lat="47.363524782" lon="6.815327480">
                <ele>782.000000</ele>
                <time>2012-07-14T15:53:38Z</time>
            </trkpt>
            <trkpt lat="47.363486141" lon="6.815439211">
                <ele>782.000000</ele>
                <time>2012-07-14T15:53:42Z</time>
            </trkpt>
            <trkpt lat="47.363418667" lon="6.815581033">
                <ele>783.000000</ele>
                <time>2012-07-14T15:53:48Z</time>
            </trkpt>
            <trkpt lat="47.363202162" lon="6.815964673">
                <ele>784.000000</ele>
                <time>2012-07-14T15:54:02Z</time>
            </trkpt>
            <trkpt lat="47.362997057" lon="6.816356527">
                <ele>786.000000</ele>
                <time>2012-07-14T15:54:15Z</time>
            </trkpt>
            <trkpt lat="47.362843333" lon="6.816721307">
                <ele>786.000000</ele>
                <time>2012-07-14T15:54:27Z</time>
            </trkpt>
            <trkpt lat="47.362740403" lon="6.817085752">
                <ele>787.000000</ele>
                <time>2012-07-14T15:54:38Z</time>
            </trkpt>
            <trkpt lat="47.362587098" lon="6.817519851">
                <ele>788.000000</ele>
                <time>2012-07-14T15:54:51Z</time>
            </trkpt>
            <trkpt lat="47.362428429" lon="6.817979012">
                <ele>790.000000</ele>
                <time>2012-07-14T15:55:04Z</time>
            </trkpt>
            <trkpt lat="47.362237740" lon="6.818488799">
                <ele>792.000000</ele>
                <time>2012-07-14T15:55:18Z</time>
            </trkpt>
            <trkpt lat="47.362091895" lon="6.818897165">
                <ele>793.000000</ele>
                <time>2012-07-14T15:55:30Z</time>
            </trkpt>
            <trkpt lat="47.361962060" lon="6.819291701">
                <ele>794.000000</ele>
                <time>2012-07-14T15:55:43Z</time>
            </trkpt>
            <trkpt lat="47.361797271" lon="6.819689339">
                <ele>795.000000</ele>
                <time>2012-07-14T15:55:57Z</time>
            </trkpt>
            <trkpt lat="47.361721164" lon="6.819868376">
                <ele>796.000000</ele>
                <time>2012-07-14T15:56:03Z</time>
            </trkpt>
            <trkpt lat="47.361715715" lon="6.819984298">
                <ele>796.000000</ele>
                <time>2012-07-14T15:56:07Z</time>
            </trkpt>
            <trkpt lat="47.361725774" lon="6.820018161">
                <ele>796.000000</ele>
                <time>2012-07-14T15:56:09Z</time>
            </trkpt>
            <trkpt lat="47.361927694" lon="6.820196277">
                <ele>798.000000</ele>
                <time>2012-07-14T15:56:23Z</time>
            </trkpt>
            <trkpt lat="47.362155682" lon="6.820459468">
                <ele>799.000000</ele>
                <time>2012-07-14T15:56:36Z</time>
            </trkpt>
            <trkpt lat="47.362228772" lon="6.820623251">
                <ele>801.000000</ele>
                <time>2012-07-14T15:56:43Z</time>
            </trkpt>
            <trkpt lat="47.362251738" lon="6.820745878">
                <ele>801.000000</ele>
                <time>2012-07-14T15:56:48Z</time>
            </trkpt>
            <trkpt lat="47.362267747" lon="6.820974620">
                <ele>802.000000</ele>
                <time>2012-07-14T15:56:56Z</time>
            </trkpt>
            <trkpt lat="47.362302951" lon="6.821205374">
                <ele>803.000000</ele>
                <time>2012-07-14T15:57:03Z</time>
            </trkpt>
            <trkpt lat="47.362320721" lon="6.821443168">
                <ele>803.000000</ele>
                <time>2012-07-14T15:57:17Z</time>
            </trkpt>
            <trkpt lat="47.362326253" lon="6.821522377">
                <ele>803.000000</ele>
                <time>2012-07-14T15:57:42Z</time>
            </trkpt>
            <trkpt lat="47.362285685" lon="6.821856564">
                <ele>803.000000</ele>
                <time>2012-07-14T15:57:57Z</time>
            </trkpt>
            <trkpt lat="47.362263808" lon="6.821943652">
                <ele>803.000000</ele>
                <time>2012-07-14T15:58:07Z</time>
            </trkpt>
            <trkpt lat="47.362178983" lon="6.821989333">
                <ele>804.000000</ele>
                <time>2012-07-14T15:58:23Z</time>
            </trkpt>
            <trkpt lat="47.362176804" lon="6.821991345">
                <ele>803.000000</ele>
                <time>2012-07-14T15:58:25Z</time>
            </trkpt>
            <trkpt lat="47.362163393" lon="6.822112463">
                <ele>803.000000</ele>
                <time>2012-07-14T15:58:32Z</time>
            </trkpt>
            <trkpt lat="47.362150736" lon="6.822230397">
                <ele>803.000000</ele>
                <time>2012-07-14T15:58:37Z</time>
            </trkpt>
            <trkpt lat="47.362130703" lon="6.822389150">
                <ele>803.000000</ele>
                <time>2012-07-14T15:58:42Z</time>
            </trkpt>
            <trkpt lat="47.362123746" lon="6.822589058">
                <ele>803.000000</ele>
                <time>2012-07-14T15:58:49Z</time>
            </trkpt>
            <trkpt lat="47.362106647" lon="6.822727947">
                <ele>803.000000</ele>
                <time>2012-07-14T15:58:54Z</time>
            </trkpt>
            <trkpt lat="47.362091895" lon="6.822880749">
                <ele>804.000000</ele>
                <time>2012-07-14T15:58:59Z</time>
            </trkpt>
            <trkpt lat="47.362061637" lon="6.823227005">
                <ele>805.000000</ele>
                <time>2012-07-14T15:59:12Z</time>
            </trkpt>
            <trkpt lat="47.362044789" lon="6.823532190">
                <ele>806.000000</ele>
                <time>2012-07-14T15:59:20Z</time>
            </trkpt>
            <trkpt lat="47.362039005" lon="6.823796472">
                <ele>806.000000</ele>
                <time>2012-07-14T15:59:29Z</time>
            </trkpt>
            <trkpt lat="47.362055518" lon="6.823871993">
                <ele>807.000000</ele>
                <time>2012-07-14T15:59:50Z</time>
            </trkpt>
            <trkpt lat="47.362054177" lon="6.823962098">
                <ele>807.000000</ele>
                <time>2012-07-14T15:59:55Z</time>
            </trkpt>
            <trkpt lat="47.362030959" lon="6.824176004">
                <ele>807.000000</ele>
                <time>2012-07-14T16:00:02Z</time>
            </trkpt>
            <trkpt lat="47.361995839" lon="6.824643379">
                <ele>808.000000</ele>
                <time>2012-07-14T16:00:13Z</time>
            </trkpt>
            <trkpt lat="47.361966837" lon="6.824915288">
                <ele>809.000000</ele>
                <time>2012-07-14T16:00:21Z</time>
            </trkpt>
            <trkpt lat="47.361970106" lon="6.825073371">
                <ele>809.000000</ele>
                <time>2012-07-14T16:00:25Z</time>
            </trkpt>
            <trkpt lat="47.361985529" lon="6.825476792">
                <ele>810.000000</ele>
                <time>2012-07-14T16:00:36Z</time>
            </trkpt>
            <trkpt lat="47.361992570" lon="6.825517193">
                <ele>810.000000</ele>
                <time>2012-07-14T16:00:37Z</time>
            </trkpt>
            <trkpt lat="47.362005394" lon="6.825656667">
                <ele>810.000000</ele>
                <time>2012-07-14T16:00:41Z</time>
            </trkpt>
            <trkpt lat="47.361967005" lon="6.825840399">
                <ele>810.000000</ele>
                <time>2012-07-14T16:00:53Z</time>
            </trkpt>
            <trkpt lat="47.361986702" lon="6.825891361">
                <ele>810.000000</ele>
                <time>2012-07-14T16:01:17Z</time>
            </trkpt>
            <trkpt lat="47.361993995" lon="6.825897312">
                <ele>810.000000</ele>
                <time>2012-07-14T16:01:34Z</time>
            </trkpt>
            <trkpt lat="47.361987373" lon="6.825913321">
                <ele>810.000000</ele>
                <time>2012-07-14T16:01:36Z</time>
            </trkpt>
            <trkpt lat="47.361955605" lon="6.826153966">
                <ele>810.000000</ele>
                <time>2012-07-14T16:01:48Z</time>
            </trkpt>
            <trkpt lat="47.361960048" lon="6.826384636">
                <ele>810.000000</ele>
                <time>2012-07-14T16:01:59Z</time>
            </trkpt>
            <trkpt lat="47.361986032" lon="6.826628968">
                <ele>810.000000</ele>
                <time>2012-07-14T16:02:12Z</time>
            </trkpt>
            <trkpt lat="47.362031043" lon="6.826761151">
                <ele>811.000000</ele>
                <time>2012-07-14T16:02:28Z</time>
            </trkpt>
            <trkpt lat="47.362056691" lon="6.826790152">
                <ele>811.000000</ele>
                <time>2012-07-14T16:03:00Z</time>
            </trkpt>
            <trkpt lat="47.362060128" lon="6.826917389">
                <ele>811.000000</ele>
                <time>2012-07-14T16:03:16Z</time>
            </trkpt>
            <trkpt lat="47.362063900" lon="6.827165661">
                <ele>811.000000</ele>
                <time>2012-07-14T16:03:26Z</time>
            </trkpt>
            <trkpt lat="47.362103714" lon="6.827413347">
                <ele>811.000000</ele>
                <time>2012-07-14T16:03:41Z</time>
            </trkpt>
            <trkpt lat="47.362118717" lon="6.827721046">
                <ele>810.000000</ele>
                <time>2012-07-14T16:03:51Z</time>
            </trkpt>
            <trkpt lat="47.362098768" lon="6.827952471">
                <ele>810.000000</ele>
                <time>2012-07-14T16:03:57Z</time>
            </trkpt>
            <trkpt lat="47.362148641" lon="6.828367878">
                <ele>809.000000</ele>
                <time>2012-07-14T16:04:08Z</time>
            </trkpt>
            <trkpt lat="47.362160627" lon="6.828895435">
                <ele>809.000000</ele>
                <time>2012-07-14T16:04:17Z</time>
            </trkpt>
            <trkpt lat="47.362172445" lon="6.829467667">
                <ele>808.000000</ele>
                <time>2012-07-14T16:04:30Z</time>
            </trkpt>
            <trkpt lat="47.362170098" lon="6.829574201">
                <ele>808.000000</ele>
                <time>2012-07-14T16:04:33Z</time>
            </trkpt>
            <trkpt lat="47.362192813" lon="6.829748126">
                <ele>809.000000</ele>
                <time>2012-07-14T16:04:38Z</time>
            </trkpt>
            <trkpt lat="47.362178983" lon="6.830138471">
                <ele>810.000000</ele>
                <time>2012-07-14T16:04:48Z</time>
            </trkpt>
            <trkpt lat="47.362158699" lon="6.830648174">
                <ele>811.000000</ele>
                <time>2012-07-14T16:04:58Z</time>
            </trkpt>
            <trkpt lat="47.362148305" lon="6.830684133">
                <ele>811.000000</ele>
                <time>2012-07-14T16:04:59Z</time>
            </trkpt>
            <trkpt lat="47.362151239" lon="6.830769712">
                <ele>811.000000</ele>
                <time>2012-07-14T16:05:02Z</time>
            </trkpt>
            <trkpt lat="47.362165991" lon="6.830960400">
                <ele>811.000000</ele>
                <time>2012-07-14T16:05:13Z</time>
            </trkpt>
            <trkpt lat="47.362161465" lon="6.830969453">
                <ele>811.000000</ele>
                <time>2012-07-14T16:05:37Z</time>
            </trkpt>
            <trkpt lat="47.362147048" lon="6.830997616">
                <ele>812.000000</ele>
                <time>2012-07-14T16:06:04Z</time>
            </trkpt>
            <trkpt lat="47.362145204" lon="6.831011865">
                <ele>812.000000</ele>
                <time>2012-07-14T16:06:30Z</time>
            </trkpt>
            <trkpt lat="47.362138163" lon="6.831032066">
                <ele>812.000000</ele>
                <time>2012-07-14T16:07:06Z</time>
            </trkpt>
            <trkpt lat="47.362142941" lon="6.831050841">
                <ele>813.000000</ele>
                <time>2012-07-14T16:07:40Z</time>
            </trkpt>
            <trkpt lat="47.362135565" lon="6.831076741">
                <ele>813.000000</ele>
                <time>2012-07-14T16:08:05Z</time>
            </trkpt>
            <trkpt lat="47.362150904" lon="6.831164500">
                <ele>813.000000</ele>
                <time>2012-07-14T16:08:08Z</time>
            </trkpt>
            <trkpt lat="47.362140175" lon="6.831295341">
                <ele>813.000000</ele>
                <time>2012-07-14T16:08:12Z</time>
            </trkpt>
            <trkpt lat="47.362127435" lon="6.831419226">
                <ele>813.000000</ele>
                <time>2012-07-14T16:08:15Z</time>
            </trkpt>
            <trkpt lat="47.362112766" lon="6.831628773">
                <ele>812.000000</ele>
                <time>2012-07-14T16:08:21Z</time>
            </trkpt>
            <trkpt lat="47.362094158" lon="6.831934461">
                <ele>811.000000</ele>
                <time>2012-07-14T16:08:31Z</time>
            </trkpt>
            <trkpt lat="47.362033473" lon="6.832221625">
                <ele>812.000000</ele>
                <time>2012-07-14T16:08:39Z</time>
            </trkpt>
            <trkpt lat="47.362036239" lon="6.832506023">
                <ele>811.000000</ele>
                <time>2012-07-14T16:08:44Z</time>
            </trkpt>
            <trkpt lat="47.362033473" lon="6.833026037">
                <ele>810.000000</ele>
                <time>2012-07-14T16:08:54Z</time>
            </trkpt>
            <trkpt lat="47.362051411" lon="6.833365588">
                <ele>808.000000</ele>
                <time>2012-07-14T16:09:03Z</time>
            </trkpt>
            <trkpt lat="47.361988965" lon="6.833502715">
                <ele>808.000000</ele>
                <time>2012-07-14T16:09:09Z</time>
            </trkpt>
            <trkpt lat="47.361971699" lon="6.833600029">
                <ele>807.000000</ele>
                <time>2012-07-14T16:09:23Z</time>
            </trkpt>
            <trkpt lat="47.361970106" lon="6.833614949">
                <ele>807.000000</ele>
                <time>2012-07-14T16:09:58Z</time>
            </trkpt>
            <trkpt lat="47.361985529" lon="6.833789293">
                <ele>807.000000</ele>
                <time>2012-07-14T16:10:05Z</time>
            </trkpt>
            <trkpt lat="47.361976141" lon="6.834198246">
                <ele>805.000000</ele>
                <time>2012-07-14T16:10:16Z</time>
            </trkpt>
            <trkpt lat="47.361967675" lon="6.834645337">
                <ele>804.000000</ele>
                <time>2012-07-14T16:10:30Z</time>
            </trkpt>
            <trkpt lat="47.361965161" lon="6.835146658">
                <ele>804.000000</ele>
                <time>2012-07-14T16:10:43Z</time>
            </trkpt>
            <trkpt lat="47.361969855" lon="6.835581344">
                <ele>802.000000</ele>
                <time>2012-07-14T16:10:52Z</time>
            </trkpt>
            <trkpt lat="47.361978153" lon="6.835717047">
                <ele>802.000000</ele>
                <time>2012-07-14T16:10:54Z</time>
            </trkpt>
            <trkpt lat="47.361996006" lon="6.835859204">
                <ele>802.000000</ele>
                <time>2012-07-14T16:10:56Z</time>
            </trkpt>
            <trkpt lat="47.361970441" lon="6.836441997">
                <ele>800.000000</ele>
                <time>2012-07-14T16:11:06Z</time>
            </trkpt>
            <trkpt lat="47.361957617" lon="6.836847346">
                <ele>799.000000</ele>
                <time>2012-07-14T16:11:14Z</time>
            </trkpt>
            <trkpt lat="47.361958455" lon="6.836903086">
                <ele>799.000000</ele>
                <time>2012-07-14T16:11:15Z</time>
            </trkpt>
            <trkpt lat="47.361934064" lon="6.837229142">
                <ele>799.000000</ele>
                <time>2012-07-14T16:11:21Z</time>
            </trkpt>
            <trkpt lat="47.361960970" lon="6.837781090">
                <ele>798.000000</ele>
                <time>2012-07-14T16:11:33Z</time>
            </trkpt>
            <trkpt lat="47.361988546" lon="6.838025255">
                <ele>797.000000</ele>
                <time>2012-07-14T16:11:43Z</time>
            </trkpt>
            <trkpt lat="47.361993827" lon="6.838046629">
                <ele>796.000000</ele>
                <time>2012-07-14T16:11:54Z</time>
            </trkpt>
            <trkpt lat="47.362084100" lon="6.838475447">
                <ele>795.000000</ele>
                <time>2012-07-14T16:12:06Z</time>
            </trkpt>
            <trkpt lat="47.362109665" lon="6.838580305">
                <ele>794.000000</ele>
                <time>2012-07-14T16:12:08Z</time>
            </trkpt>
            <trkpt lat="47.362143695" lon="6.839003842">
                <ele>793.000000</ele>
                <time>2012-07-14T16:12:21Z</time>
            </trkpt>
            <trkpt lat="47.362135230" lon="6.839141809">
                <ele>793.000000</ele>
                <time>2012-07-14T16:12:27Z</time>
            </trkpt>
            <trkpt lat="47.362113437" lon="6.839212719">
                <ele>792.000000</ele>
                <time>2012-07-14T16:12:30Z</time>
            </trkpt>
            <trkpt lat="47.362097846" lon="6.839240715">
                <ele>792.000000</ele>
                <time>2012-07-14T16:12:32Z</time>
            </trkpt>
            <trkpt lat="47.361956024" lon="6.839333586">
                <ele>794.000000</ele>
                <time>2012-07-14T16:12:48Z</time>
            </trkpt>
            <trkpt lat="47.361953259" lon="6.839328138">
                <ele>795.000000</ele>
                <time>2012-07-14T16:13:14Z</time>
            </trkpt>
            <trkpt lat="47.361852340" lon="6.839329228">
                <ele>796.000000</ele>
                <time>2012-07-14T16:13:27Z</time>
            </trkpt>
            <trkpt lat="47.361721918" lon="6.839336017">
                <ele>799.000000</ele>
                <time>2012-07-14T16:13:43Z</time>
            </trkpt>
            <trkpt lat="47.361610774" lon="6.839340795">
                <ele>802.000000</ele>
                <time>2012-07-14T16:13:58Z</time>
            </trkpt>
            <trkpt lat="47.361501977" lon="6.839386979">
                <ele>805.000000</ele>
                <time>2012-07-14T16:14:15Z</time>
            </trkpt>
            <trkpt lat="47.361400220" lon="6.839398714">
                <ele>808.000000</ele>
                <time>2012-07-14T16:14:30Z</time>
            </trkpt>
            <trkpt lat="47.361276923" lon="6.839410951">
                <ele>811.000000</ele>
                <time>2012-07-14T16:14:45Z</time>
            </trkpt>
            <trkpt lat="47.361227637" lon="6.839441964">
                <ele>812.000000</ele>
                <time>2012-07-14T16:14:59Z</time>
            </trkpt>
            <trkpt lat="47.361196624" lon="6.839457136">
                <ele>813.000000</ele>
                <time>2012-07-14T16:15:26Z</time>
            </trkpt>
            <trkpt lat="47.361192852" lon="6.839454705">
                <ele>813.000000</ele>
                <time>2012-07-14T16:15:48Z</time>
            </trkpt>
            <trkpt lat="47.361203749" lon="6.839479096">
                <ele>813.000000</ele>
                <time>2012-07-14T16:16:12Z</time>
            </trkpt>
            <trkpt lat="47.361200983" lon="6.839500973">
                <ele>813.000000</ele>
                <time>2012-07-14T16:16:14Z</time>
            </trkpt>
            <trkpt lat="47.361157983" lon="6.839709682">
                <ele>813.000000</ele>
                <time>2012-07-14T16:16:23Z</time>
            </trkpt>
            <trkpt lat="47.361135101" lon="6.839851504">
                <ele>813.000000</ele>
                <time>2012-07-14T16:16:27Z</time>
            </trkpt>
            <trkpt lat="47.361058993" lon="6.840185272">
                <ele>813.000000</ele>
                <time>2012-07-14T16:16:36Z</time>
            </trkpt>
            <trkpt lat="47.360973079" lon="6.840510992">
                <ele>813.000000</ele>
                <time>2012-07-14T16:16:48Z</time>
            </trkpt>
            <trkpt lat="47.360949777" lon="6.840526499">
                <ele>813.000000</ele>
                <time>2012-07-14T16:16:50Z</time>
            </trkpt>
            <trkpt lat="47.360924128" lon="6.840521973">
                <ele>813.000000</ele>
                <time>2012-07-14T16:16:52Z</time>
            </trkpt>
            <trkpt lat="47.360872747" lon="6.840393227">
                <ele>813.000000</ele>
                <time>2012-07-14T16:16:58Z</time>
            </trkpt>
            <trkpt lat="47.360828156" lon="6.840353832">
                <ele>812.000000</ele>
                <time>2012-07-14T16:17:01Z</time>
            </trkpt>
            <trkpt lat="47.360768225" lon="6.840382414">
                <ele>812.000000</ele>
                <time>2012-07-14T16:17:04Z</time>
            </trkpt>
            <trkpt lat="47.360669067" lon="6.840552567">
                <ele>811.000000</ele>
                <time>2012-07-14T16:17:09Z</time>
            </trkpt>
            <trkpt lat="47.360567898" lon="6.840710482">
                <ele>808.000000</ele>
                <time>2012-07-14T16:17:12Z</time>
            </trkpt>
            <trkpt lat="47.360488689" lon="6.840800168">
                <ele>806.000000</ele>
                <time>2012-07-14T16:17:14Z</time>
            </trkpt>
            <trkpt lat="47.360360781" lon="6.840891698">
                <ele>803.000000</ele>
                <time>2012-07-14T16:17:16Z</time>
            </trkpt>
            <trkpt lat="47.360023493" lon="6.840950958">
                <ele>798.000000</ele>
                <time>2012-07-14T16:17:20Z</time>
            </trkpt>
            <trkpt lat="47.359814448" lon="6.840919862">
                <ele>796.000000</ele>
                <time>2012-07-14T16:17:23Z</time>
            </trkpt>
            <trkpt lat="47.359595681" lon="6.840910641">
                <ele>799.000000</ele>
                <time>2012-07-14T16:17:28Z</time>
            </trkpt>
            <trkpt lat="47.359501300" lon="6.840905361">
                <ele>803.000000</ele>
                <time>2012-07-14T16:17:31Z</time>
            </trkpt>
            <trkpt lat="47.359135430" lon="6.840865714">
                <ele>805.000000</ele>
                <time>2012-07-14T16:17:44Z</time>
            </trkpt>
            <trkpt lat="47.358917668" lon="6.840789858">
                <ele>806.000000</ele>
                <time>2012-07-14T16:17:57Z</time>
            </trkpt>
            <trkpt lat="47.358883638" lon="6.840715176">
                <ele>806.000000</ele>
                <time>2012-07-14T16:18:12Z</time>
            </trkpt>
            <trkpt lat="47.358733769" lon="6.840619538">
                <ele>806.000000</ele>
                <time>2012-07-14T16:18:26Z</time>
            </trkpt>
            <trkpt lat="47.358421879" lon="6.840514932">
                <ele>806.000000</ele>
                <time>2012-07-14T16:18:35Z</time>
            </trkpt>
            <trkpt lat="47.358080652" lon="6.840386353">
                <ele>803.000000</ele>
                <time>2012-07-14T16:18:47Z</time>
            </trkpt>
            <trkpt lat="47.358024074" lon="6.840259200">
                <ele>803.000000</ele>
                <time>2012-07-14T16:18:51Z</time>
            </trkpt>
            <trkpt lat="47.357922317" lon="6.839975305">
                <ele>802.000000</ele>
                <time>2012-07-14T16:18:58Z</time>
            </trkpt>
            <trkpt lat="47.357700784" lon="6.839645477">
                <ele>801.000000</ele>
                <time>2012-07-14T16:19:04Z</time>
            </trkpt>
            <trkpt lat="47.357538343" lon="6.839222191">
                <ele>797.000000</ele>
                <time>2012-07-14T16:19:09Z</time>
            </trkpt>
            <trkpt lat="47.357532391" lon="6.839138707">
                <ele>797.000000</ele>
                <time>2012-07-14T16:19:10Z</time>
            </trkpt>
            <trkpt lat="47.357559968" lon="6.838730006">
                <ele>796.000000</ele>
                <time>2012-07-14T16:19:18Z</time>
            </trkpt>
            <trkpt lat="47.357568182" lon="6.838647695">
                <ele>798.000000</ele>
                <time>2012-07-14T16:19:20Z</time>
            </trkpt>
            <trkpt lat="47.357597267" lon="6.838409482">
                <ele>800.000000</ele>
                <time>2012-07-14T16:19:26Z</time>
            </trkpt>
            <trkpt lat="47.357659629" lon="6.837917212">
                <ele>800.000000</ele>
                <time>2012-07-14T16:19:40Z</time>
            </trkpt>
            <trkpt lat="47.357703047" lon="6.837517060">
                <ele>803.000000</ele>
                <time>2012-07-14T16:19:57Z</time>
            </trkpt>
            <trkpt lat="47.357725175" lon="6.837336263">
                <ele>804.000000</ele>
                <time>2012-07-14T16:20:05Z</time>
            </trkpt>
            <trkpt lat="47.357729785" lon="6.837238278">
                <ele>805.000000</ele>
                <time>2012-07-14T16:20:10Z</time>
            </trkpt>
            <trkpt lat="47.357723750" lon="6.836885652">
                <ele>808.000000</ele>
                <time>2012-07-14T16:20:26Z</time>
            </trkpt>
            <trkpt lat="47.357735066" lon="6.836531097">
                <ele>811.000000</ele>
                <time>2012-07-14T16:20:43Z</time>
            </trkpt>
            <trkpt lat="47.357738335" lon="6.836497653">
                <ele>811.000000</ele>
                <time>2012-07-14T16:20:45Z</time>
            </trkpt>
            <trkpt lat="47.357710339" lon="6.836430598">
                <ele>811.000000</ele>
                <time>2012-07-14T16:20:49Z</time>
            </trkpt>
            <trkpt lat="47.357298704" lon="6.836011168">
                <ele>811.000000</ele>
                <time>2012-07-14T16:21:01Z</time>
            </trkpt>
            <trkpt lat="47.357087145" lon="6.835663738">
                <ele>808.000000</ele>
                <time>2012-07-14T16:21:05Z</time>
            </trkpt>
            <trkpt lat="47.356956638" lon="6.835340783">
                <ele>804.000000</ele>
                <time>2012-07-14T16:21:08Z</time>
            </trkpt>
            <trkpt lat="47.356818253" lon="6.834994946">
                <ele>800.000000</ele>
                <time>2012-07-14T16:21:11Z</time>
            </trkpt>
            <trkpt lat="47.356639216" lon="6.834514663">
                <ele>796.000000</ele>
                <time>2012-07-14T16:21:15Z</time>
            </trkpt>
            <trkpt lat="47.356436960" lon="6.833898928">
                <ele>792.000000</ele>
                <time>2012-07-14T16:21:20Z</time>
            </trkpt>
            <trkpt lat="47.356286924" lon="6.833412358">
                <ele>789.000000</ele>
                <time>2012-07-14T16:21:24Z</time>
            </trkpt>
            <trkpt lat="47.356196065" lon="6.833026875">
                <ele>786.000000</ele>
                <time>2012-07-14T16:21:27Z</time>
            </trkpt>
            <trkpt lat="47.356096404" lon="6.832637033">
                <ele>782.000000</ele>
                <time>2012-07-14T16:21:30Z</time>
            </trkpt>
            <trkpt lat="47.356066816" lon="6.832538713">
                <ele>781.000000</ele>
                <time>2012-07-14T16:21:31Z</time>
            </trkpt>
            <trkpt lat="47.356002359" lon="6.832407033">
                <ele>775.000000</ele>
                <time>2012-07-14T16:21:34Z</time>
            </trkpt>
            <trkpt lat="47.355989451" lon="6.832407536">
                <ele>774.000000</ele>
                <time>2012-07-14T16:21:40Z</time>
            </trkpt>
            <trkpt lat="47.355960449" lon="6.832463192">
                <ele>776.000000</ele>
                <time>2012-07-14T16:21:43Z</time>
            </trkpt>
            <trkpt lat="47.355828434" lon="6.832946325">
                <ele>777.000000</ele>
                <time>2012-07-14T16:21:59Z</time>
            </trkpt>
            <trkpt lat="47.355703041" lon="6.833350165">
                <ele>777.000000</ele>
                <time>2012-07-14T16:22:07Z</time>
            </trkpt>
            <trkpt lat="47.355535570" lon="6.833642023">
                <ele>776.000000</ele>
                <time>2012-07-14T16:22:13Z</time>
            </trkpt>
            <trkpt lat="47.355351001" lon="6.834642571">
                <ele>776.000000</ele>
                <time>2012-07-14T16:22:29Z</time>
            </trkpt>
            <trkpt lat="47.355185877" lon="6.835486796">
                <ele>777.000000</ele>
                <time>2012-07-14T16:22:45Z</time>
            </trkpt>
            <trkpt lat="47.354875077" lon="6.836183164">
                <ele>778.000000</ele>
                <time>2012-07-14T16:23:00Z</time>
            </trkpt>
            <trkpt lat="47.354735518" lon="6.836319119">
                <ele>778.000000</ele>
                <time>2012-07-14T16:23:04Z</time>
            </trkpt>
            <trkpt lat="47.354431506" lon="6.836380893">
                <ele>778.000000</ele>
                <time>2012-07-14T16:23:11Z</time>
            </trkpt>
            <trkpt lat="47.354298653" lon="6.836455241">
                <ele>778.000000</ele>
                <time>2012-07-14T16:23:14Z</time>
            </trkpt>
            <trkpt lat="47.354139816" lon="6.836665207">
                <ele>778.000000</ele>
                <time>2012-07-14T16:23:19Z</time>
            </trkpt>
            <trkpt lat="47.353944853" lon="6.836975841">
                <ele>776.000000</ele>
                <time>2012-07-14T16:23:29Z</time>
            </trkpt>
            <trkpt lat="47.353919623" lon="6.837358475">
                <ele>775.000000</ele>
                <time>2012-07-14T16:23:40Z</time>
            </trkpt>
            <trkpt lat="47.353927419" lon="6.837473223">
                <ele>775.000000</ele>
                <time>2012-07-14T16:23:44Z</time>
            </trkpt>
            <trkpt lat="47.353925239" lon="6.837508092">
                <ele>775.000000</ele>
                <time>2012-07-14T16:23:45Z</time>
            </trkpt>
            <trkpt lat="47.353916187" lon="6.837644130">
                <ele>775.000000</ele>
                <time>2012-07-14T16:23:49Z</time>
            </trkpt>
            <trkpt lat="47.353894394" lon="6.837737169">
                <ele>774.000000</ele>
                <time>2012-07-14T16:23:53Z</time>
            </trkpt>
            <trkpt lat="47.353866482" lon="6.837852420">
                <ele>774.000000</ele>
                <time>2012-07-14T16:23:58Z</time>
            </trkpt>
            <trkpt lat="47.353823315" lon="6.837947471">
                <ele>774.000000</ele>
                <time>2012-07-14T16:24:04Z</time>
            </trkpt>
            <trkpt lat="47.353765732" lon="6.838021735">
                <ele>772.000000</ele>
                <time>2012-07-14T16:24:21Z</time>
            </trkpt>
            <trkpt lat="47.353655091" lon="6.838069428">
                <ele>771.000000</ele>
                <time>2012-07-14T16:24:29Z</time>
            </trkpt>
            <trkpt lat="47.353453254" lon="6.838134890">
                <ele>768.000000</ele>
                <time>2012-07-14T16:24:39Z</time>
            </trkpt>
            <trkpt lat="47.353367843" lon="6.838201527">
                <ele>764.000000</ele>
                <time>2012-07-14T16:24:44Z</time>
            </trkpt>
            <trkpt lat="47.353305817" lon="6.838177387">
                <ele>762.000000</ele>
                <time>2012-07-14T16:24:55Z</time>
            </trkpt>
            <trkpt lat="47.353313277" lon="6.838191301">
                <ele>762.000000</ele>
                <time>2012-07-14T16:24:58Z</time>
            </trkpt>
            <trkpt lat="47.353378069" lon="6.838330608">
                <ele>763.000000</ele>
                <time>2012-07-14T16:25:05Z</time>
            </trkpt>
            <trkpt lat="47.353557106" lon="6.838626824">
                <ele>765.000000</ele>
                <time>2012-07-14T16:25:18Z</time>
            </trkpt>
            <trkpt lat="47.353769671" lon="6.838967213">
                <ele>767.000000</ele>
                <time>2012-07-14T16:25:34Z</time>
            </trkpt>
            <trkpt lat="47.353984248" lon="6.839332832">
                <ele>768.000000</ele>
                <time>2012-07-14T16:25:48Z</time>
            </trkpt>
            <trkpt lat="47.354166470" lon="6.839689650">
                <ele>769.000000</ele>
                <time>2012-07-14T16:26:00Z</time>
            </trkpt>
            <trkpt lat="47.354387753" lon="6.840176890">
                <ele>770.000000</ele>
                <time>2012-07-14T16:26:13Z</time>
            </trkpt>
            <trkpt lat="47.354386412" lon="6.840231959">
                <ele>770.000000</ele>
                <time>2012-07-14T16:26:14Z</time>
            </trkpt>
            <trkpt lat="47.354321200" lon="6.841006195">
                <ele>770.000000</ele>
                <time>2012-07-14T16:26:25Z</time>
            </trkpt>
            <trkpt lat="47.354301754" lon="6.841366617">
                <ele>769.000000</ele>
                <time>2012-07-14T16:26:29Z</time>
            </trkpt>
            <trkpt lat="47.354276190" lon="6.841790406">
                <ele>767.000000</ele>
                <time>2012-07-14T16:26:34Z</time>
            </trkpt>
            <trkpt lat="47.354238136" lon="6.841968689">
                <ele>764.000000</ele>
                <time>2012-07-14T16:26:37Z</time>
            </trkpt>
            <trkpt lat="47.354207206" lon="6.842088550">
                <ele>762.000000</ele>
                <time>2012-07-14T16:26:39Z</time>
            </trkpt>
            <trkpt lat="47.354107797" lon="6.842499180">
                <ele>759.000000</ele>
                <time>2012-07-14T16:26:44Z</time>
            </trkpt>
            <trkpt lat="47.353911912" lon="6.842936631">
                <ele>755.000000</ele>
                <time>2012-07-14T16:26:53Z</time>
            </trkpt>
            <trkpt lat="47.353633884" lon="6.843466535">
                <ele>753.000000</ele>
                <time>2012-07-14T16:27:05Z</time>
            </trkpt>
            <trkpt lat="47.353437077" lon="6.843931563">
                <ele>750.000000</ele>
                <time>2012-07-14T16:27:11Z</time>
            </trkpt>
            <trkpt lat="47.353408998" lon="6.844013287">
                <ele>749.000000</ele>
                <time>2012-07-14T16:27:12Z</time>
            </trkpt>
            <trkpt lat="47.353265919" lon="6.844320819">
                <ele>744.000000</ele>
                <time>2012-07-14T16:27:16Z</time>
            </trkpt>
            <trkpt lat="47.353139603" lon="6.844583256">
                <ele>742.000000</ele>
                <time>2012-07-14T16:27:19Z</time>
            </trkpt>
            <trkpt lat="47.352921590" lon="6.845184825">
                <ele>738.000000</ele>
                <time>2012-07-14T16:27:25Z</time>
            </trkpt>
            <trkpt lat="47.352708690" lon="6.845416920">
                <ele>736.000000</ele>
                <time>2012-07-14T16:27:32Z</time>
            </trkpt>
            <trkpt lat="47.352503249" lon="6.844994053">
                <ele>733.000000</ele>
                <time>2012-07-14T16:27:37Z</time>
            </trkpt>
            <trkpt lat="47.352360422" lon="6.844671182">
                <ele>729.000000</ele>
                <time>2012-07-14T16:27:40Z</time>
            </trkpt>
            <trkpt lat="47.352167889" lon="6.844237419">
                <ele>725.000000</ele>
                <time>2012-07-14T16:27:44Z</time>
            </trkpt>
            <trkpt lat="47.352072755" lon="6.844026279">
                <ele>724.000000</ele>
                <time>2012-07-14T16:27:46Z</time>
            </trkpt>
            <trkpt lat="47.351878546" lon="6.843574997">
                <ele>721.000000</ele>
                <time>2012-07-14T16:27:50Z</time>
            </trkpt>
            <trkpt lat="47.351685092" lon="6.843113825">
                <ele>717.000000</ele>
                <time>2012-07-14T16:27:54Z</time>
            </trkpt>
            <trkpt lat="47.351526674" lon="6.842622394">
                <ele>714.000000</ele>
                <time>2012-07-14T16:27:58Z</time>
            </trkpt>
            <trkpt lat="47.351437071" lon="6.842123000">
                <ele>711.000000</ele>
                <time>2012-07-14T16:28:02Z</time>
            </trkpt>
            <trkpt lat="47.351420140" lon="6.841829969">
                <ele>708.000000</ele>
                <time>2012-07-14T16:28:05Z</time>
            </trkpt>
            <trkpt lat="47.351278150" lon="6.841691080">
                <ele>704.000000</ele>
                <time>2012-07-14T16:28:10Z</time>
            </trkpt>
            <trkpt lat="47.351233056" lon="6.841746485">
                <ele>703.000000</ele>
                <time>2012-07-14T16:28:11Z</time>
            </trkpt>
            <trkpt lat="47.350844135" lon="6.842391556">
                <ele>699.000000</ele>
                <time>2012-07-14T16:28:21Z</time>
            </trkpt>
            <trkpt lat="47.350624865" lon="6.842383342">
                <ele>695.000000</ele>
                <time>2012-07-14T16:28:27Z</time>
            </trkpt>
            <trkpt lat="47.350590248" lon="6.842326513">
                <ele>694.000000</ele>
                <time>2012-07-14T16:28:28Z</time>
            </trkpt>
            <trkpt lat="47.350368714" lon="6.841909345">
                <ele>690.000000</ele>
                <time>2012-07-14T16:28:34Z</time>
            </trkpt>
            <trkpt lat="47.350330744" lon="6.841842290">
                <ele>689.000000</ele>
                <time>2012-07-14T16:28:35Z</time>
            </trkpt>
            <trkpt lat="47.350071324" lon="6.841647830">
                <ele>687.000000</ele>
                <time>2012-07-14T16:28:40Z</time>
            </trkpt>
            <trkpt lat="47.349751471" lon="6.841538865">
                <ele>684.000000</ele>
                <time>2012-07-14T16:28:45Z</time>
            </trkpt>
            <trkpt lat="47.349489788" lon="6.841469631">
                <ele>680.000000</ele>
                <time>2012-07-14T16:28:49Z</time>
            </trkpt>
            <trkpt lat="47.349307062" lon="6.841327893">
                <ele>676.000000</ele>
                <time>2012-07-14T16:28:53Z</time>
            </trkpt>
            <trkpt lat="47.349178735" lon="6.841120776">
                <ele>673.000000</ele>
                <time>2012-07-14T16:28:59Z</time>
            </trkpt>
            <trkpt lat="47.349166079" lon="6.841149777">
                <ele>674.000000</ele>
                <time>2012-07-14T16:29:09Z</time>
            </trkpt>
            <trkpt lat="47.349152584" lon="6.841175593">
                <ele>674.000000</ele>
                <time>2012-07-14T16:29:28Z</time>
            </trkpt>
            <trkpt lat="47.349158283" lon="6.841199147">
                <ele>674.000000</ele>
                <time>2012-07-14T16:29:43Z</time>
            </trkpt>
            <trkpt lat="47.349213688" lon="6.841180455">
                <ele>674.000000</ele>
                <time>2012-07-14T16:29:50Z</time>
            </trkpt>
            <trkpt lat="47.349216454" lon="6.841144916">
                <ele>674.000000</ele>
                <time>2012-07-14T16:29:51Z</time>
            </trkpt>
            <trkpt lat="47.349264901" lon="6.840347210">
                <ele>674.000000</ele>
                <time>2012-07-14T16:30:05Z</time>
            </trkpt>
            <trkpt lat="47.349231541" lon="6.840152247">
                <ele>674.000000</ele>
                <time>2012-07-14T16:30:08Z</time>
            </trkpt>
            <trkpt lat="47.348877322" lon="6.839877656">
                <ele>673.000000</ele>
                <time>2012-07-14T16:30:15Z</time>
            </trkpt>
            <trkpt lat="47.348552439" lon="6.839767518">
                <ele>670.000000</ele>
                <time>2012-07-14T16:30:20Z</time>
            </trkpt>
            <trkpt lat="47.348424280" lon="6.839693421">
                <ele>668.000000</ele>
                <time>2012-07-14T16:30:23Z</time>
            </trkpt>
            <trkpt lat="47.348384298" lon="6.839704653">
                <ele>666.000000</ele>
                <time>2012-07-14T16:30:25Z</time>
            </trkpt>
            <trkpt lat="47.348284135" lon="6.840143697">
                <ele>665.000000</ele>
                <time>2012-07-14T16:30:36Z</time>
            </trkpt>
            <trkpt lat="47.348173745" lon="6.840840820">
                <ele>666.000000</ele>
                <time>2012-07-14T16:30:49Z</time>
            </trkpt>
            <trkpt lat="47.347913822" lon="6.841351949">
                <ele>666.000000</ele>
                <time>2012-07-14T16:31:00Z</time>
            </trkpt>
            <trkpt lat="47.347456254" lon="6.841745144">
                <ele>666.000000</ele>
                <time>2012-07-14T16:31:15Z</time>
            </trkpt>
            <trkpt lat="47.346929619" lon="6.841973886">
                <ele>666.000000</ele>
                <time>2012-07-14T16:31:29Z</time>
            </trkpt>
            <trkpt lat="47.346091764" lon="6.842227355">
                <ele>666.000000</ele>
                <time>2012-07-14T16:31:47Z</time>
            </trkpt>
            <trkpt lat="47.345208731" lon="6.842137165">
                <ele>666.000000</ele>
                <time>2012-07-14T16:32:04Z</time>
            </trkpt>
            <trkpt lat="47.344767842" lon="6.842076313">
                <ele>665.000000</ele>
                <time>2012-07-14T16:32:12Z</time>
            </trkpt>
            <trkpt lat="47.343699234" lon="6.842083856">
                <ele>664.000000</ele>
                <time>2012-07-14T16:32:31Z</time>
            </trkpt>
            <trkpt lat="47.343400922" lon="6.842166921">
                <ele>664.000000</ele>
                <time>2012-07-14T16:32:36Z</time>
            </trkpt>
            <trkpt lat="47.342903037" lon="6.842668578">
                <ele>663.000000</ele>
                <time>2012-07-14T16:32:46Z</time>
            </trkpt>
            <trkpt lat="47.342666667" lon="6.842812328">
                <ele>663.000000</ele>
                <time>2012-07-14T16:32:50Z</time>
            </trkpt>
            <trkpt lat="47.341892095" lon="6.843037130">
                <ele>662.000000</ele>
                <time>2012-07-14T16:33:05Z</time>
            </trkpt>
            <trkpt lat="47.341390941" lon="6.843385566">
                <ele>662.000000</ele>
                <time>2012-07-14T16:33:21Z</time>
            </trkpt>
            <trkpt lat="47.340929853" lon="6.843704246">
                <ele>662.000000</ele>
                <time>2012-07-14T16:33:36Z</time>
            </trkpt>
            <trkpt lat="47.340474967" lon="6.844027955">
                <ele>664.000000</ele>
                <time>2012-07-14T16:33:55Z</time>
            </trkpt>
            <trkpt lat="47.340097614" lon="6.844274886">
                <ele>666.000000</ele>
                <time>2012-07-14T16:34:13Z</time>
            </trkpt>
            <trkpt lat="47.339687403" lon="6.844556518">
                <ele>669.000000</ele>
                <time>2012-07-14T16:34:33Z</time>
            </trkpt>
            <trkpt lat="47.339379955" lon="6.844762377">
                <ele>671.000000</ele>
                <time>2012-07-14T16:34:49Z</time>
            </trkpt>
            <trkpt lat="47.339092540" lon="6.844961364">
                <ele>674.000000</ele>
                <time>2012-07-14T16:35:05Z</time>
            </trkpt>
            <trkpt lat="47.338864720" lon="6.845216677">
                <ele>675.000000</ele>
                <time>2012-07-14T16:35:21Z</time>
            </trkpt>
            <trkpt lat="47.338825241" lon="6.845567040">
                <ele>678.000000</ele>
                <time>2012-07-14T16:35:37Z</time>
            </trkpt>
            <trkpt lat="47.338827252" lon="6.845963336">
                <ele>681.000000</ele>
                <time>2012-07-14T16:35:53Z</time>
            </trkpt>
            <trkpt lat="47.338897074" lon="6.846302049">
                <ele>683.000000</ele>
                <time>2012-07-14T16:36:06Z</time>
            </trkpt>
            <trkpt lat="47.338960106" lon="6.846620059">
                <ele>684.000000</ele>
                <time>2012-07-14T16:36:21Z</time>
            </trkpt>
            <trkpt lat="47.339005535" lon="6.846784428">
                <ele>686.000000</ele>
                <time>2012-07-14T16:36:32Z</time>
            </trkpt>
            <trkpt lat="47.339118021" lon="6.847026497">
                <ele>687.000000</ele>
                <time>2012-07-14T16:36:41Z</time>
            </trkpt>
            <trkpt lat="47.339175101" lon="6.847233111">
                <ele>688.000000</ele>
                <time>2012-07-14T16:36:52Z</time>
            </trkpt>
            <trkpt lat="47.339089103" lon="6.847563442">
                <ele>691.000000</ele>
                <time>2012-07-14T16:37:10Z</time>
            </trkpt>
            <trkpt lat="47.339020371" lon="6.847887570">
                <ele>694.000000</ele>
                <time>2012-07-14T16:37:27Z</time>
            </trkpt>
            <trkpt lat="47.338955831" lon="6.848191582">
                <ele>697.000000</ele>
                <time>2012-07-14T16:37:45Z</time>
            </trkpt>
            <trkpt lat="47.338962033" lon="6.848300966">
                <ele>697.000000</ele>
                <time>2012-07-14T16:37:51Z</time>
            </trkpt>
            <trkpt lat="47.338991454" lon="6.848544879">
                <ele>699.000000</ele>
                <time>2012-07-14T16:38:06Z</time>
            </trkpt>
            <trkpt lat="47.338972846" lon="6.848644875">
                <ele>701.000000</ele>
                <time>2012-07-14T16:38:18Z</time>
            </trkpt>
            <trkpt lat="47.338967901" lon="6.848669937">
                <ele>702.000000</ele>
                <time>2012-07-14T16:38:32Z</time>
            </trkpt>
            <trkpt lat="47.338943928" lon="6.848803712">
                <ele>702.000000</ele>
                <time>2012-07-14T16:38:52Z</time>
            </trkpt>
            <trkpt lat="47.338881316" lon="6.848939331">
                <ele>703.000000</ele>
                <time>2012-07-14T16:39:04Z</time>
            </trkpt>
            <trkpt lat="47.338793641" lon="6.849075202">
                <ele>705.000000</ele>
                <time>2012-07-14T16:39:17Z</time>
            </trkpt>
            <trkpt lat="47.338764807" lon="6.849084254">
                <ele>705.000000</ele>
                <time>2012-07-14T16:39:33Z</time>
            </trkpt>
            <trkpt lat="47.338740500" lon="6.849151561">
                <ele>706.000000</ele>
                <time>2012-07-14T16:39:47Z</time>
            </trkpt>
            <trkpt lat="47.338563809" lon="6.849224064">
                <ele>706.000000</ele>
                <time>2012-07-14T16:40:00Z</time>
            </trkpt>
            <trkpt lat="47.338188551" lon="6.849281732">
                <ele>707.000000</ele>
                <time>2012-07-14T16:40:14Z</time>
            </trkpt>
            <trkpt lat="47.337822430" lon="6.849388098">
                <ele>708.000000</ele>
                <time>2012-07-14T16:40:28Z</time>
            </trkpt>
            <trkpt lat="47.337482711" lon="6.849535452">
                <ele>710.000000</ele>
                <time>2012-07-14T16:40:41Z</time>
            </trkpt>
            <trkpt lat="47.337107705" lon="6.849698816">
                <ele>712.000000</ele>
                <time>2012-07-14T16:40:56Z</time>
            </trkpt>
            <trkpt lat="47.336916179" lon="6.849913141">
                <ele>714.000000</ele>
                <time>2012-07-14T16:41:10Z</time>
            </trkpt>
            <trkpt lat="47.336755162" lon="6.850091759">
                <ele>715.000000</ele>
                <time>2012-07-14T16:41:22Z</time>
            </trkpt>
            <trkpt lat="47.336547039" lon="6.850327123">
                <ele>717.000000</ele>
                <time>2012-07-14T16:41:36Z</time>
            </trkpt>
            <trkpt lat="47.336332798" lon="6.850463832">
                <ele>718.000000</ele>
                <time>2012-07-14T16:41:49Z</time>
            </trkpt>
            <trkpt lat="47.336316537" lon="6.850468945">
                <ele>719.000000</ele>
                <time>2012-07-14T16:42:04Z</time>
            </trkpt>
            <trkpt lat="47.336299354" lon="6.850502472">
                <ele>719.000000</ele>
                <time>2012-07-14T16:42:28Z</time>
            </trkpt>
            <trkpt lat="47.336065415" lon="6.850582603">
                <ele>720.000000</ele>
                <time>2012-07-14T16:42:40Z</time>
            </trkpt>
            <trkpt lat="47.335847402" lon="6.850705985">
                <ele>720.000000</ele>
                <time>2012-07-14T16:42:50Z</time>
            </trkpt>
            <trkpt lat="47.335634921" lon="6.851003962">
                <ele>720.000000</ele>
                <time>2012-07-14T16:43:01Z</time>
            </trkpt>
            <trkpt lat="47.335538697" lon="6.851071520">
                <ele>720.000000</ele>
                <time>2012-07-14T16:43:05Z</time>
            </trkpt>
            <trkpt lat="47.335341470" lon="6.851251144">
                <ele>719.000000</ele>
                <time>2012-07-14T16:43:13Z</time>
            </trkpt>
            <trkpt lat="47.335256981" lon="6.851526573">
                <ele>715.000000</ele>
                <time>2012-07-14T16:43:20Z</time>
            </trkpt>
            <trkpt lat="47.335079033" lon="6.851805020">
                <ele>711.000000</ele>
                <time>2012-07-14T16:43:24Z</time>
            </trkpt>
            <trkpt lat="47.334924387" lon="6.851862939">
                <ele>707.000000</ele>
                <time>2012-07-14T16:43:27Z</time>
            </trkpt>
            <trkpt lat="47.334774435" lon="6.851781467">
                <ele>705.000000</ele>
                <time>2012-07-14T16:43:30Z</time>
            </trkpt>
            <trkpt lat="47.334426586" lon="6.851569656">
                <ele>705.000000</ele>
                <time>2012-07-14T16:43:43Z</time>
            </trkpt>
            <trkpt lat="47.334209997" lon="6.851421045">
                <ele>704.000000</ele>
                <time>2012-07-14T16:43:54Z</time>
            </trkpt>
            <trkpt lat="47.333989972" lon="6.851312583">
                <ele>700.000000</ele>
                <time>2012-07-14T16:44:00Z</time>
            </trkpt>
            <trkpt lat="47.333860137" lon="6.851256173">
                <ele>697.000000</ele>
                <time>2012-07-14T16:44:03Z</time>
            </trkpt>
            <trkpt lat="47.333754860" lon="6.851213174">
                <ele>693.000000</ele>
                <time>2012-07-14T16:44:06Z</time>
            </trkpt>
            <trkpt lat="47.333569620" lon="6.851154752">
                <ele>690.000000</ele>
                <time>2012-07-14T16:44:10Z</time>
            </trkpt>
            <trkpt lat="47.333229734" lon="6.850903295">
                <ele>688.000000</ele>
                <time>2012-07-14T16:44:19Z</time>
            </trkpt>
            <trkpt lat="47.333043991" lon="6.850721072">
                <ele>684.000000</ele>
                <time>2012-07-14T16:44:24Z</time>
            </trkpt>
            <trkpt lat="47.332909126" lon="6.850589309">
                <ele>680.000000</ele>
                <time>2012-07-14T16:44:28Z</time>
            </trkpt>
            <trkpt lat="47.332774764" lon="6.850465173">
                <ele>677.000000</ele>
                <time>2012-07-14T16:44:32Z</time>
            </trkpt>
            <trkpt lat="47.332699662" lon="6.850415133">
                <ele>677.000000</ele>
                <time>2012-07-14T16:44:35Z</time>
            </trkpt>
            <trkpt lat="47.332495311" lon="6.850329470">
                <ele>677.000000</ele>
                <time>2012-07-14T16:44:47Z</time>
            </trkpt>
            <trkpt lat="47.332460443" lon="6.850325698">
                <ele>677.000000</ele>
                <time>2012-07-14T16:44:57Z</time>
            </trkpt>
            <trkpt lat="47.332149390" lon="6.850017328">
                <ele>677.000000</ele>
                <time>2012-07-14T16:45:07Z</time>
            </trkpt>
            <trkpt lat="47.332010670" lon="6.849842146">
                <ele>676.000000</ele>
                <time>2012-07-14T16:45:11Z</time>
            </trkpt>
            <trkpt lat="47.331910925" lon="6.849863771">
                <ele>675.000000</ele>
                <time>2012-07-14T16:45:15Z</time>
            </trkpt>
            <trkpt lat="47.331907488" lon="6.849889671">
                <ele>674.000000</ele>
                <time>2012-07-14T16:45:25Z</time>
            </trkpt>
            <trkpt lat="47.332099099" lon="6.850259649">
                <ele>673.000000</ele>
                <time>2012-07-14T16:45:38Z</time>
            </trkpt>
            <trkpt lat="47.332138661" lon="6.850536335">
                <ele>670.000000</ele>
                <time>2012-07-14T16:45:45Z</time>
            </trkpt>
            <trkpt lat="47.332090968" lon="6.850585956">
                <ele>666.000000</ele>
                <time>2012-07-14T16:45:50Z</time>
            </trkpt>
            <trkpt lat="47.332067164" lon="6.850591991">
                <ele>666.000000</ele>
                <time>2012-07-14T16:45:52Z</time>
            </trkpt>
            <trkpt lat="47.331764158" lon="6.850679582">
                <ele>666.000000</ele>
                <time>2012-07-14T16:46:03Z</time>
            </trkpt>
            <trkpt lat="47.331689056" lon="6.850656197">
                <ele>664.000000</ele>
                <time>2012-07-14T16:46:07Z</time>
            </trkpt>
            <trkpt lat="47.331500128" lon="6.850397866">
                <ele>661.000000</ele>
                <time>2012-07-14T16:46:16Z</time>
            </trkpt>
            <trkpt lat="47.331476491" lon="6.850394513">
                <ele>658.000000</ele>
                <time>2012-07-14T16:46:20Z</time>
            </trkpt>
            <trkpt lat="47.331304746" lon="6.850318657">
                <ele>658.000000</ele>
                <time>2012-07-14T16:46:34Z</time>
            </trkpt>
            <trkpt lat="47.331146998" lon="6.850171555">
                <ele>654.000000</ele>
                <time>2012-07-14T16:46:40Z</time>
            </trkpt>
            <trkpt lat="47.331071729" lon="6.850097962">
                <ele>651.000000</ele>
                <time>2012-07-14T16:46:43Z</time>
            </trkpt>
            <trkpt lat="47.330915909" lon="6.849990925">
                <ele>648.000000</ele>
                <time>2012-07-14T16:46:46Z</time>
            </trkpt>
            <trkpt lat="47.330737207" lon="6.849767799">
                <ele>643.000000</ele>
                <time>2012-07-14T16:46:50Z</time>
            </trkpt>
            <trkpt lat="47.330626901" lon="6.849508798">
                <ele>639.000000</ele>
                <time>2012-07-14T16:46:53Z</time>
            </trkpt>
            <trkpt lat="47.330562193" lon="6.849336047">
                <ele>636.000000</ele>
                <time>2012-07-14T16:46:55Z</time>
            </trkpt>
            <trkpt lat="47.330484409" lon="6.849146448">
                <ele>632.000000</ele>
                <time>2012-07-14T16:46:57Z</time>
            </trkpt>
            <trkpt lat="47.330396315" lon="6.848971769">
                <ele>629.000000</ele>
                <time>2012-07-14T16:46:59Z</time>
            </trkpt>
            <trkpt lat="47.330356836" lon="6.848890381">
                <ele>627.000000</ele>
                <time>2012-07-14T16:47:00Z</time>
            </trkpt>
            <trkpt lat="47.330244100" lon="6.848674128">
                <ele>623.000000</ele>
                <time>2012-07-14T16:47:04Z</time>
            </trkpt>
            <trkpt lat="47.330112504" lon="6.848477237">
                <ele>620.000000</ele>
                <time>2012-07-14T16:47:09Z</time>
            </trkpt>
            <trkpt lat="47.330020471" lon="6.848399620">
                <ele>617.000000</ele>
                <time>2012-07-14T16:47:12Z</time>
            </trkpt>
            <trkpt lat="47.329903292" lon="6.848337343">
                <ele>615.000000</ele>
                <time>2012-07-14T16:47:15Z</time>
            </trkpt>
            <trkpt lat="47.329778234" lon="6.848329129">
                <ele>612.000000</ele>
                <time>2012-07-14T16:47:18Z</time>
            </trkpt>
            <trkpt lat="47.329674549" lon="6.848321334">
                <ele>610.000000</ele>
                <time>2012-07-14T16:47:20Z</time>
            </trkpt>
            <trkpt lat="47.329509593" lon="6.848333320">
                <ele>606.000000</ele>
                <time>2012-07-14T16:47:25Z</time>
            </trkpt>
            <trkpt lat="47.329372633" lon="6.848450834">
                <ele>605.000000</ele>
                <time>2012-07-14T16:47:35Z</time>
            </trkpt>
            <trkpt lat="47.329339022" lon="6.848503137">
                <ele>604.000000</ele>
                <time>2012-07-14T16:48:03Z</time>
            </trkpt>
            <trkpt lat="47.329329299" lon="6.848510932">
                <ele>604.000000</ele>
                <time>2012-07-14T16:48:04Z</time>
            </trkpt>
            <trkpt lat="47.329282193" lon="6.848537335">
                <ele>604.000000</ele>
                <time>2012-07-14T16:48:10Z</time>
            </trkpt>
            <trkpt lat="47.329264423" lon="6.848449661">
                <ele>600.000000</ele>
                <time>2012-07-14T16:48:17Z</time>
            </trkpt>
            <trkpt lat="47.329249671" lon="6.848446056">
                <ele>598.000000</ele>
                <time>2012-07-14T16:48:21Z</time>
            </trkpt>
            <trkpt lat="47.329259142" lon="6.848202478">
                <ele>597.000000</ele>
                <time>2012-07-14T16:48:28Z</time>
            </trkpt>
            <trkpt lat="47.329295017" lon="6.848017070">
                <ele>592.000000</ele>
                <time>2012-07-14T16:48:33Z</time>
            </trkpt>
            <trkpt lat="47.329317816" lon="6.847908441">
                <ele>588.000000</ele>
                <time>2012-07-14T16:48:35Z</time>
            </trkpt>
            <trkpt lat="47.329347907" lon="6.847830070">
                <ele>585.000000</ele>
                <time>2012-07-14T16:48:37Z</time>
            </trkpt>
            <trkpt lat="47.329376657" lon="6.847762093">
                <ele>583.000000</ele>
                <time>2012-07-14T16:48:40Z</time>
            </trkpt>
            <trkpt lat="47.329475982" lon="6.847571069">
                <ele>585.000000</ele>
                <time>2012-07-14T16:48:49Z</time>
            </trkpt>
            <trkpt lat="47.329664659" lon="6.847348195">
                <ele>582.000000</ele>
                <time>2012-07-14T16:48:54Z</time>
            </trkpt>
            <trkpt lat="47.329730205" lon="6.847287007">
                <ele>580.000000</ele>
                <time>2012-07-14T16:48:55Z</time>
            </trkpt>
            <trkpt lat="47.329914440" lon="6.847074777">
                <ele>574.000000</ele>
                <time>2012-07-14T16:48:58Z</time>
            </trkpt>
            <trkpt lat="47.329964815" lon="6.847019205">
                <ele>572.000000</ele>
                <time>2012-07-14T16:48:59Z</time>
            </trkpt>
            <trkpt lat="47.330154078" lon="6.846765904">
                <ele>567.000000</ele>
                <time>2012-07-14T16:49:04Z</time>
            </trkpt>
            <trkpt lat="47.330217361" lon="6.846611425">
                <ele>567.000000</ele>
                <time>2012-07-14T16:49:12Z</time>
            </trkpt>
            <trkpt lat="47.330272179" lon="6.846407829">
                <ele>567.000000</ele>
                <time>2012-07-14T16:49:33Z</time>
            </trkpt>
            <trkpt lat="47.330284417" lon="6.846366171">
                <ele>567.000000</ele>
                <time>2012-07-14T16:49:34Z</time>
            </trkpt>
            <trkpt lat="47.330345185" lon="6.846216805">
                <ele>563.000000</ele>
                <time>2012-07-14T16:49:38Z</time>
            </trkpt>
            <trkpt lat="47.330391454" lon="6.846086634">
                <ele>557.000000</ele>
                <time>2012-07-14T16:49:41Z</time>
            </trkpt>
            <trkpt lat="47.330435459" lon="6.845952105">
                <ele>553.000000</ele>
                <time>2012-07-14T16:49:44Z</time>
            </trkpt>
            <trkpt lat="47.330479966" lon="6.845834842">
                <ele>551.000000</ele>
                <time>2012-07-14T16:49:47Z</time>
            </trkpt>
            <trkpt lat="47.330654897" lon="6.845559832">
                <ele>551.000000</ele>
                <time>2012-07-14T16:50:00Z</time>
            </trkpt>
            <trkpt lat="47.330672080" lon="6.845406946">
                <ele>550.000000</ele>
                <time>2012-07-14T16:50:13Z</time>
            </trkpt>
            <trkpt lat="47.330695298" lon="6.845298065">
                <ele>550.000000</ele>
                <time>2012-07-14T16:50:19Z</time>
            </trkpt>
            <trkpt lat="47.330662357" lon="6.845197733">
                <ele>550.000000</ele>
                <time>2012-07-14T16:50:35Z</time>
            </trkpt>
            <trkpt lat="47.330672247" lon="6.845162697">
                <ele>550.000000</ele>
                <time>2012-07-14T16:51:08Z</time>
            </trkpt>
            <trkpt lat="47.330675181" lon="6.845102431">
                <ele>550.000000</ele>
                <time>2012-07-14T16:51:38Z</time>
            </trkpt>
            <trkpt lat="47.330679456" lon="6.845089523">
                <ele>550.000000</ele>
                <time>2012-07-14T16:51:39Z</time>
            </trkpt>
            <trkpt lat="47.330703931" lon="6.845038896">
                <ele>551.000000</ele>
                <time>2012-07-14T16:51:44Z</time>
            </trkpt>
            <trkpt lat="47.330695381" lon="6.844951976">
                <ele>551.000000</ele>
                <time>2012-07-14T16:51:48Z</time>
            </trkpt>
            <trkpt lat="47.330556577" lon="6.844602032">
                <ele>548.000000</ele>
                <time>2012-07-14T16:51:58Z</time>
            </trkpt>
            <trkpt lat="47.330533527" lon="6.844517710">
                <ele>544.000000</ele>
                <time>2012-07-14T16:52:01Z</time>
            </trkpt>
            <trkpt lat="47.330509219" lon="6.844424000">
                <ele>541.000000</ele>
                <time>2012-07-14T16:52:05Z</time>
            </trkpt>
            <trkpt lat="47.330430010" lon="6.844234234">
                <ele>540.000000</ele>
                <time>2012-07-14T16:52:16Z</time>
            </trkpt>
            <trkpt lat="47.330403607" lon="6.844187044">
                <ele>539.000000</ele>
                <time>2012-07-14T16:52:28Z</time>
            </trkpt>
            <trkpt lat="47.330307635" lon="6.844126862">
                <ele>539.000000</ele>
                <time>2012-07-14T16:52:33Z</time>
            </trkpt>
            <trkpt lat="47.330193138" lon="6.844048575">
                <ele>539.000000</ele>
                <time>2012-07-14T16:52:37Z</time>
            </trkpt>
            <trkpt lat="47.330095572" lon="6.843868364">
                <ele>534.000000</ele>
                <time>2012-07-14T16:52:42Z</time>
            </trkpt>
            <trkpt lat="47.330061458" lon="6.843756298">
                <ele>529.000000</ele>
                <time>2012-07-14T16:52:45Z</time>
            </trkpt>
            <trkpt lat="47.330040755" lon="6.843693601">
                <ele>527.000000</ele>
                <time>2012-07-14T16:52:46Z</time>
            </trkpt>
            <trkpt lat="47.330015609" lon="6.843493525">
                <ele>522.000000</ele>
                <time>2012-07-14T16:52:49Z</time>
            </trkpt>
            <trkpt lat="47.329901783" lon="6.843132936">
                <ele>519.000000</ele>
                <time>2012-07-14T16:52:54Z</time>
            </trkpt>
            <trkpt lat="47.329841349" lon="6.842927830">
                <ele>519.000000</ele>
                <time>2012-07-14T16:52:57Z</time>
            </trkpt>
            <trkpt lat="47.329624342" lon="6.842359705">
                <ele>520.000000</ele>
                <time>2012-07-14T16:53:07Z</time>
            </trkpt>
            <trkpt lat="47.329541612" lon="6.842176812">
                <ele>520.000000</ele>
                <time>2012-07-14T16:53:13Z</time>
            </trkpt>
            <trkpt lat="47.329379926" lon="6.841931306">
                <ele>520.000000</ele>
                <time>2012-07-14T16:53:26Z</time>
            </trkpt>
            <trkpt lat="47.329259897" lon="6.841700049">
                <ele>520.000000</ele>
                <time>2012-07-14T16:53:38Z</time>
            </trkpt>
            <trkpt lat="47.329129390" lon="6.841595359">
                <ele>519.000000</ele>
                <time>2012-07-14T16:53:49Z</time>
            </trkpt>
            <trkpt lat="47.329121847" lon="6.841574404">
                <ele>519.000000</ele>
                <time>2012-07-14T16:53:50Z</time>
            </trkpt>
            <trkpt lat="47.329081195" lon="6.841466278">
                <ele>519.000000</ele>
                <time>2012-07-14T16:53:56Z</time>
            </trkpt>
            <trkpt lat="47.329062000" lon="6.841400312">
                <ele>517.000000</ele>
                <time>2012-07-14T16:54:01Z</time>
            </trkpt>
            <trkpt lat="47.329041883" lon="6.841379274">
                <ele>518.000000</ele>
                <time>2012-07-14T16:54:03Z</time>
            </trkpt>
            <trkpt lat="47.328759665" lon="6.841174336">
                <ele>513.000000</ele>
                <time>2012-07-14T16:54:12Z</time>
            </trkpt>
            <trkpt lat="47.328711469" lon="6.841057912">
                <ele>510.000000</ele>
                <time>2012-07-14T16:54:16Z</time>
            </trkpt>
            <trkpt lat="47.328706104" lon="6.840571929">
                <ele>510.000000</ele>
                <time>2012-07-14T16:54:28Z</time>
            </trkpt>
            <trkpt lat="47.328871647" lon="6.840059124">
                <ele>511.000000</ele>
                <time>2012-07-14T16:54:36Z</time>
            </trkpt>
            <trkpt lat="47.328937529" lon="6.839907412">
                <ele>508.000000</ele>
                <time>2012-07-14T16:54:38Z</time>
            </trkpt>
            <trkpt lat="47.328974493" lon="6.839629384">
                <ele>504.000000</ele>
                <time>2012-07-14T16:54:43Z</time>
            </trkpt>
            <trkpt lat="47.328982791" lon="6.839584708">
                <ele>503.000000</ele>
                <time>2012-07-14T16:54:45Z</time>
            </trkpt>
            <trkpt lat="47.328959405" lon="6.839392511">
                <ele>503.000000</ele>
                <time>2012-07-14T16:54:54Z</time>
            </trkpt>
            <trkpt lat="47.328948090" lon="6.839166200">
                <ele>504.000000</ele>
                <time>2012-07-14T16:55:05Z</time>
            </trkpt>
            <trkpt lat="47.328865109" lon="6.838930752">
                <ele>504.000000</ele>
                <time>2012-07-14T16:55:11Z</time>
            </trkpt>
            <trkpt lat="47.328849938" lon="6.838645097">
                <ele>502.000000</ele>
                <time>2012-07-14T16:55:19Z</time>
            </trkpt>
            <trkpt lat="47.328743320" lon="6.838249303">
                <ele>501.000000</ele>
                <time>2012-07-14T16:55:30Z</time>
            </trkpt>
            <trkpt lat="47.328698812" lon="6.838180739">
                <ele>501.000000</ele>
                <time>2012-07-14T16:55:35Z</time>
            </trkpt>
            <trkpt lat="47.328676432" lon="6.838083509">
                <ele>500.000000</ele>
                <time>2012-07-14T16:55:41Z</time>
            </trkpt>
            <trkpt lat="47.328597642" lon="6.838028775">
                <ele>500.000000</ele>
                <time>2012-07-14T16:55:53Z</time>
            </trkpt>
            <trkpt lat="47.328590434" lon="6.838008240">
                <ele>500.000000</ele>
                <time>2012-07-14T16:56:13Z</time>
            </trkpt>
            <trkpt lat="47.328590183" lon="6.838002959">
                <ele>500.000000</ele>
                <time>2012-07-14T16:56:17Z</time>
            </trkpt>
            <trkpt lat="47.328559169" lon="6.837946717">
                <ele>500.000000</ele>
                <time>2012-07-14T16:56:21Z</time>
            </trkpt>
            <trkpt lat="47.328451462" lon="6.837599203">
                <ele>500.000000</ele>
                <time>2012-07-14T16:56:31Z</time>
            </trkpt>
            <trkpt lat="47.328224564" lon="6.837006435">
                <ele>499.000000</ele>
                <time>2012-07-14T16:56:44Z</time>
            </trkpt>
            <trkpt lat="47.328125825" lon="6.836602762">
                <ele>499.000000</ele>
                <time>2012-07-14T16:56:54Z</time>
            </trkpt>
            <trkpt lat="47.328114007" lon="6.836368572">
                <ele>498.000000</ele>
                <time>2012-07-14T16:57:06Z</time>
            </trkpt>
            <trkpt lat="47.328117192" lon="6.836223481">
                <ele>498.000000</ele>
                <time>2012-07-14T16:57:16Z</time>
            </trkpt>
            <trkpt lat="47.328082239" lon="6.836048635">
                <ele>498.000000</ele>
                <time>2012-07-14T16:57:25Z</time>
            </trkpt>
            <trkpt lat="47.328015268" lon="6.835602885">
                <ele>499.000000</ele>
                <time>2012-07-14T16:57:41Z</time>
            </trkpt>
            <trkpt lat="47.328015100" lon="6.835245900">
                <ele>498.000000</ele>
                <time>2012-07-14T16:57:54Z</time>
            </trkpt>
            <trkpt lat="47.328038150" lon="6.834765281">
                <ele>499.000000</ele>
                <time>2012-07-14T16:58:08Z</time>
            </trkpt>
            <trkpt lat="47.328093974" lon="6.834501671">
                <ele>500.000000</ele>
                <time>2012-07-14T16:58:16Z</time>
            </trkpt>
            <trkpt lat="47.328122389" lon="6.834296649">
                <ele>500.000000</ele>
                <time>2012-07-14T16:58:23Z</time>
            </trkpt>
            <trkpt lat="47.328100260" lon="6.833990542">
                <ele>501.000000</ele>
                <time>2012-07-14T16:58:32Z</time>
            </trkpt>
            <trkpt lat="47.328100260" lon="6.833939329">
                <ele>501.000000</ele>
                <time>2012-07-14T16:58:34Z</time>
            </trkpt>
            <trkpt lat="47.328092298" lon="6.833771691">
                <ele>501.000000</ele>
                <time>2012-07-14T16:58:40Z</time>
            </trkpt>
            <trkpt lat="47.328122053" lon="6.833663900">
                <ele>502.000000</ele>
                <time>2012-07-14T16:58:45Z</time>
            </trkpt>
            <trkpt lat="47.328156419" lon="6.833627857">
                <ele>503.000000</ele>
                <time>2012-07-14T16:58:48Z</time>
            </trkpt>
            <trkpt lat="47.328166142" lon="6.833579913">
                <ele>503.000000</ele>
                <time>2012-07-14T16:58:50Z</time>
            </trkpt>
            <trkpt lat="47.328152731" lon="6.833458375">
                <ele>503.000000</ele>
                <time>2012-07-14T16:58:54Z</time>
            </trkpt>
            <trkpt lat="47.328172345" lon="6.833340777">
                <ele>504.000000</ele>
                <time>2012-07-14T16:58:58Z</time>
            </trkpt>
            <trkpt lat="47.328200005" lon="6.833211780">
                <ele>504.000000</ele>
                <time>2012-07-14T16:59:03Z</time>
            </trkpt>
            <trkpt lat="47.328263204" lon="6.832935680">
                <ele>506.000000</ele>
                <time>2012-07-14T16:59:15Z</time>
            </trkpt>
            <trkpt lat="47.328312490" lon="6.832821351">
                <ele>506.000000</ele>
                <time>2012-07-14T16:59:22Z</time>
            </trkpt>
            <trkpt lat="47.328362698" lon="6.832711631">
                <ele>508.000000</ele>
                <time>2012-07-14T16:59:30Z</time>
            </trkpt>
            <trkpt lat="47.328323135" lon="6.832567966">
                <ele>510.000000</ele>
                <time>2012-07-14T16:59:45Z</time>
            </trkpt>
            <trkpt lat="47.328320621" lon="6.832564613">
                <ele>510.000000</ele>
                <time>2012-07-14T16:59:47Z</time>
            </trkpt>
            <trkpt lat="47.328289356" lon="6.832553130">
                <ele>511.000000</ele>
                <time>2012-07-14T16:59:59Z</time>
            </trkpt>
            <trkpt lat="47.328268904" lon="6.832555644">
                <ele>511.000000</ele>
                <time>2012-07-14T17:00:32Z</time>
            </trkpt>
            <trkpt lat="47.328265971" lon="6.832533097">
                <ele>510.000000</ele>
                <time>2012-07-14T17:01:07Z</time>
            </trkpt>
            <trkpt lat="47.328213081" lon="6.832402088">
                <ele>511.000000</ele>
                <time>2012-07-14T17:01:23Z</time>
            </trkpt>
            <trkpt lat="47.328192126" lon="6.832343247">
                <ele>512.000000</ele>
                <time>2012-07-14T17:01:28Z</time>
            </trkpt>
            <trkpt lat="47.328142086" lon="6.832215590">
                <ele>512.000000</ele>
                <time>2012-07-14T17:01:33Z</time>
            </trkpt>
            <trkpt lat="47.328025075" lon="6.831958769">
                <ele>512.000000</ele>
                <time>2012-07-14T17:01:47Z</time>
            </trkpt>
            <trkpt lat="47.328002611" lon="6.831912836">
                <ele>513.000000</ele>
                <time>2012-07-14T17:01:50Z</time>
            </trkpt>
            <trkpt lat="47.327966820" lon="6.831850810">
                <ele>513.000000</ele>
                <time>2012-07-14T17:01:54Z</time>
            </trkpt>
            <trkpt lat="47.327874787" lon="6.831630953">
                <ele>514.000000</ele>
                <time>2012-07-14T17:02:09Z</time>
            </trkpt>
            <trkpt lat="47.327789292" lon="6.831437666">
                <ele>516.000000</ele>
                <time>2012-07-14T17:02:23Z</time>
            </trkpt>
            <trkpt lat="47.327747382" lon="6.831320906">
                <ele>516.000000</ele>
                <time>2012-07-14T17:02:30Z</time>
            </trkpt>
            <trkpt lat="47.327696085" lon="6.831217976">
                <ele>517.000000</ele>
                <time>2012-07-14T17:02:35Z</time>
            </trkpt>
            <trkpt lat="47.327555688" lon="6.830852693">
                <ele>518.000000</ele>
                <time>2012-07-14T17:02:50Z</time>
            </trkpt>
            <trkpt lat="47.327399449" lon="6.830415158">
                <ele>520.000000</ele>
                <time>2012-07-14T17:03:09Z</time>
            </trkpt>
            <trkpt lat="47.327309260" lon="6.830047192">
                <ele>521.000000</ele>
                <time>2012-07-14T17:03:24Z</time>
            </trkpt>
            <trkpt lat="47.327274894" lon="6.829874609">
                <ele>522.000000</ele>
                <time>2012-07-14T17:03:30Z</time>
            </trkpt>
            <trkpt lat="47.327245809" lon="6.829397678">
                <ele>522.000000</ele>
                <time>2012-07-14T17:03:43Z</time>
            </trkpt>
            <trkpt lat="47.327222591" lon="6.828815388">
                <ele>521.000000</ele>
                <time>2012-07-14T17:03:57Z</time>
            </trkpt>
            <trkpt lat="47.327229632" lon="6.828368381">
                <ele>521.000000</ele>
                <time>2012-07-14T17:04:09Z</time>
            </trkpt>
            <trkpt lat="47.327257376" lon="6.827900670">
                <ele>522.000000</ele>
                <time>2012-07-14T17:04:22Z</time>
            </trkpt>
            <trkpt lat="47.327240696" lon="6.827472774">
                <ele>522.000000</ele>
                <time>2012-07-14T17:04:33Z</time>
            </trkpt>
            <trkpt lat="47.327133575" lon="6.827165745">
                <ele>522.000000</ele>
                <time>2012-07-14T17:04:40Z</time>
            </trkpt>
            <trkpt lat="47.327104071" lon="6.827047476">
                <ele>522.000000</ele>
                <time>2012-07-14T17:04:45Z</time>
            </trkpt>
            <trkpt lat="47.327044057" lon="6.826905990">
                <ele>523.000000</ele>
                <time>2012-07-14T17:04:49Z</time>
            </trkpt>
            <trkpt lat="47.326763095" lon="6.826503994">
                <ele>523.000000</ele>
                <time>2012-07-14T17:05:00Z</time>
            </trkpt>
            <trkpt lat="47.326564109" lon="6.826338619">
                <ele>522.000000</ele>
                <time>2012-07-14T17:05:06Z</time>
            </trkpt>
            <trkpt lat="47.325970251" lon="6.825777534">
                <ele>519.000000</ele>
                <time>2012-07-14T17:05:19Z</time>
            </trkpt>
            <trkpt lat="47.325867740" lon="6.825528927">
                <ele>517.000000</ele>
                <time>2012-07-14T17:05:22Z</time>
            </trkpt>
            <trkpt lat="47.325746035" lon="6.825048644">
                <ele>512.000000</ele>
                <time>2012-07-14T17:05:27Z</time>
            </trkpt>
            <trkpt lat="47.325710412" lon="6.824846473">
                <ele>511.000000</ele>
                <time>2012-07-14T17:05:29Z</time>
            </trkpt>
            <trkpt lat="47.325728014" lon="6.824104087">
                <ele>511.000000</ele>
                <time>2012-07-14T17:05:36Z</time>
            </trkpt>
            <trkpt lat="47.325738994" lon="6.823674180">
                <ele>510.000000</ele>
                <time>2012-07-14T17:05:40Z</time>
            </trkpt>
            <trkpt lat="47.325581415" lon="6.822926849">
                <ele>506.000000</ele>
                <time>2012-07-14T17:05:47Z</time>
            </trkpt>
            <trkpt lat="47.325505810" lon="6.822601380">
                <ele>502.000000</ele>
                <time>2012-07-14T17:05:50Z</time>
            </trkpt>
            <trkpt lat="47.325372035" lon="6.822055886">
                <ele>499.000000</ele>
                <time>2012-07-14T17:05:55Z</time>
            </trkpt>
            <trkpt lat="47.325024772" lon="6.820941009">
                <ele>495.000000</ele>
                <time>2012-07-14T17:06:05Z</time>
            </trkpt>
            <trkpt lat="47.324854201" lon="6.820629956">
                <ele>494.000000</ele>
                <time>2012-07-14T17:06:08Z</time>
            </trkpt>
            <trkpt lat="47.324531246" lon="6.820141710">
                <ele>491.000000</ele>
                <time>2012-07-14T17:06:13Z</time>
            </trkpt>
            <trkpt lat="47.324219607" lon="6.819627397">
                <ele>488.000000</ele>
                <time>2012-07-14T17:06:18Z</time>
            </trkpt>
            <trkpt lat="47.323896736" lon="6.819122555">
                <ele>484.000000</ele>
                <time>2012-07-14T17:06:23Z</time>
            </trkpt>
            <trkpt lat="47.323631113" lon="6.818690719">
                <ele>481.000000</ele>
                <time>2012-07-14T17:06:27Z</time>
            </trkpt>
            <trkpt lat="47.323341100" lon="6.818241617">
                <ele>478.000000</ele>
                <time>2012-07-14T17:06:31Z</time>
            </trkpt>
            <trkpt lat="47.323037842" lon="6.817630827">
                <ele>476.000000</ele>
                <time>2012-07-14T17:06:36Z</time>
            </trkpt>
            <trkpt lat="47.323021917" lon="6.816908978">
                <ele>474.000000</ele>
                <time>2012-07-14T17:06:42Z</time>
            </trkpt>
            <trkpt lat="47.323159548" lon="6.816767910">
                <ele>472.000000</ele>
                <time>2012-07-14T17:06:44Z</time>
            </trkpt>
            <trkpt lat="47.323524831" lon="6.816508574">
                <ele>467.000000</ele>
                <time>2012-07-14T17:06:49Z</time>
            </trkpt>
            <trkpt lat="47.323740916" lon="6.816347977">
                <ele>464.000000</ele>
                <time>2012-07-14T17:06:52Z</time>
            </trkpt>
            <trkpt lat="47.324174764" lon="6.816061484">
                <ele>461.000000</ele>
                <time>2012-07-14T17:06:58Z</time>
            </trkpt>
            <trkpt lat="47.325082524" lon="6.815959308">
                <ele>460.000000</ele>
                <time>2012-07-14T17:07:09Z</time>
            </trkpt>
            <trkpt lat="47.325327778" lon="6.815965176">
                <ele>456.000000</ele>
                <time>2012-07-14T17:07:12Z</time>
            </trkpt>
            <trkpt lat="47.325410927" lon="6.815962074">
                <ele>455.000000</ele>
                <time>2012-07-14T17:07:13Z</time>
            </trkpt>
            <trkpt lat="47.325706892" lon="6.815808434">
                <ele>451.000000</ele>
                <time>2012-07-14T17:07:17Z</time>
            </trkpt>
            <trkpt lat="47.325965306" lon="6.815506015">
                <ele>449.000000</ele>
                <time>2012-07-14T17:07:22Z</time>
            </trkpt>
            <trkpt lat="47.326109055" lon="6.815299066">
                <ele>449.000000</ele>
                <time>2012-07-14T17:07:26Z</time>
            </trkpt>
            <trkpt lat="47.326020626" lon="6.815113910">
                <ele>448.000000</ele>
                <time>2012-07-14T17:07:32Z</time>
            </trkpt>
            <trkpt lat="47.325667413" lon="6.815136038">
                <ele>444.000000</ele>
                <time>2012-07-14T17:07:38Z</time>
            </trkpt>
            <trkpt lat="47.325540008" lon="6.815126231">
                <ele>441.000000</ele>
                <time>2012-07-14T17:07:40Z</time>
            </trkpt>
            <trkpt lat="47.325356696" lon="6.815033779">
                <ele>437.000000</ele>
                <time>2012-07-14T17:07:43Z</time>
            </trkpt>
            <trkpt lat="47.325161733" lon="6.814889191">
                <ele>433.000000</ele>
                <time>2012-07-14T17:07:46Z</time>
            </trkpt>
            <trkpt lat="47.325025192" lon="6.814795733">
                <ele>431.000000</ele>
                <time>2012-07-14T17:07:48Z</time>
            </trkpt>
            <trkpt lat="47.324727550" lon="6.814507647">
                <ele>427.000000</ele>
                <time>2012-07-14T17:07:53Z</time>
            </trkpt>
            <trkpt lat="47.324669045" lon="6.814451655">
                <ele>427.000000</ele>
                <time>2012-07-14T17:07:54Z</time>
            </trkpt>
            <trkpt lat="47.324338546" lon="6.814266918">
                <ele>423.000000</ele>
                <time>2012-07-14T17:07:59Z</time>
            </trkpt>
            <trkpt lat="47.324165963" lon="6.814206820">
                <ele>420.000000</ele>
                <time>2012-07-14T17:08:02Z</time>
            </trkpt>
            <trkpt lat="47.324016513" lon="6.814153763">
                <ele>416.000000</ele>
                <time>2012-07-14T17:08:05Z</time>
            </trkpt>
            <trkpt lat="47.323882235" lon="6.814106572">
                <ele>413.000000</ele>
                <time>2012-07-14T17:08:08Z</time>
            </trkpt>
            <trkpt lat="47.323192656" lon="6.813822426">
                <ele>410.000000</ele>
                <time>2012-07-14T17:08:19Z</time>
            </trkpt>
            <trkpt lat="47.322876323" lon="6.813778505">
                <ele>409.000000</ele>
                <time>2012-07-14T17:08:23Z</time>
            </trkpt>
            <trkpt lat="47.322578514" lon="6.813901467">
                <ele>408.000000</ele>
                <time>2012-07-14T17:08:27Z</time>
            </trkpt>
            <trkpt lat="47.322283136" lon="6.814160971">
                <ele>403.000000</ele>
                <time>2012-07-14T17:08:31Z</time>
            </trkpt>
            <trkpt lat="47.322072163" lon="6.814408824">
                <ele>400.000000</ele>
                <time>2012-07-14T17:08:34Z</time>
            </trkpt>
            <trkpt lat="47.321812157" lon="6.814751308">
                <ele>396.000000</ele>
                <time>2012-07-14T17:08:38Z</time>
            </trkpt>
            <trkpt lat="47.321016211" lon="6.815552199">
                <ele>395.000000</ele>
                <time>2012-07-14T17:08:50Z</time>
            </trkpt>
            <trkpt lat="47.320621256" lon="6.815907424">
                <ele>395.000000</ele>
                <time>2012-07-14T17:09:00Z</time>
            </trkpt>
            <trkpt lat="47.320153210" lon="6.816344205">
                <ele>394.000000</ele>
                <time>2012-07-14T17:09:14Z</time>
            </trkpt>
            <trkpt lat="47.320023458" lon="6.816448308">
                <ele>394.000000</ele>
                <time>2012-07-14T17:09:18Z</time>
            </trkpt>
            <trkpt lat="47.319888594" lon="6.816144968">
                <ele>394.000000</ele>
                <time>2012-07-14T17:09:26Z</time>
            </trkpt>
            <trkpt lat="47.319646021" lon="6.815796113">
                <ele>393.000000</ele>
                <time>2012-07-14T17:09:36Z</time>
            </trkpt>
            <trkpt lat="47.319774600" lon="6.815342149">
                <ele>392.000000</ele>
                <time>2012-07-14T17:09:46Z</time>
            </trkpt>
            <trkpt lat="47.319993200" lon="6.814895645">
                <ele>391.000000</ele>
                <time>2012-07-14T17:09:58Z</time>
            </trkpt>
            <trkpt lat="47.319892533" lon="6.814450649">
                <ele>391.000000</ele>
                <time>2012-07-14T17:10:06Z</time>
            </trkpt>
            <trkpt lat="47.319442341" lon="6.813672977">
                <ele>389.000000</ele>
                <time>2012-07-14T17:10:21Z</time>
            </trkpt>
            <trkpt lat="47.319274955" lon="6.813308699">
                <ele>386.000000</ele>
                <time>2012-07-14T17:10:32Z</time>
            </trkpt>
            <trkpt lat="47.319255425" lon="6.813224377">
                <ele>386.000000</ele>
                <time>2012-07-14T17:10:35Z</time>
            </trkpt>
            <trkpt lat="47.318870444" lon="6.812966969">
                <ele>384.000000</ele>
                <time>2012-07-14T17:10:50Z</time>
            </trkpt>
            <trkpt lat="47.318638265" lon="6.812793128">
                <ele>384.000000</ele>
                <time>2012-07-14T17:11:03Z</time>
            </trkpt>
            <trkpt lat="47.318391167" lon="6.812652396">
                <ele>384.000000</ele>
                <time>2012-07-14T17:11:19Z</time>
            </trkpt>
            <trkpt lat="47.318173153" lon="6.812483668">
                <ele>385.000000</ele>
                <time>2012-07-14T17:11:33Z</time>
            </trkpt>
            <trkpt lat="47.318050358" lon="6.812298428">
                <ele>386.000000</ele>
                <time>2012-07-14T17:11:44Z</time>
            </trkpt>
            <trkpt lat="47.317992523" lon="6.812061137">
                <ele>387.000000</ele>
                <time>2012-07-14T17:11:58Z</time>
            </trkpt>
            <trkpt lat="47.318027057" lon="6.811974384">
                <ele>387.000000</ele>
                <time>2012-07-14T17:12:02Z</time>
            </trkpt>
            <trkpt lat="47.318033343" lon="6.811774559">
                <ele>387.000000</ele>
                <time>2012-07-14T17:12:10Z</time>
            </trkpt>
            <trkpt lat="47.317837123" lon="6.811678167">
                <ele>387.000000</ele>
                <time>2012-07-14T17:12:23Z</time>
            </trkpt>
            <trkpt lat="47.317700163" lon="6.811688142">
                <ele>387.000000</ele>
                <time>2012-07-14T17:12:31Z</time>
            </trkpt>
            <trkpt lat="47.317477204" lon="6.811568364">
                <ele>387.000000</ele>
                <time>2012-07-14T17:12:44Z</time>
            </trkpt>
            <trkpt lat="47.317274949" lon="6.811454706">
                <ele>387.000000</ele>
                <time>2012-07-14T17:12:57Z</time>
            </trkpt>
            <trkpt lat="47.317301687" lon="6.811536178">
                <ele>387.000000</ele>
                <time>2012-07-14T17:13:05Z</time>
            </trkpt>
            <trkpt lat="47.317321971" lon="6.811541878">
                <ele>387.000000</ele>
                <time>2012-07-14T17:13:06Z</time>
            </trkpt>
            <trkpt lat="47.317358265" lon="6.811558893">
                <ele>387.000000</ele>
                <time>2012-07-14T17:13:08Z</time>
            </trkpt>
            <trkpt lat="47.317373939" lon="6.811540034">
                <ele>387.000000</ele>
                <time>2012-07-14T17:13:18Z</time>
            </trkpt>
            <trkpt lat="47.317377795" lon="6.811562665">
                <ele>387.000000</ele>
                <time>2012-07-14T17:13:23Z</time>
            </trkpt>
            <trkpt lat="47.317449544" lon="6.811670624">
                <ele>387.000000</ele>
                <time>2012-07-14T17:13:30Z</time>
            </trkpt>
            <trkpt lat="47.317556497" lon="6.811695686">
                <ele>387.000000</ele>
                <time>2012-07-14T17:13:41Z</time>
            </trkpt>
            <trkpt lat="47.317602681" lon="6.811659979">
                <ele>387.000000</ele>
                <time>2012-07-14T17:14:05Z</time>
            </trkpt>
            <trkpt lat="47.317628330" lon="6.811673893">
                <ele>387.000000</ele>
                <time>2012-07-14T17:14:14Z</time>
            </trkpt>
            <trkpt lat="47.317818599" lon="6.811757963">
                <ele>387.000000</ele>
                <time>2012-07-14T17:14:24Z</time>
            </trkpt>
            <trkpt lat="47.317948099" lon="6.811761232">
                <ele>387.000000</ele>
                <time>2012-07-14T17:14:37Z</time>
            </trkpt>
            <trkpt lat="47.317985147" lon="6.811865671">
                <ele>387.000000</ele>
                <time>2012-07-14T17:14:40Z</time>
            </trkpt>
            <trkpt lat="47.318130238" lon="6.812179741">
                <ele>387.000000</ele>
                <time>2012-07-14T17:14:53Z</time>
            </trkpt>
            <trkpt lat="47.318246076" lon="6.812411165">
                <ele>387.000000</ele>
                <time>2012-07-14T17:15:05Z</time>
            </trkpt>
            <trkpt lat="47.318269964" lon="6.812460534">
                <ele>386.000000</ele>
                <time>2012-07-14T17:15:19Z</time>
            </trkpt>
            <trkpt lat="47.318264181" lon="6.812449889">
                <ele>386.000000</ele>
                <time>2012-07-14T17:15:57Z</time>
            </trkpt>
            <trkpt lat="47.318251356" lon="6.812447291">
                <ele>386.000000</ele>
                <time>2012-07-14T17:16:27Z</time>
            </trkpt>
            <trkpt lat="47.318226797" lon="6.812415356">
                <ele>385.000000</ele>
                <time>2012-07-14T17:16:59Z</time>
            </trkpt>
            <trkpt lat="47.318231408" lon="6.812427510">
                <ele>385.000000</ele>
                <time>2012-07-14T17:17:36Z</time>
            </trkpt>
            <trkpt lat="47.318239873" lon="6.812434634">
                <ele>385.000000</ele>
                <time>2012-07-14T17:18:10Z</time>
            </trkpt>
            <trkpt lat="47.318247668" lon="6.812430443">
                <ele>385.000000</ele>
                <time>2012-07-14T17:18:47Z</time>
            </trkpt>
            <trkpt lat="47.318248507" lon="6.812439328">
                <ele>385.000000</ele>
                <time>2012-07-14T17:19:28Z</time>
            </trkpt>
            <trkpt lat="47.318251524" lon="6.812455673">
                <ele>385.000000</ele>
                <time>2012-07-14T17:20:09Z</time>
            </trkpt>
            <trkpt lat="47.318255464" lon="6.812435724">
                <ele>385.000000</ele>
                <time>2012-07-14T17:20:53Z</time>
            </trkpt>
            <trkpt lat="47.318252698" lon="6.812447626">
                <ele>385.000000</ele>
                <time>2012-07-14T17:21:13Z</time>
            </trkpt>
            <trkpt lat="47.318255380" lon="6.812459193">
                <ele>385.000000</ele>
                <time>2012-07-14T17:21:36Z</time>
            </trkpt>
            <trkpt lat="47.318263510" lon="6.812453158">
                <ele>384.000000</ele>
                <time>2012-07-14T17:22:04Z</time>
            </trkpt>
            <trkpt lat="47.318263845" lon="6.812459947">
                <ele>384.000000</ele>
                <time>2012-07-14T17:22:17Z</time>
            </trkpt>
            <trkpt lat="47.318267869" lon="6.812464306">
                <ele>384.000000</ele>
                <time>2012-07-14T17:22:47Z</time>
            </trkpt>
            <trkpt lat="47.318273568" lon="6.812453745">
                <ele>384.000000</ele>
                <time>2012-07-14T17:23:21Z</time>
            </trkpt>
            <trkpt lat="47.318271305" lon="6.812475873">
                <ele>384.000000</ele>
                <time>2012-07-14T17:23:56Z</time>
            </trkpt>
            <trkpt lat="47.318259068" lon="6.812468078">
                <ele>384.000000</ele>
                <time>2012-07-14T17:24:22Z</time>
            </trkpt>
            <trkpt lat="47.318253117" lon="6.812464139">
                <ele>384.000000</ele>
                <time>2012-07-14T17:24:43Z</time>
            </trkpt>
            <trkpt lat="47.318251859" lon="6.812445866">
                <ele>384.000000</ele>
                <time>2012-07-14T17:24:56Z</time>
            </trkpt>
            <trkpt lat="47.318234928" lon="6.812436730">
                <ele>384.000000</ele>
                <time>2012-07-14T17:25:04Z</time>
            </trkpt>
            <trkpt lat="47.318267785" lon="6.812423402">
                <ele>384.000000</ele>
                <time>2012-07-14T17:25:15Z</time>
            </trkpt>
            <trkpt lat="47.318276586" lon="6.812424325">
                <ele>384.000000</ele>
                <time>2012-07-14T17:25:33Z</time>
            </trkpt>
            <trkpt lat="47.318275161" lon="6.812379900">
                <ele>384.000000</ele>
                <time>2012-07-14T17:25:53Z</time>
            </trkpt>
            <trkpt lat="47.318246243" lon="6.812391048">
                <ele>384.000000</ele>
                <time>2012-07-14T17:26:16Z</time>
            </trkpt>
        </trkseg>
    </trk>
</gpx>
